Wetterdaten: Samstag, 13.01.2018
Datum Zeit Temp. A. Pool Temp. Feuchte A. Luftdruck Regen Wind Richtung Richtung Sonnenschein ET UV Solar Taupunkt Windchill Windben Empfang
13.01.2018 00:00 2,8 C 4,4 C 95 % 1026,2 hPa 0,0 l/m 4,7 km/h (1 Bft) O 86 0 min 0,000 mm 0,0 UV-I 0 W/m 2,1 C 2,8 C 9,7 km/h (2 Bft) 97,87 %
13.01.2018 00:02 2,8 C 4,4 C 95 % 1026,2 hPa 0,0 l/m 3,6 km/h (1 Bft) O-NO 74 0 min 0,000 mm 0,0 UV-I 0 W/m 2,1 C 2,8 C 6,4 km/h (2 Bft) 97,62 %
13.01.2018 00:04 2,8 C 4,4 C 95 % 1026,2 hPa 0,0 l/m 3,5 km/h (1 Bft) O 89 0 min 0,000 mm 0,0 UV-I 0 W/m 2,1 C 2,8 C 6,4 km/h (2 Bft) 97,37 %
13.01.2018 00:06 2,8 C 4,4 C 95 % 1026,1 hPa 0,0 l/m 3,3 km/h (1 Bft) O 89 0 min 0,000 mm 0,0 UV-I 0 W/m 2,1 C 2,8 C 4,8 km/h (1 Bft) 94,34 %
13.01.2018 00:08 2,8 C 4,4 C 95 % 1026,1 hPa 0,0 l/m 3,0 km/h (1 Bft) O 89 0 min 0,000 mm 0,0 UV-I 0 W/m 2,1 C 2,8 C 4,8 km/h (1 Bft) 98,11 %
13.01.2018 00:10 2,8 C 4,4 C 95 % 1026,1 hPa 0,0 l/m 3,4 km/h (1 Bft) O 89 0 min 0,000 mm 0,0 UV-I 0 W/m 2,1 C 2,8 C 4,8 km/h (1 Bft) 95,74 %
13.01.2018 00:12 2,8 C 4,4 C 95 % 1026,1 hPa 0,0 l/m 3,0 km/h (1 Bft) O 89 0 min 0,000 mm 0,0 UV-I 0 W/m 2,1 C 2,8 C 4,8 km/h (1 Bft) 100,00 %
13.01.2018 00:14 2,8 C 4,4 C 95 % 1026,1 hPa 0,0 l/m 2,2 km/h (1 Bft) O 89 0 min 0,000 mm 0,0 UV-I 0 W/m 2,1 C 2,8 C 4,8 km/h (1 Bft) 100,00 %
13.01.2018 00:16 2,7 C 4,4 C 95 % 1026,1 hPa 0,0 l/m 3,2 km/h (1 Bft) O 89 0 min 0,000 mm 0,0 UV-I 0 W/m 2,0 C 2,7 C 4,8 km/h (1 Bft) 100,00 %
13.01.2018 00:18 2,7 C 4,4 C 95 % 1026,1 hPa 0,0 l/m 3,2 km/h (1 Bft) O 93 0 min 0,000 mm 0,0 UV-I 0 W/m 2,0 C 2,7 C 4,8 km/h (1 Bft) 100,00 %
13.01.2018 00:20 2,7 C 4,4 C 95 % 1026,1 hPa 0,0 l/m 3,0 km/h (1 Bft) O 93 0 min 0,000 mm 0,0 UV-I 0 W/m 2,0 C 2,7 C 4,8 km/h (1 Bft) 100,00 %
13.01.2018 00:22 2,7 C 4,4 C 95 % 1026,1 hPa 0,0 l/m 3,1 km/h (1 Bft) O 93 0 min 0,000 mm 0,0 UV-I 0 W/m 2,0 C 2,7 C 4,8 km/h (1 Bft) 98,00 %
13.01.2018 00:24 2,7 C 4,4 C 95 % 1026,1 hPa 0,0 l/m 3,7 km/h (1 Bft) O 93 0 min 0,000 mm 0,0 UV-I 0 W/m 2,0 C 2,7 C 4,8 km/h (1 Bft) 97,37 %
13.01.2018 00:26 2,7 C 4,4 C 95 % 1026,1 hPa 0,0 l/m 3,0 km/h (1 Bft) O 93 0 min 0,000 mm 0,0 UV-I 0 W/m 2,0 C 2,7 C 4,8 km/h (1 Bft) 97,87 %
13.01.2018 00:28 2,7 C 4,4 C 95 % 1026,1 hPa 0,0 l/m 2,9 km/h (1 Bft) O 93 0 min 0,000 mm 0,0 UV-I 0 W/m 2,0 C 2,7 C 4,8 km/h (1 Bft) 100,00 %
13.01.2018 00:30 2,7 C 4,4 C 95 % 1026,0 hPa 0,0 l/m 3,2 km/h (1 Bft) O 93 0 min 0,000 mm 0,0 UV-I 0 W/m 2,0 C 2,7 C 4,8 km/h (1 Bft) 97,87 %
13.01.2018 00:32 2,7 C 4,4 C 95 % 1026,0 hPa 0,0 l/m 2,2 km/h (1 Bft) O 93 0 min 0,000 mm 0,0 UV-I 0 W/m 2,0 C 2,7 C 3,2 km/h (1 Bft) 100,00 %
13.01.2018 00:34 2,7 C 4,4 C 95 % 1026,0 hPa 0,0 l/m 1,5 km/h (1 Bft) O 93 0 min 0,000 mm 0,0 UV-I 0 W/m 2,0 C 2,7 C 3,2 km/h (1 Bft) 100,00 %
13.01.2018 00:36 2,7 C 4,4 C 95 % 1026,0 hPa 0,0 l/m 1,9 km/h (1 Bft) O 93 0 min 0,000 mm 0,0 UV-I 0 W/m 2,0 C 2,7 C 3,2 km/h (1 Bft) 100,00 %
13.01.2018 00:38 2,7 C 4,4 C 95 % 1026,0 hPa 0,0 l/m 2,7 km/h (1 Bft) O 100 0 min 0,000 mm 0,0 UV-I 0 W/m 2,0 C 2,7 C 4,8 km/h (1 Bft) 98,11 %
13.01.2018 00:40 2,8 C 4,4 C 95 % 1026,0 hPa 0,0 l/m 4,1 km/h (1 Bft) O 99 0 min 0,000 mm 0,0 UV-I 0 W/m 2,1 C 2,8 C 6,4 km/h (2 Bft) 100,00 %
13.01.2018 00:42 2,8 C 4,4 C 95 % 1026,0 hPa 0,0 l/m 3,3 km/h (1 Bft) O 99 0 min 0,000 mm 0,0 UV-I 0 W/m 2,1 C 2,8 C 4,8 km/h (1 Bft) 100,00 %
13.01.2018 00:44 2,8 C 4,4 C 95 % 1026,0 hPa 0,0 l/m 3,9 km/h (1 Bft) O 99 0 min 0,000 mm 0,0 UV-I 0 W/m 2,1 C 2,8 C 4,8 km/h (1 Bft) 100,00 %
13.01.2018 00:46 2,8 C 4,4 C 95 % 1025,9 hPa 0,0 l/m 2,3 km/h (1 Bft) O 99 0 min 0,000 mm 0,0 UV-I 0 W/m 2,1 C 2,8 C 4,8 km/h (1 Bft) 100,00 %
13.01.2018 00:48 2,8 C 4,4 C 95 % 1025,9 hPa 0,0 l/m 2,3 km/h (1 Bft) O 99 0 min 0,000 mm 0,0 UV-I 0 W/m 2,1 C 2,8 C 4,8 km/h (1 Bft) 97,37 %
13.01.2018 00:50 2,8 C 4,4 C 95 % 1025,9 hPa 0,0 l/m 1,7 km/h (1 Bft) O 99 0 min 0,000 mm 0,0 UV-I 0 W/m 2,1 C 2,8 C 3,2 km/h (1 Bft) 100,00 %
13.01.2018 00:52 2,8 C 4,4 C 95 % 1025,9 hPa 0,0 l/m 1,9 km/h (1 Bft) O 99 0 min 0,000 mm 0,0 UV-I 0 W/m 2,1 C 2,8 C 3,2 km/h (1 Bft) 100,00 %
13.01.2018 00:54 2,8 C 4,4 C 95 % 1025,9 hPa 0,0 l/m 2,5 km/h (1 Bft) O 99 0 min 0,000 mm 0,0 UV-I 0 W/m 2,1 C 2,8 C 4,8 km/h (1 Bft) 100,00 %
13.01.2018 00:56 2,8 C 4,4 C 95 % 1025,9 hPa 0,0 l/m 1,7 km/h (1 Bft) O 99 0 min 0,000 mm 0,0 UV-I 0 W/m 2,1 C 2,8 C 3,2 km/h (1 Bft) 100,00 %
13.01.2018 00:58 2,8 C 4,4 C 95 % 1025,9 hPa 0,0 l/m 2,7 km/h (1 Bft) O 99 0 min 0,000 mm 0,0 UV-I 0 W/m 2,1 C 2,8 C 4,8 km/h (1 Bft) 100,00 %
13.01.2018 01:00 2,8 C 4,4 C 95 % 1025,9 hPa 0,0 l/m 2,5 km/h (1 Bft) O 99 0 min 0,000 mm 0,0 UV-I 0 W/m 2,1 C 2,8 C 4,8 km/h (1 Bft) 100,00 %
13.01.2018 01:02 2,7 C 4,4 C 95 % 1025,9 hPa 0,0 l/m 2,8 km/h (1 Bft) O 99 0 min 0,000 mm 0,0 UV-I 0 W/m 2,0 C 2,7 C 4,8 km/h (1 Bft) 100,00 %
13.01.2018 01:04 2,7 C 4,4 C 95 % 1025,9 hPa 0,0 l/m 2,0 km/h (1 Bft) O 99 0 min 0,000 mm 0,0 UV-I 0 W/m 2,0 C 2,7 C 3,2 km/h (1 Bft) 100,00 %
13.01.2018 01:06 2,7 C 4,4 C 95 % 1025,9 hPa 0,0 l/m 1,5 km/h (1 Bft) O 99 0 min 0,000 mm 0,0 UV-I 0 W/m 2,0 C 2,7 C 4,8 km/h (1 Bft) 100,00 %
13.01.2018 01:08 2,7 C 4,4 C 95 % 1025,9 hPa 0,0 l/m 0,8 km/h (0 Bft) O 99 0 min 0,000 mm 0,0 UV-I 0 W/m 2,0 C 2,7 C 3,2 km/h (1 Bft) 100,00 %
13.01.2018 01:10 2,7 C 4,4 C 95 % 1025,9 hPa 0,0 l/m 0,5 km/h (0 Bft) O 99 0 min 0,000 mm 0,0 UV-I 0 W/m 2,0 C 2,7 C 1,6 km/h (1 Bft) 100,00 %
13.01.2018 01:12 2,7 C 4,4 C 96 % 1025,9 hPa 0,0 l/m 0,4 km/h (0 Bft) O 99 0 min 0,000 mm 0,0 UV-I 0 W/m 2,1 C 2,7 C 1,6 km/h (1 Bft) 97,87 %
13.01.2018 01:14 2,7 C 4,4 C 96 % 1025,8 hPa 0,0 l/m 1,0 km/h (0 Bft) O 99 0 min 0,000 mm 0,0 UV-I 0 W/m 2,1 C 2,7 C 1,6 km/h (1 Bft) 100,00 %
13.01.2018 01:16 2,7 C 4,4 C 96 % 1025,9 hPa 0,0 l/m 1,4 km/h (1 Bft) O 99 0 min 0,000 mm 0,0 UV-I 0 W/m 2,1 C 2,7 C 3,2 km/h (1 Bft) 96,00 %
13.01.2018 01:18 2,6 C 4,4 C 96 % 1025,9 hPa 0,0 l/m 1,3 km/h (1 Bft) O 99 0 min 0,000 mm 0,0 UV-I 0 W/m 2,0 C 2,6 C 3,2 km/h (1 Bft) 97,73 %
13.01.2018 01:20 2,6 C 4,4 C 96 % 1025,8 hPa 0,0 l/m 1,7 km/h (1 Bft) O 99 0 min 0,000 mm 0,0 UV-I 0 W/m 2,0 C 2,6 C 3,2 km/h (1 Bft) 100,00 %
13.01.2018 01:22 2,6 C 4,4 C 96 % 1025,8 hPa 0,0 l/m 2,4 km/h (1 Bft) O-NO 69 0 min 0,000 mm 0,0 UV-I 0 W/m 2,0 C 2,6 C 4,8 km/h (1 Bft) 100,00 %
13.01.2018 01:24 2,6 C 4,4 C 96 % 1025,8 hPa 0,0 l/m 2,6 km/h (1 Bft) O-NO 69 0 min 0,000 mm 0,0 UV-I 0 W/m 2,0 C 2,6 C 4,8 km/h (1 Bft) 96,23 %
13.01.2018 01:26 2,6 C 4,4 C 96 % 1025,8 hPa 0,0 l/m 2,5 km/h (1 Bft) O-NO 69 0 min 0,000 mm 0,0 UV-I 0 W/m 2,0 C 2,6 C 3,2 km/h (1 Bft) 97,14 %
13.01.2018 01:28 2,6 C 4,4 C 96 % 1025,8 hPa 0,0 l/m 2,9 km/h (1 Bft) O-NO 69 0 min 0,000 mm 0,0 UV-I 0 W/m 2,0 C 2,6 C 4,8 km/h (1 Bft) 98,11 %
13.01.2018 01:30 2,6 C 4,4 C 96 % 1025,8 hPa 0,0 l/m 3,3 km/h (1 Bft) O-NO 69 0 min 0,000 mm 0,0 UV-I 0 W/m 2,0 C 2,6 C 6,4 km/h (2 Bft) 95,74 %
13.01.2018 01:32 2,6 C 4,4 C 96 % 1025,8 hPa 0,0 l/m 3,9 km/h (1 Bft) O-NO 69 0 min 0,000 mm 0,0 UV-I 0 W/m 2,0 C 2,6 C 6,4 km/h (2 Bft) 100,00 %
13.01.2018 01:34 2,6 C 4,4 C 96 % 1025,7 hPa 0,0 l/m 4,5 km/h (1 Bft) O-NO 69 0 min 0,000 mm 0,0 UV-I 0 W/m 2,0 C 2,6 C 6,4 km/h (2 Bft) 94,00 %
13.01.2018 01:36 2,6 C 4,4 C 96 % 1025,8 hPa 0,0 l/m 4,6 km/h (1 Bft) O-NO 69 0 min 0,000 mm 0,0 UV-I 0 W/m 2,0 C 2,6 C 6,4 km/h (2 Bft) 96,23 %
13.01.2018 01:38 2,6 C 4,4 C 96 % 1025,8 hPa 0,0 l/m 4,6 km/h (1 Bft) O-NO 63 0 min 0,000 mm 0,0 UV-I 0 W/m 2,0 C 2,6 C 6,4 km/h (2 Bft) 98,00 %
13.01.2018 01:40 2,6 C 4,4 C 96 % 1025,8 hPa 0,0 l/m 4,2 km/h (1 Bft) O-NO 63 0 min 0,000 mm 0,0 UV-I 0 W/m 2,0 C 2,6 C 6,4 km/h (2 Bft) 97,56 %
13.01.2018 01:42 2,6 C 4,4 C 96 % 1025,8 hPa 0,0 l/m 4,4 km/h (1 Bft) O-NO 65 0 min 0,000 mm 0,0 UV-I 0 W/m 2,0 C 2,6 C 6,4 km/h (2 Bft) 96,00 %
13.01.2018 01:44 2,6 C 4,4 C 96 % 1025,8 hPa 0,0 l/m 4,9 km/h (1 Bft) O-NO 65 0 min 0,000 mm 0,0 UV-I 0 W/m 2,0 C 2,6 C 6,4 km/h (2 Bft) 97,56 %
13.01.2018 01:46 2,6 C 4,4 C 96 % 1025,8 hPa 0,0 l/m 5,0 km/h (1 Bft) O-NO 70 0 min 0,000 mm 0,0 UV-I 0 W/m 2,0 C 2,6 C 6,4 km/h (2 Bft) 96,43 %
13.01.2018 01:48 2,6 C 4,4 C 96 % 1025,8 hPa 0,0 l/m 4,4 km/h (1 Bft) O-NO 69 0 min 0,000 mm 0,0 UV-I 0 W/m 2,0 C 2,6 C 6,4 km/h (2 Bft) 100,00 %
13.01.2018 01:50 2,7 C 4,4 C 96 % 1025,8 hPa 0,0 l/m 4,9 km/h (1 Bft) O-NO 62 0 min 0,000 mm 0,0 UV-I 0 W/m 2,1 C 2,7 C 8,0 km/h (2 Bft) 96,23 %
13.01.2018 01:52 2,7 C 4,4 C 96 % 1025,8 hPa 0,0 l/m 5,2 km/h (1 Bft) NO 55 0 min 0,000 mm 0,0 UV-I 0 W/m 2,1 C 2,7 C 6,4 km/h (2 Bft) 98,00 %
13.01.2018 01:54 2,7 C 4,4 C 96 % 1025,9 hPa 0,0 l/m 6,0 km/h (2 Bft) O-NO 69 0 min 0,000 mm 0,0 UV-I 0 W/m 2,1 C 2,7 C 8,0 km/h (2 Bft) 97,14 %
13.01.2018 01:56 2,7 C 4,4 C 96 % 1025,9 hPa 0,0 l/m 5,9 km/h (2 Bft) NO 55 0 min 0,000 mm 0,0 UV-I 0 W/m 2,1 C 2,7 C 8,0 km/h (2 Bft) 98,00 %
13.01.2018 01:58 2,7 C 4,4 C 96 % 1025,9 hPa 0,0 l/m 5,7 km/h (1 Bft) O-NO 63 0 min 0,000 mm 0,0 UV-I 0 W/m 2,1 C 2,7 C 8,0 km/h (2 Bft) 100,00 %
13.01.2018 02:00 2,7 C 4,4 C 96 % 1025,9 hPa 0,0 l/m 6,8 km/h (2 Bft) NO 54 0 min 0,000 mm 0,0 UV-I 0 W/m 2,1 C 2,3 C 9,7 km/h (2 Bft) 95,74 %
13.01.2018 02:02 2,7 C 4,4 C 96 % 1025,9 hPa 0,0 l/m 5,5 km/h (1 Bft) NO 54 0 min 0,000 mm 0,0 UV-I 0 W/m 2,1 C 2,7 C 8,0 km/h (2 Bft) 100,00 %
13.01.2018 02:04 2,7 C 4,4 C 96 % 1025,9 hPa 0,0 l/m 6,1 km/h (2 Bft) NO 56 0 min 0,000 mm 0,0 UV-I 0 W/m 2,1 C 2,7 C 8,0 km/h (2 Bft) 100,00 %
13.01.2018 02:06 2,7 C 4,4 C 96 % 1025,9 hPa 0,0 l/m 5,7 km/h (1 Bft) NO 49 0 min 0,000 mm 0,0 UV-I 0 W/m 2,1 C 2,7 C 9,7 km/h (2 Bft) 100,00 %
13.01.2018 02:08 2,7 C 4,4 C 96 % 1025,9 hPa 0,0 l/m 6,0 km/h (2 Bft) O-NO 71 0 min 0,000 mm 0,0 UV-I 0 W/m 2,1 C 2,7 C 9,7 km/h (2 Bft) 100,00 %
13.01.2018 02:10 2,7 C 4,4 C 96 % 1025,9 hPa 0,0 l/m 7,6 km/h (2 Bft) O-NO 61 0 min 0,000 mm 0,0 UV-I 0 W/m 2,1 C 1,6 C 14,5 km/h (3 Bft) 100,00 %
13.01.2018 02:12 2,7 C 4,4 C 96 % 1026,0 hPa 0,0 l/m 7,6 km/h (2 Bft) NO 50 0 min 0,000 mm 0,0 UV-I 0 W/m 2,1 C 1,6 C 11,3 km/h (2 Bft) 100,00 %
13.01.2018 02:14 2,7 C 4,4 C 96 % 1025,9 hPa 0,0 l/m 7,4 km/h (2 Bft) O-NO 68 0 min 0,000 mm 0,0 UV-I 0 W/m 2,1 C 1,7 C 12,9 km/h (3 Bft) 100,00 %
13.01.2018 02:16 2,7 C 4,4 C 96 % 1025,9 hPa 0,0 l/m 7,8 km/h (2 Bft) O-NO 58 0 min 0,000 mm 0,0 UV-I 0 W/m 2,1 C 1,4 C 12,9 km/h (3 Bft) 100,00 %
13.01.2018 02:18 2,7 C 4,4 C 96 % 1025,9 hPa 0,0 l/m 9,3 km/h (2 Bft) NO 41 0 min 0,000 mm 0,0 UV-I 0 W/m 2,1 C 0,1 C 12,9 km/h (3 Bft) 100,00 %
13.01.2018 02:20 2,7 C 4,4 C 96 % 1025,9 hPa 0,0 l/m 10,3 km/h (2 Bft) O-NO 61 0 min 0,000 mm 0,0 UV-I 0 W/m 2,1 C -0,7 C 14,5 km/h (3 Bft) 100,00 %
13.01.2018 02:22 2,7 C 4,4 C 96 % 1025,9 hPa 0,0 l/m 8,7 km/h (2 Bft) O-NO 69 0 min 0,000 mm 0,0 UV-I 0 W/m 2,1 C 0,6 C 14,5 km/h (3 Bft) 95,74 %
13.01.2018 02:24 2,7 C 4,4 C 96 % 1026,0 hPa 0,0 l/m 9,4 km/h (2 Bft) NO 51 0 min 0,000 mm 0,0 UV-I 0 W/m 2,1 C 0,0 C 14,5 km/h (3 Bft) 96,23 %
13.01.2018 02:26 2,7 C 4,4 C 96 % 1026,0 hPa 0,0 l/m 10,5 km/h (2 Bft) O-NO 69 0 min 0,000 mm 0,0 UV-I 0 W/m 2,1 C -0,8 C 16,1 km/h (3 Bft) 100,00 %
13.01.2018 02:28 2,7 C 4,4 C 96 % 1026,0 hPa 0,0 l/m 11,5 km/h (2 Bft) O-NO 63 0 min 0,000 mm 0,0 UV-I 0 W/m 2,1 C -1,6 C 16,1 km/h (3 Bft) 100,00 %
13.01.2018 02:30 2,7 C 4,4 C 96 % 1026,0 hPa 0,0 l/m 13,3 km/h (3 Bft) NO 47 0 min 0,000 mm 0,0 UV-I 0 W/m 2,1 C -2,7 C 16,1 km/h (3 Bft) 100,00 %
13.01.2018 02:32 2,7 C 4,4 C 96 % 1026,0 hPa 0,0 l/m 14,8 km/h (3 Bft) NO 42 0 min 0,000 mm 0,0 UV-I 0 W/m 2,1 C -3,6 C 17,7 km/h (3 Bft) 100,00 %
13.01.2018 02:34 2,6 C 4,4 C 96 % 1026,0 hPa 0,0 l/m 14,5 km/h (3 Bft) O-NO 58 0 min 0,000 mm 0,0 UV-I 0 W/m 2,0 C -3,5 C 17,7 km/h (3 Bft) 95,24 %
13.01.2018 02:36 2,6 C 4,4 C 96 % 1026,0 hPa 0,0 l/m 15,1 km/h (3 Bft) O-NO 59 0 min 0,000 mm 0,0 UV-I 0 W/m 2,0 C -3,9 C 19,3 km/h (3 Bft) 100,00 %
13.01.2018 02:38 2,6 C 4,4 C 96 % 1026,0 hPa 0,0 l/m 13,0 km/h (3 Bft) O-NO 57 0 min 0,000 mm 0,0 UV-I 0 W/m 2,0 C -2,7 C 17,7 km/h (3 Bft) 100,00 %
13.01.2018 02:40 2,6 C 4,4 C 96 % 1026,0 hPa 0,0 l/m 14,4 km/h (3 Bft) O-NO 68 0 min 0,000 mm 0,0 UV-I 0 W/m 2,0 C -3,5 C 24,1 km/h (4 Bft) 100,00 %
13.01.2018 02:42 2,6 C 4,4 C 96 % 1026,0 hPa 0,0 l/m 13,8 km/h (3 Bft) O-NO 59 0 min 0,000 mm 0,0 UV-I 0 W/m 2,0 C -3,1 C 17,7 km/h (3 Bft) 100,00 %
13.01.2018 02:44 2,6 C 4,4 C 96 % 1025,9 hPa 0,0 l/m 14,1 km/h (3 Bft) NO 53 0 min 0,000 mm 0,0 UV-I 0 W/m 2,0 C -3,3 C 20,9 km/h (4 Bft) 100,00 %
13.01.2018 02:46 2,6 C 4,4 C 96 % 1025,9 hPa 0,0 l/m 13,0 km/h (3 Bft) NO 54 0 min 0,000 mm 0,0 UV-I 0 W/m 2,0 C -2,7 C 16,1 km/h (3 Bft) 100,00 %
13.01.2018 02:48 2,6 C 4,4 C 97 % 1025,9 hPa 0,0 l/m 12,5 km/h (3 Bft) O 92 0 min 0,000 mm 0,0 UV-I 0 W/m 2,2 C -2,3 C 17,7 km/h (3 Bft) 100,00 %
13.01.2018 02:50 2,6 C 4,4 C 97 % 1025,9 hPa 0,0 l/m 12,7 km/h (3 Bft) NO 51 0 min 0,000 mm 0,0 UV-I 0 W/m 2,2 C -2,5 C 16,1 km/h (3 Bft) 100,00 %
13.01.2018 02:52 2,6 C 4,4 C 97 % 1025,9 hPa 0,0 l/m 13,0 km/h (3 Bft) O 80 0 min 0,000 mm 0,0 UV-I 0 W/m 2,2 C -2,7 C 17,7 km/h (3 Bft) 100,00 %
13.01.2018 02:54 2,6 C 4,4 C 97 % 1025,9 hPa 0,0 l/m 12,8 km/h (3 Bft) O-NO 63 0 min 0,000 mm 0,0 UV-I 0 W/m 2,2 C -2,5 C 19,3 km/h (3 Bft) 98,00 %
13.01.2018 02:56 2,6 C 4,4 C 97 % 1025,9 hPa 0,0 l/m 16,4 km/h (3 Bft) NO 51 0 min 0,000 mm 0,0 UV-I 0 W/m 2,2 C -4,6 C 20,9 km/h (4 Bft) 100,00 %
13.01.2018 02:58 2,6 C 4,4 C 97 % 1025,8 hPa 0,0 l/m 15,1 km/h (3 Bft) O-NO 61 0 min 0,000 mm 0,0 UV-I 0 W/m 2,2 C -3,9 C 20,9 km/h (4 Bft) 98,00 %
13.01.2018 03:00 2,6 C 4,4 C 97 % 1025,9 hPa 0,0 l/m 14,1 km/h (3 Bft) NO 40 0 min 0,000 mm 0,0 UV-I 0 W/m 2,2 C -3,3 C 20,9 km/h (4 Bft) 98,00 %
13.01.2018 03:02 2,6 C 4,4 C 97 % 1025,9 hPa 0,0 l/m 14,6 km/h (3 Bft) O-NO 74 0 min 0,000 mm 0,0 UV-I 0 W/m 2,2 C -3,6 C 22,5 km/h (4 Bft) 97,37 %
13.01.2018 03:04 2,6 C 4,4 C 97 % 1025,8 hPa 0,0 l/m 14,6 km/h (3 Bft) O-NO 67 0 min 0,000 mm 0,0 UV-I 0 W/m 2,2 C -3,6 C 22,5 km/h (4 Bft) 96,00 %
13.01.2018 03:06 2,6 C 4,4 C 97 % 1025,8 hPa 0,0 l/m 18,5 km/h (3 Bft) O-NO 66 0 min 0,000 mm 0,0 UV-I 0 W/m 2,2 C -5,6 C 29,0 km/h (5 Bft) 96,00 %
13.01.2018 03:08 2,6 C 4,4 C 97 % 1025,8 hPa 0,0 l/m 19,2 km/h (3 Bft) O-NO 63 0 min 0,000 mm 0,0 UV-I 0 W/m 2,2 C -5,9 C 27,4 km/h (4 Bft) 98,00 %
13.01.2018 03:10 2,6 C 4,4 C 97 % 1025,8 hPa 0,0 l/m 16,7 km/h (3 Bft) O 86 0 min 0,000 mm 0,0 UV-I 0 W/m 2,2 C -4,7 C 24,1 km/h (4 Bft) 97,44 %
13.01.2018 03:12 2,6 C 4,4 C 97 % 1025,8 hPa 0,0 l/m 18,2 km/h (3 Bft) O 82 0 min 0,000 mm 0,0 UV-I 0 W/m 2,2 C -5,5 C 22,5 km/h (4 Bft) 95,74 %
13.01.2018 03:14 2,6 C 4,4 C 97 % 1025,8 hPa 0,0 l/m 14,9 km/h (3 Bft) O-NO 57 0 min 0,000 mm 0,0 UV-I 0 W/m 2,2 C -3,8 C 19,3 km/h (3 Bft) 98,11 %
13.01.2018 03:16 2,6 C 4,4 C 97 % 1025,8 hPa 0,0 l/m 15,5 km/h (3 Bft) NO 51 0 min 0,000 mm 0,0 UV-I 0 W/m 2,2 C -4,1 C 20,9 km/h (4 Bft) 96,00 %
13.01.2018 03:18 2,5 C 4,4 C 97 % 1025,9 hPa 0,0 l/m 16,8 km/h (3 Bft) O-NO 73 0 min 0,000 mm 0,0 UV-I 0 W/m 2,1 C -4,9 C 22,5 km/h (4 Bft) 97,37 %
13.01.2018 03:20 2,5 C 4,4 C 97 % 1025,8 hPa 0,0 l/m 15,3 km/h (3 Bft) NO 46 0 min 0,000 mm 0,0 UV-I 0 W/m 2,1 C -4,1 C 20,9 km/h (4 Bft) 97,14 %
13.01.2018 03:22 2,4 C 4,4 C 97 % 1025,8 hPa 0,0 l/m 15,9 km/h (3 Bft) NO 46 0 min 0,000 mm 0,0 UV-I 0 W/m 2,0 C -4,6 C 20,9 km/h (4 Bft) 96,92 %
13.01.2018 03:24 2,4 C 4,4 C 97 % 1025,8 hPa 0,0 l/m 21,7 km/h (4 Bft) NO 55 0 min 0,000 mm 0,0 UV-I 0 W/m 2,0 C -7,2 C 27,4 km/h (4 Bft) 100,00 %
13.01.2018 03:26 2,4 C 4,4 C 97 % 1025,7 hPa 0,0 l/m 19,4 km/h (3 Bft) NO 46 0 min 0,000 mm 0,0 UV-I 0 W/m 2,0 C -6,3 C 24,1 km/h (4 Bft) 96,00 %
13.01.2018 03:28 2,4 C 4,4 C 97 % 1025,7 hPa 0,0 l/m 18,4 km/h (3 Bft) O-NO 58 0 min 0,000 mm 0,0 UV-I 0 W/m 2,0 C -5,8 C 24,1 km/h (4 Bft) 98,11 %
13.01.2018 03:30 2,4 C 4,4 C 96 % 1025,8 hPa 0,0 l/m 14,8 km/h (3 Bft) NO 53 0 min 0,000 mm 0,0 UV-I 0 W/m 1,8 C -4,0 C 20,9 km/h (4 Bft) 95,74 %
13.01.2018 03:32 2,4 C 4,4 C 96 % 1025,7 hPa 0,0 l/m 16,0 km/h (3 Bft) O 88 0 min 0,000 mm 0,0 UV-I 0 W/m 1,8 C -4,6 C 24,1 km/h (4 Bft) 93,62 %
13.01.2018 03:34 2,3 C 4,4 C 96 % 1025,7 hPa 0,0 l/m 16,4 km/h (3 Bft) O-NO 61 0 min 0,000 mm 0,0 UV-I 0 W/m 1,7 C -5,0 C 24,1 km/h (4 Bft) 95,45 %
13.01.2018 03:36 2,3 C 4,4 C 96 % 1025,8 hPa 0,0 l/m 19,2 km/h (3 Bft) NO 36 0 min 0,000 mm 0,0 UV-I 0 W/m 1,7 C -6,3 C 27,4 km/h (4 Bft) 94,00 %
13.01.2018 03:38 2,3 C 4,4 C 96 % 1025,8 hPa 0,0 l/m 19,9 km/h (4 Bft) O-NO 64 0 min 0,000 mm 0,0 UV-I 0 W/m 1,7 C -6,6 C 25,7 km/h (4 Bft) 96,00 %
13.01.2018 03:40 2,3 C 4,4 C 96 % 1025,8 hPa 0,0 l/m 17,8 km/h (3 Bft) O-NO 76 0 min 0,000 mm 0,0 UV-I 0 W/m 1,7 C -5,7 C 24,1 km/h (4 Bft) 92,68 %
13.01.2018 03:42 2,3 C 4,4 C 96 % 1025,8 hPa 0,0 l/m 15,1 km/h (3 Bft) NO 55 0 min 0,000 mm 0,0 UV-I 0 W/m 1,7 C -4,3 C 17,7 km/h (3 Bft) 92,00 %
13.01.2018 03:44 2,3 C 4,4 C 96 % 1025,7 hPa 0,0 l/m 15,7 km/h (3 Bft) O-NO 72 0 min 0,000 mm 0,0 UV-I 0 W/m 1,7 C -4,6 C 20,9 km/h (4 Bft) 97,56 %
13.01.2018 03:46 2,3 C 4,4 C 96 % 1025,7 hPa 0,0 l/m 15,4 km/h (3 Bft) O-NO 63 0 min 0,000 mm 0,0 UV-I 0 W/m 1,7 C -4,4 C 20,9 km/h (4 Bft) 90,00 %
13.01.2018 03:48 2,2 C 4,4 C 96 % 1025,7 hPa 0,0 l/m 16,2 km/h (3 Bft) NO 44 0 min 0,000 mm 0,0 UV-I 0 W/m 1,6 C -5,0 C 24,1 km/h (4 Bft) 94,00 %
13.01.2018 03:50 2,2 C 4,4 C 96 % 1025,7 hPa 0,0 l/m 19,4 km/h (3 Bft) O-NO 61 0 min 0,000 mm 0,0 UV-I 0 W/m 1,6 C -6,5 C 24,1 km/h (4 Bft) 92,50 %
13.01.2018 03:52 2,2 C 4,4 C 96 % 1025,8 hPa 0,0 l/m 18,1 km/h (3 Bft) O-NO 65 0 min 0,000 mm 0,0 UV-I 0 W/m 1,6 C -5,9 C 25,7 km/h (4 Bft) 94,55 %
13.01.2018 03:54 2,2 C 4,4 C 96 % 1025,8 hPa 0,0 l/m 19,7 km/h (3 Bft) NO 52 0 min 0,000 mm 0,0 UV-I 0 W/m 1,6 C -6,7 C 27,4 km/h (4 Bft) 94,44 %
13.01.2018 03:56 2,2 C 4,4 C 96 % 1025,8 hPa 0,0 l/m 20,1 km/h (4 Bft) NO 51 0 min 0,000 mm 0,0 UV-I 0 W/m 1,6 C -6,8 C 27,4 km/h (4 Bft) 96,61 %
13.01.2018 03:58 2,2 C 4,4 C 96 % 1025,8 hPa 0,0 l/m 19,5 km/h (3 Bft) NO 46 0 min 0,000 mm 0,0 UV-I 0 W/m 1,6 C -6,6 C 29,0 km/h (5 Bft) 92,11 %
13.01.2018 04:00 2,2 C 4,4 C 96 % 1025,7 hPa 0,0 l/m 21,7 km/h (4 Bft) O-NO 67 0 min 0,000 mm 0,0 UV-I 0 W/m 1,6 C -7,5 C 27,4 km/h (4 Bft) 96,00 %
13.01.2018 04:02 2,2 C 4,4 C 96 % 1025,7 hPa 0,0 l/m 17,3 km/h (3 Bft) O-NO 59 0 min 0,000 mm 0,0 UV-I 0 W/m 1,6 C -5,5 C 20,9 km/h (4 Bft) 95,83 %
13.01.2018 04:04 2,2 C 4,4 C 96 % 1025,7 hPa 0,0 l/m 19,0 km/h (3 Bft) O-NO 66 0 min 0,000 mm 0,0 UV-I 0 W/m 1,6 C -6,3 C 24,1 km/h (4 Bft) 98,00 %
13.01.2018 04:06 2,2 C 4,4 C 95 % 1025,7 hPa 0,0 l/m 18,9 km/h (3 Bft) O-NO 58 0 min 0,000 mm 0,0 UV-I 0 W/m 1,5 C -6,3 C 25,7 km/h (4 Bft) 100,00 %
13.01.2018 04:08 2,2 C 4,4 C 95 % 1025,7 hPa 0,0 l/m 18,2 km/h (3 Bft) NO 47 0 min 0,000 mm 0,0 UV-I 0 W/m 1,5 C -6,0 C 25,7 km/h (4 Bft) 97,87 %
13.01.2018 04:10 2,1 C 4,4 C 96 % 1025,7 hPa 0,0 l/m 18,1 km/h (3 Bft) NO 50 0 min 0,000 mm 0,0 UV-I 0 W/m 1,5 C -6,0 C 24,1 km/h (4 Bft) 100,00 %
13.01.2018 04:12 2,1 C 4,4 C 96 % 1025,6 hPa 0,0 l/m 17,5 km/h (3 Bft) O-NO 60 0 min 0,000 mm 0,0 UV-I 0 W/m 1,5 C -5,8 C 27,4 km/h (4 Bft) 100,00 %
13.01.2018 04:14 2,1 C 4,4 C 96 % 1025,7 hPa 0,0 l/m 18,1 km/h (3 Bft) O-NO 59 0 min 0,000 mm 0,0 UV-I 0 W/m 1,5 C -6,0 C 24,1 km/h (4 Bft) 97,73 %
13.01.2018 04:16 2,1 C 4,4 C 96 % 1025,7 hPa 0,0 l/m 18,6 km/h (3 Bft) O-NO 59 0 min 0,000 mm 0,0 UV-I 0 W/m 1,5 C -6,3 C 22,5 km/h (4 Bft) 100,00 %
13.01.2018 04:18 2,1 C 4,4 C 95 % 1025,6 hPa 0,0 l/m 18,9 km/h (3 Bft) O-NO 59 0 min 0,000 mm 0,0 UV-I 0 W/m 1,4 C -6,4 C 22,5 km/h (4 Bft) 97,56 %
13.01.2018 04:20 2,1 C 4,4 C 96 % 1025,7 hPa 0,0 l/m 18,1 km/h (3 Bft) NO 55 0 min 0,000 mm 0,0 UV-I 0 W/m 1,5 C -6,0 C 22,5 km/h (4 Bft) 100,00 %
13.01.2018 04:22 2,1 C 4,4 C 95 % 1025,7 hPa 0,0 l/m 16,3 km/h (3 Bft) NO 49 0 min 0,000 mm 0,0 UV-I 0 W/m 1,4 C -5,1 C 24,1 km/h (4 Bft) 97,73 %
13.01.2018 04:24 2,1 C 4,4 C 96 % 1025,7 hPa 0,0 l/m 16,4 km/h (3 Bft) O-NO 70 0 min 0,000 mm 0,0 UV-I 0 W/m 1,5 C -5,2 C 20,9 km/h (4 Bft) 100,00 %
13.01.2018 04:26 2,1 C 4,4 C 95 % 1025,7 hPa 0,0 l/m 16,5 km/h (3 Bft) O-NO 63 0 min 0,000 mm 0,0 UV-I 0 W/m 1,4 C -5,3 C 22,5 km/h (4 Bft) 100,00 %
13.01.2018 04:28 2,1 C 4,4 C 96 % 1025,6 hPa 0,0 l/m 17,0 km/h (3 Bft) NO 41 0 min 0,000 mm 0,0 UV-I 0 W/m 1,5 C -5,5 C 22,5 km/h (4 Bft) 100,00 %
13.01.2018 04:30 2,1 C 4,4 C 96 % 1025,6 hPa 0,0 l/m 16,1 km/h (3 Bft) NO 44 0 min 0,000 mm 0,0 UV-I 0 W/m 1,5 C -5,0 C 20,9 km/h (4 Bft) 100,00 %
13.01.2018 04:32 2,1 C 4,4 C 95 % 1025,6 hPa 0,0 l/m 16,0 km/h (3 Bft) NO 49 0 min 0,000 mm 0,0 UV-I 0 W/m 1,4 C -5,0 C 25,7 km/h (4 Bft) 97,56 %
13.01.2018 04:34 2,1 C 4,4 C 95 % 1025,5 hPa 0,0 l/m 15,4 km/h (3 Bft) NO 56 0 min 0,000 mm 0,0 UV-I 0 W/m 1,4 C -4,7 C 20,9 km/h (4 Bft) 100,00 %
13.01.2018 04:36 2,1 C 4,4 C 95 % 1025,5 hPa 0,0 l/m 18,3 km/h (3 Bft) O 89 0 min 0,000 mm 0,0 UV-I 0 W/m 1,4 C -6,1 C 24,1 km/h (4 Bft) 97,56 %
13.01.2018 04:38 2,1 C 4,4 C 95 % 1025,5 hPa 0,0 l/m 19,7 km/h (3 Bft) O-NO 65 0 min 0,000 mm 0,0 UV-I 0 W/m 1,4 C -6,8 C 24,1 km/h (4 Bft) 98,00 %
13.01.2018 04:40 2,1 C 4,4 C 95 % 1025,5 hPa 0,0 l/m 15,8 km/h (3 Bft) O 79 0 min 0,000 mm 0,0 UV-I 0 W/m 1,4 C -4,9 C 24,1 km/h (4 Bft) 97,87 %
13.01.2018 04:42 2,1 C 4,4 C 95 % 1025,5 hPa 0,0 l/m 15,2 km/h (3 Bft) O-NO 69 0 min 0,000 mm 0,0 UV-I 0 W/m 1,4 C -4,5 C 24,1 km/h (4 Bft) 100,00 %
13.01.2018 04:44 2,1 C 4,4 C 95 % 1025,5 hPa 0,0 l/m 17,7 km/h (3 Bft) O-NO 76 0 min 0,000 mm 0,0 UV-I 0 W/m 1,4 C -5,9 C 25,7 km/h (4 Bft) 100,00 %
13.01.2018 04:46 2,1 C 4,4 C 95 % 1025,5 hPa 0,0 l/m 19,0 km/h (3 Bft) O-NO 76 0 min 0,000 mm 0,0 UV-I 0 W/m 1,4 C -6,5 C 25,7 km/h (4 Bft) 100,00 %
13.01.2018 04:48 2,1 C 4,4 C 95 % 1025,5 hPa 0,0 l/m 16,2 km/h (3 Bft) NO 50 0 min 0,000 mm 0,0 UV-I 0 W/m 1,4 C -5,1 C 22,5 km/h (4 Bft) 100,00 %
13.01.2018 04:50 2,1 C 4,4 C 95 % 1025,5 hPa 0,0 l/m 16,1 km/h (3 Bft) NO 54 0 min 0,000 mm 0,0 UV-I 0 W/m 1,4 C -5,0 C 24,1 km/h (4 Bft) 100,00 %
13.01.2018 04:52 2,1 C 4,4 C 95 % 1025,5 hPa 0,0 l/m 14,1 km/h (3 Bft) O-NO 60 0 min 0,000 mm 0,0 UV-I 0 W/m 1,4 C -3,9 C 20,9 km/h (4 Bft) 96,23 %
13.01.2018 04:54 2,1 C 4,4 C 95 % 1025,4 hPa 0,0 l/m 14,8 km/h (3 Bft) NO 54 0 min 0,000 mm 0,0 UV-I 0 W/m 1,4 C -4,3 C 17,7 km/h (3 Bft) 100,00 %
13.01.2018 04:56 2,1 C 4,4 C 95 % 1025,4 hPa 0,0 l/m 15,7 km/h (3 Bft) O-NO 63 0 min 0,000 mm 0,0 UV-I 0 W/m 1,4 C -4,8 C 20,9 km/h (4 Bft) 100,00 %
13.01.2018 04:58 2,1 C 4,4 C 95 % 1025,5 hPa 0,0 l/m 17,8 km/h (3 Bft) NO 42 0 min 0,000 mm 0,0 UV-I 0 W/m 1,4 C -5,9 C 25,7 km/h (4 Bft) 97,87 %
13.01.2018 05:00 2,1 C 4,4 C 95 % 1025,4 hPa 0,0 l/m 17,5 km/h (3 Bft) O-NO 59 0 min 0,000 mm 0,0 UV-I 0 W/m 1,4 C -5,8 C 22,5 km/h (4 Bft) 100,00 %
13.01.2018 05:02 2,1 C 4,4 C 95 % 1025,5 hPa 0,0 l/m 16,6 km/h (3 Bft) O-NO 62 0 min 0,000 mm 0,0 UV-I 0 W/m 1,4 C -5,3 C 22,5 km/h (4 Bft) 100,00 %
13.01.2018 05:04 2,1 C 4,4 C 95 % 1025,3 hPa 0,0 l/m 15,7 km/h (3 Bft) NO 50 0 min 0,000 mm 0,0 UV-I 0 W/m 1,4 C -4,8 C 20,9 km/h (4 Bft) 100,00 %
13.01.2018 05:06 2,1 C 4,4 C 95 % 1025,4 hPa 0,0 l/m 19,3 km/h (3 Bft) NO 40 0 min 0,000 mm 0,0 UV-I 0 W/m 1,4 C -6,6 C 27,4 km/h (4 Bft) 100,00 %
13.01.2018 05:08 2,1 C 4,4 C 95 % 1025,4 hPa 0,0 l/m 16,2 km/h (3 Bft) NO 54 0 min 0,000 mm 0,0 UV-I 0 W/m 1,4 C -5,1 C 25,7 km/h (4 Bft) 100,00 %
13.01.2018 05:10 2,1 C 4,4 C 95 % 1025,4 hPa 0,0 l/m 16,4 km/h (3 Bft) O-NO 65 0 min 0,000 mm 0,0 UV-I 0 W/m 1,4 C -5,2 C 20,9 km/h (4 Bft) 100,00 %
13.01.2018 05:12 2,1 C 4,4 C 95 % 1025,4 hPa 0,0 l/m 15,7 km/h (3 Bft) O-NO 69 0 min 0,000 mm 0,0 UV-I 0 W/m 1,4 C -4,8 C 22,5 km/h (4 Bft) 100,00 %
13.01.2018 05:14 2,1 C 4,4 C 95 % 1025,4 hPa 0,0 l/m 14,3 km/h (3 Bft) NO 45 0 min 0,000 mm 0,0 UV-I 0 W/m 1,4 C -4,0 C 19,3 km/h (3 Bft) 97,73 %
13.01.2018 05:16 2,0 C 4,4 C 95 % 1025,4 hPa 0,0 l/m 14,4 km/h (3 Bft) O-NO 59 0 min 0,000 mm 0,0 UV-I 0 W/m 1,3 C -4,2 C 20,9 km/h (4 Bft) 100,00 %
13.01.2018 05:18 2,0 C 4,4 C 95 % 1025,4 hPa 0,0 l/m 16,8 km/h (3 Bft) NO 53 0 min 0,000 mm 0,0 UV-I 0 W/m 1,3 C -5,5 C 24,1 km/h (4 Bft) 100,00 %
13.01.2018 05:20 2,0 C 4,4 C 95 % 1025,4 hPa 0,0 l/m 16,4 km/h (3 Bft) O-NO 63 0 min 0,000 mm 0,0 UV-I 0 W/m 1,3 C -5,3 C 20,9 km/h (4 Bft) 100,00 %
13.01.2018 05:22 2,0 C 4,4 C 94 % 1025,4 hPa 0,0 l/m 15,5 km/h (3 Bft) N-NO 24 0 min 0,000 mm 0,0 UV-I 0 W/m 1,1 C -4,8 C 19,3 km/h (3 Bft) 100,00 %
13.01.2018 05:24 2,0 C 4,4 C 94 % 1025,4 hPa 0,0 l/m 16,9 km/h (3 Bft) O-NO 65 0 min 0,000 mm 0,0 UV-I 0 W/m 1,1 C -5,6 C 24,1 km/h (4 Bft) 100,00 %
13.01.2018 05:26 2,0 C 4,4 C 94 % 1025,4 hPa 0,0 l/m 16,2 km/h (3 Bft) NO 56 0 min 0,000 mm 0,0 UV-I 0 W/m 1,1 C -5,2 C 20,9 km/h (4 Bft) 100,00 %
13.01.2018 05:28 1,9 C 4,4 C 94 % 1025,4 hPa 0,0 l/m 14,6 km/h (3 Bft) NO 40 0 min 0,000 mm 0,0 UV-I 0 W/m 1,0 C -4,4 C 22,5 km/h (4 Bft) 100,00 %
13.01.2018 05:30 1,9 C 4,4 C 94 % 1025,4 hPa 0,0 l/m 14,3 km/h (3 Bft) O-NO 78 0 min 0,000 mm 0,0 UV-I 0 W/m 1,0 C -4,3 C 20,9 km/h (4 Bft) 98,00 %
13.01.2018 05:32 1,9 C 4,4 C 94 % 1025,4 hPa 0,0 l/m 13,2 km/h (3 Bft) NO 56 0 min 0,000 mm 0,0 UV-I 0 W/m 1,0 C -3,6 C 19,3 km/h (3 Bft) 95,74 %
13.01.2018 05:34 1,9 C 4,4 C 94 % 1025,4 hPa 0,0 l/m 19,8 km/h (3 Bft) NO 53 0 min 0,000 mm 0,0 UV-I 0 W/m 1,0 C -7,1 C 29,0 km/h (5 Bft) 97,96 %
13.01.2018 05:36 1,9 C 4,4 C 94 % 1025,5 hPa 0,0 l/m 19,6 km/h (3 Bft) O-NO 58 0 min 0,000 mm 0,0 UV-I 0 W/m 1,0 C -7,0 C 25,7 km/h (4 Bft) 100,00 %
13.01.2018 05:38 1,9 C 4,4 C 94 % 1025,4 hPa 0,0 l/m 18,5 km/h (3 Bft) O-NO 78 0 min 0,000 mm 0,0 UV-I 0 W/m 1,0 C -6,5 C 29,0 km/h (5 Bft) 96,23 %
13.01.2018 05:40 1,9 C 4,4 C 94 % 1025,5 hPa 0,0 l/m 18,9 km/h (3 Bft) O-NO 59 0 min 0,000 mm 0,0 UV-I 0 W/m 1,0 C -6,7 C 27,4 km/h (4 Bft) 98,21 %
13.01.2018 05:42 1,9 C 4,4 C 94 % 1025,5 hPa 0,0 l/m 16,2 km/h (3 Bft) NO 49 0 min 0,000 mm 0,0 UV-I 0 W/m 1,0 C -5,3 C 20,9 km/h (4 Bft) 96,00 %
13.01.2018 05:44 1,9 C 4,4 C 94 % 1025,5 hPa 0,0 l/m 14,9 km/h (3 Bft) NO 53 0 min 0,000 mm 0,0 UV-I 0 W/m 1,0 C -4,6 C 20,9 km/h (4 Bft) 93,62 %
13.01.2018 05:46 1,8 C 4,4 C 95 % 1025,5 hPa 0,0 l/m 13,3 km/h (3 Bft) O-NO 57 0 min 0,000 mm 0,0 UV-I 0 W/m 1,1 C -3,8 C 24,1 km/h (4 Bft) 95,12 %
13.01.2018 05:48 1,8 C 4,4 C 94 % 1025,5 hPa 0,0 l/m 16,5 km/h (3 Bft) NO 45 0 min 0,000 mm 0,0 UV-I 0 W/m 0,9 C -5,6 C 22,5 km/h (4 Bft) 95,74 %
13.01.2018 05:50 1,8 C 4,4 C 94 % 1025,5 hPa 0,0 l/m 15,9 km/h (3 Bft) O-NO 58 0 min 0,000 mm 0,0 UV-I 0 W/m 0,9 C -5,3 C 25,7 km/h (4 Bft) 94,34 %
13.01.2018 05:52 1,8 C 4,4 C 94 % 1025,5 hPa 0,0 l/m 11,8 km/h (2 Bft) O 89 0 min 0,000 mm 0,0 UV-I 0 W/m 0,9 C -2,8 C 19,3 km/h (3 Bft) 97,37 %
13.01.2018 05:54 1,8 C 4,4 C 94 % 1025,5 hPa 0,0 l/m 13,0 km/h (3 Bft) NO 53 0 min 0,000 mm 0,0 UV-I 0 W/m 0,9 C -3,6 C 19,3 km/h (3 Bft) 98,11 %
13.01.2018 05:56 1,8 C 4,4 C 94 % 1025,5 hPa 0,0 l/m 14,9 km/h (3 Bft) NO 51 0 min 0,000 mm 0,0 UV-I 0 W/m 0,9 C -4,7 C 25,7 km/h (4 Bft) 98,00 %
13.01.2018 05:58 1,8 C 4,4 C 94 % 1025,5 hPa 0,0 l/m 15,1 km/h (3 Bft) O-NO 59 0 min 0,000 mm 0,0 UV-I 0 W/m 0,9 C -4,9 C 20,9 km/h (4 Bft) 97,56 %
13.01.2018 06:00 1,8 C 4,4 C 94 % 1025,5 hPa 0,0 l/m 13,0 km/h (3 Bft) O-NO 59 0 min 0,000 mm 0,0 UV-I 0 W/m 0,9 C -3,6 C 17,7 km/h (3 Bft) 95,12 %
13.01.2018 06:02 1,8 C 4,4 C 95 % 1025,5 hPa 0,0 l/m 12,5 km/h (3 Bft) O-NO 61 0 min 0,000 mm 0,0 UV-I 0 W/m 1,1 C -3,3 C 17,7 km/h (3 Bft) 98,11 %
13.01.2018 06:04 1,8 C 4,4 C 94 % 1025,5 hPa 0,0 l/m 14,6 km/h (3 Bft) O-NO 59 0 min 0,000 mm 0,0 UV-I 0 W/m 0,9 C -4,6 C 19,3 km/h (3 Bft) 97,56 %
13.01.2018 06:06 1,8 C 4,4 C 94 % 1025,5 hPa 0,0 l/m 11,9 km/h (2 Bft) O-NO 63 0 min 0,000 mm 0,0 UV-I 0 W/m 0,9 C -2,9 C 19,3 km/h (3 Bft) 100,00 %
13.01.2018 06:08 1,8 C 4,4 C 94 % 1025,5 hPa 0,0 l/m 13,5 km/h (3 Bft) O-NO 76 0 min 0,000 mm 0,0 UV-I 0 W/m 0,9 C -3,9 C 22,5 km/h (4 Bft) 100,00 %
13.01.2018 06:10 1,8 C 4,4 C 94 % 1025,5 hPa 0,0 l/m 16,9 km/h (3 Bft) O-NO 76 0 min 0,000 mm 0,0 UV-I 0 W/m 0,9 C -5,8 C 22,5 km/h (4 Bft) 98,11 %
13.01.2018 06:12 1,7 C 4,4 C 94 % 1025,5 hPa 0,0 l/m 17,7 km/h (3 Bft) O-NO 61 0 min 0,000 mm 0,0 UV-I 0 W/m 0,8 C -6,4 C 24,1 km/h (4 Bft) 100,00 %
13.01.2018 06:14 1,8 C 4,4 C 94 % 1025,5 hPa 0,0 l/m 15,2 km/h (3 Bft) O-NO 65 0 min 0,000 mm 0,0 UV-I 0 W/m 0,9 C -4,9 C 19,3 km/h (3 Bft) 100,00 %
13.01.2018 06:16 1,8 C 4,4 C 94 % 1025,5 hPa 0,0 l/m 12,3 km/h (3 Bft) O-NO 64 0 min 0,000 mm 0,0 UV-I 0 W/m 0,9 C -3,1 C 17,7 km/h (3 Bft) 100,00 %
13.01.2018 06:18 1,7 C 4,4 C 94 % 1025,5 hPa 0,0 l/m 16,0 km/h (3 Bft) O-NO 73 0 min 0,000 mm 0,0 UV-I 0 W/m 0,8 C -5,5 C 19,3 km/h (3 Bft) 97,87 %
13.01.2018 06:20 1,7 C 4,4 C 94 % 1025,5 hPa 0,0 l/m 14,5 km/h (3 Bft) O-NO 57 0 min 0,000 mm 0,0 UV-I 0 W/m 0,8 C -4,6 C 19,3 km/h (3 Bft) 97,37 %
13.01.2018 06:22 1,7 C 4,4 C 95 % 1025,5 hPa 0,0 l/m 15,1 km/h (3 Bft) NO 42 0 min 0,000 mm 0,0 UV-I 0 W/m 1,0 C -5,0 C 22,5 km/h (4 Bft) 100,00 %
13.01.2018 06:24 1,7 C 4,4 C 95 % 1025,5 hPa 0,0 l/m 14,2 km/h (3 Bft) O-NO 73 0 min 0,000 mm 0,0 UV-I 0 W/m 1,0 C -4,5 C 20,9 km/h (4 Bft) 100,00 %
13.01.2018 06:26 1,7 C 4,4 C 94 % 1025,5 hPa 0,0 l/m 11,2 km/h (2 Bft) O 85 0 min 0,000 mm 0,0 UV-I 0 W/m 0,8 C -2,5 C 17,7 km/h (3 Bft) 100,00 %
13.01.2018 06:28 1,7 C 4,4 C 94 % 1025,5 hPa 0,0 l/m 14,1 km/h (3 Bft) O-NO 77 0 min 0,000 mm 0,0 UV-I 0 W/m 0,8 C -4,4 C 19,3 km/h (3 Bft) 100,00 %
13.01.2018 06:30 1,7 C 4,4 C 94 % 1025,5 hPa 0,0 l/m 12,3 km/h (3 Bft) NO 52 0 min 0,000 mm 0,0 UV-I 0 W/m 0,8 C -3,2 C 17,7 km/h (3 Bft) 97,87 %
13.01.2018 06:32 1,7 C 4,4 C 94 % 1025,5 hPa 0,0 l/m 16,5 km/h (3 Bft) O-NO 67 0 min 0,000 mm 0,0 UV-I 0 W/m 0,8 C -5,7 C 22,5 km/h (4 Bft) 100,00 %
13.01.2018 06:34 1,7 C 4,4 C 94 % 1025,5 hPa 0,0 l/m 15,6 km/h (3 Bft) O 80 0 min 0,000 mm 0,0 UV-I 0 W/m 0,8 C -5,3 C 20,9 km/h (4 Bft) 100,00 %
13.01.2018 06:36 1,7 C 4,4 C 94 % 1025,5 hPa 0,0 l/m 13,6 km/h (3 Bft) O 83 0 min 0,000 mm 0,0 UV-I 0 W/m 0,8 C -4,1 C 17,7 km/h (3 Bft) 97,56 %
13.01.2018 06:38 1,7 C 4,4 C 94 % 1025,5 hPa 0,0 l/m 13,8 km/h (3 Bft) O-NO 57 0 min 0,000 mm 0,0 UV-I 0 W/m 0,8 C -4,2 C 20,9 km/h (4 Bft) 100,00 %
13.01.2018 06:40 1,7 C 4,4 C 94 % 1025,5 hPa 0,0 l/m 15,1 km/h (3 Bft) O-NO 59 0 min 0,000 mm 0,0 UV-I 0 W/m 0,8 C -5,0 C 19,3 km/h (3 Bft) 100,00 %
13.01.2018 06:42 1,7 C 4,4 C 94 % 1025,5 hPa 0,0 l/m 15,9 km/h (3 Bft) NO 53 0 min 0,000 mm 0,0 UV-I 0 W/m 0,8 C -5,4 C 20,9 km/h (4 Bft) 100,00 %
13.01.2018 06:44 1,7 C 4,4 C 94 % 1025,5 hPa 0,0 l/m 15,3 km/h (3 Bft) O-NO 76 0 min 0,000 mm 0,0 UV-I 0 W/m 0,8 C -5,1 C 22,5 km/h (4 Bft) 100,00 %
13.01.2018 06:46 1,7 C 4,4 C 94 % 1025,5 hPa 0,0 l/m 14,8 km/h (3 Bft) O-NO 73 0 min 0,000 mm 0,0 UV-I 0 W/m 0,8 C -4,8 C 19,3 km/h (3 Bft) 100,00 %
13.01.2018 06:48 1,7 C 4,4 C 94 % 1025,5 hPa 0,0 l/m 16,9 km/h (3 Bft) NO 56 0 min 0,000 mm 0,0 UV-I 0 W/m 0,8 C -6,0 C 22,5 km/h (4 Bft) 100,00 %
13.01.2018 06:50 1,6 C 4,4 C 94 % 1025,5 hPa 0,0 l/m 14,0 km/h (3 Bft) O 85 0 min 0,000 mm 0,0 UV-I 0 W/m 0,7 C -4,5 C 17,7 km/h (3 Bft) 100,00 %
13.01.2018 06:52 1,6 C 4,4 C 94 % 1025,5 hPa 0,0 l/m 13,5 km/h (3 Bft) O-NO 71 0 min 0,000 mm 0,0 UV-I 0 W/m 0,7 C -4,1 C 19,3 km/h (3 Bft) 100,00 %
13.01.2018 06:54 1,6 C 4,4 C 94 % 1025,5 hPa 0,0 l/m 13,6 km/h (3 Bft) O-NO 75 0 min 0,000 mm 0,0 UV-I 0 W/m 0,7 C -4,2 C 19,3 km/h (3 Bft) 100,00 %
13.01.2018 06:56 1,6 C 4,4 C 94 % 1025,5 hPa 0,0 l/m 16,7 km/h (3 Bft) NO 55 0 min 0,000 mm 0,0 UV-I 0 W/m 0,7 C -6,0 C 20,9 km/h (4 Bft) 98,00 %
13.01.2018 06:58 1,6 C 4,4 C 94 % 1025,5 hPa 0,0 l/m 16,4 km/h (3 Bft) NO 51 0 min 0,000 mm 0,0 UV-I 0 W/m 0,7 C -5,8 C 22,5 km/h (4 Bft) 100,00 %
13.01.2018 07:00 1,6 C 4,4 C 94 % 1025,5 hPa 0,0 l/m 18,5 km/h (3 Bft) O-NO 58 0 min 0,000 mm 0,0 UV-I 0 W/m 0,7 C -6,9 C 24,1 km/h (4 Bft) 100,00 %
13.01.2018 07:02 1,6 C 4,4 C 94 % 1025,5 hPa 0,0 l/m 20,5 km/h (4 Bft) NO 53 0 min 0,000 mm 0,0 UV-I 0 W/m 0,7 C -7,8 C 25,7 km/h (4 Bft) 96,23 %
13.01.2018 07:04 1,5 C 4,4 C 93 % 1025,5 hPa 0,0 l/m 17,3 km/h (3 Bft) O-NO 57 0 min 0,000 mm 0,0 UV-I 0 W/m 0,5 C -6,4 C 24,1 km/h (4 Bft) 97,37 %
13.01.2018 07:06 1,5 C 4,4 C 94 % 1025,5 hPa 0,0 l/m 22,3 km/h (4 Bft) NO 54 0 min 0,000 mm 0,0 UV-I 0 W/m 0,6 C -8,7 C 30,6 km/h (5 Bft) 98,11 %
13.01.2018 07:08 1,5 C 4,4 C 94 % 1025,5 hPa 0,0 l/m 23,1 km/h (4 Bft) NO 45 0 min 0,000 mm 0,0 UV-I 0 W/m 0,6 C -9,0 C 33,8 km/h (5 Bft) 97,22 %
13.01.2018 07:10 1,5 C 4,4 C 94 % 1025,5 hPa 0,0 l/m 17,9 km/h (3 Bft) O-NO 65 0 min 0,000 mm 0,0 UV-I 0 W/m 0,6 C -6,7 C 27,4 km/h (4 Bft) 93,44 %
13.01.2018 07:12 1,5 C 4,4 C 94 % 1025,5 hPa 0,0 l/m 20,5 km/h (4 Bft) O-NO 69 0 min 0,000 mm 0,0 UV-I 0 W/m 0,6 C -7,9 C 25,7 km/h (4 Bft) 97,78 %
13.01.2018 07:14 1,4 C 4,4 C 94 % 1025,5 hPa 0,0 l/m 19,4 km/h (3 Bft) NO 51 0 min 0,000 mm 0,0 UV-I 0 W/m 0,5 C -7,6 C 27,4 km/h (4 Bft) 96,00 %
13.01.2018 07:16 1,4 C 4,4 C 94 % 1025,5 hPa 0,0 l/m 17,1 km/h (3 Bft) O-NO 71 0 min 0,000 mm 0,0 UV-I 0 W/m 0,5 C -6,4 C 24,1 km/h (4 Bft) 97,37 %
13.01.2018 07:18 1,4 C 4,4 C 94 % 1025,5 hPa 0,0 l/m 16,8 km/h (3 Bft) O-NO 67 0 min 0,000 mm 0,0 UV-I 0 W/m 0,5 C -6,3 C 22,5 km/h (4 Bft) 92,00 %
13.01.2018 07:20 1,4 C 4,4 C 94 % 1025,5 hPa 0,0 l/m 17,6 km/h (3 Bft) O 80 0 min 0,000 mm 0,0 UV-I 0 W/m 0,5 C -6,7 C 22,5 km/h (4 Bft) 97,56 %
13.01.2018 07:22 1,4 C 4,4 C 94 % 1025,5 hPa 0,0 l/m 17,3 km/h (3 Bft) O-NO 72 0 min 0,000 mm 0,0 UV-I 0 W/m 0,5 C -6,5 C 22,5 km/h (4 Bft) 98,21 %
13.01.2018 07:24 1,4 C 4,4 C 94 % 1025,5 hPa 0,0 l/m 14,8 km/h (3 Bft) O 85 0 min 0,000 mm 0,0 UV-I 0 W/m 0,5 C -5,2 C 20,9 km/h (4 Bft) 94,74 %
13.01.2018 07:26 1,4 C 4,4 C 94 % 1025,5 hPa 0,0 l/m 19,6 km/h (3 Bft) O-NO 58 0 min 0,000 mm 0,0 UV-I 0 W/m 0,5 C -7,6 C 27,4 km/h (4 Bft) 97,87 %
13.01.2018 07:28 1,4 C 4,4 C 94 % 1025,5 hPa 0,0 l/m 17,2 km/h (3 Bft) NO 40 0 min 0,000 mm 0,0 UV-I 0 W/m 0,5 C -6,5 C 22,5 km/h (4 Bft) 98,00 %
13.01.2018 07:30 1,4 C 4,4 C 94 % 1025,5 hPa 0,0 l/m 17,2 km/h (3 Bft) O-NO 58 0 min 0,000 mm 0,0 UV-I 0 W/m 0,5 C -6,5 C 24,1 km/h (4 Bft) 97,87 %
13.01.2018 07:32 1,4 C 4,4 C 94 % 1025,5 hPa 0,0 l/m 15,7 km/h (3 Bft) NO 49 0 min 0,000 mm 0,0 UV-I 0 W/m 0,5 C -5,7 C 20,9 km/h (4 Bft) 98,00 %
13.01.2018 07:34 1,4 C 4,4 C 94 % 1025,5 hPa 0,0 l/m 16,4 km/h (3 Bft) O-NO 69 0 min 0,000 mm 0,0 UV-I 0 W/m 0,5 C -6,1 C 24,1 km/h (4 Bft) 95,12 %
13.01.2018 07:36 1,3 C 4,4 C 94 % 1025,5 hPa 0,0 l/m 17,9 km/h (3 Bft) NO 56 0 min 0,000 mm 0,0 UV-I 0 W/m 0,4 C -7,0 C 24,1 km/h (4 Bft) 94,34 %
13.01.2018 07:38 1,3 C 4,4 C 94 % 1025,5 hPa 0,0 l/m 18,4 km/h (3 Bft) O-NO 65 0 min 0,000 mm 0,0 UV-I 0 W/m 0,4 C -7,2 C 22,5 km/h (4 Bft) 95,12 %
13.01.2018 07:40 1,3 C 4,4 C 94 % 1025,5 hPa 0,0 l/m 21,4 km/h (4 Bft) NO 56 0 min 0,000 mm 0,0 UV-I 0 W/m 0,4 C -8,6 C 27,4 km/h (4 Bft) 94,64 %
13.01.2018 07:42 1,3 C 4,4 C 94 % 1025,5 hPa 0,0 l/m 17,5 km/h (3 Bft) O-NO 73 0 min 0,000 mm 0,0 UV-I 0 W/m 0,4 C -6,8 C 24,1 km/h (4 Bft) 95,12 %
13.01.2018 07:44 1,3 C 4,4 C 94 % 1025,5 hPa 0,0 l/m 19,4 km/h (3 Bft) O-NO 69 0 min 0,000 mm 0,0 UV-I 1 W/m 0,4 C -7,7 C 27,4 km/h (4 Bft) 95,24 %
13.01.2018 07:46 1,3 C 4,4 C 94 % 1025,5 hPa 0,0 l/m 19,9 km/h (4 Bft) O-NO 59 0 min 0,000 mm 0,0 UV-I 5 W/m 0,4 C -7,9 C 29,0 km/h (5 Bft) 95,12 %
13.01.2018 07:48 1,3 C 4,4 C 94 % 1025,5 hPa 0,0 l/m 23,2 km/h (4 Bft) O-NO 65 0 min 0,000 mm 0,0 UV-I 5 W/m 0,4 C -9,3 C 30,6 km/h (5 Bft) 96,43 %
13.01.2018 07:50 1,3 C 4,4 C 94 % 1025,5 hPa 0,0 l/m 19,5 km/h (3 Bft) O-NO 61 0 min 0,000 mm 0,0 UV-I 5 W/m 0,4 C -7,7 C 32,2 km/h (5 Bft) 94,34 %
13.01.2018 07:52 1,3 C 4,4 C 94 % 1025,5 hPa 0,0 l/m 19,9 km/h (4 Bft) NO 51 0 min 0,000 mm 0,0 UV-I 5 W/m 0,4 C -7,9 C 30,6 km/h (5 Bft) 97,14 %
13.01.2018 07:54 1,3 C 4,4 C 94 % 1025,5 hPa 0,0 l/m 19,4 km/h (3 Bft) O-NO 66 0 min 0,000 mm 0,0 UV-I 7 W/m 0,4 C -7,7 C 24,1 km/h (4 Bft) 94,00 %
13.01.2018 07:56 1,3 C 4,4 C 94 % 1025,5 hPa 0,0 l/m 17,8 km/h (3 Bft) O-NO 76 0 min 0,000 mm 0,0 UV-I 6 W/m 0,4 C -6,9 C 24,1 km/h (4 Bft) 95,74 %
13.01.2018 07:58 1,2 C 4,4 C 94 % 1025,5 hPa 0,0 l/m 21,1 km/h (4 Bft) NO 52 0 min 0,000 mm 0,0 UV-I 7 W/m 0,3 C -8,6 C 25,7 km/h (4 Bft) 94,34 %
13.01.2018 08:00 1,2 C 4,4 C 94 % 1025,4 hPa 0,0 l/m 17,1 km/h (3 Bft) NO 46 0 min 0,000 mm 0,0 UV-I 7 W/m 0,3 C -6,7 C 22,5 km/h (4 Bft) 92,00 %
13.01.2018 08:02 1,2 C 4,4 C 94 % 1025,4 hPa 0,0 l/m 23,9 km/h (4 Bft) O-NO 76 0 min 0,000 mm 0,0 UV-I 7 W/m 0,3 C -9,7 C 33,8 km/h (5 Bft) 96,55 %
13.01.2018 08:04 1,2 C 4,4 C 94 % 1025,5 hPa 0,0 l/m 20,1 km/h (4 Bft) NO 52 0 min 0,000 mm 0,0 UV-I 7 W/m 0,3 C -8,1 C 29,0 km/h (5 Bft) 96,23 %
13.01.2018 08:06 1,2 C 4,4 C 94 % 1025,5 hPa 0,0 l/m 19,3 km/h (3 Bft) O-NO 57 0 min 0,000 mm 0,0 UV-I 7 W/m 0,3 C -7,8 C 27,4 km/h (4 Bft) 92,00 %
13.01.2018 08:08 1,2 C 4,4 C 94 % 1025,5 hPa 0,0 l/m 17,7 km/h (3 Bft) NO 49 0 min 0,000 mm 0,0 UV-I 8 W/m 0,3 C -7,0 C 24,1 km/h (4 Bft) 96,00 %
13.01.2018 08:10 1,2 C 4,4 C 94 % 1025,5 hPa 0,0 l/m 17,1 km/h (3 Bft) NO 52 0 min 0,000 mm 0,0 UV-I 9 W/m 0,3 C -6,7 C 25,7 km/h (4 Bft) 98,00 %
13.01.2018 08:12 1,2 C 4,4 C 94 % 1025,6 hPa 0,0 l/m 19,0 km/h (3 Bft) O-NO 69 0 min 0,000 mm 0,0 UV-I 9 W/m 0,3 C -7,6 C 29,0 km/h (5 Bft) 94,44 %
13.01.2018 08:14 1,2 C 4,4 C 94 % 1025,5 hPa 0,0 l/m 19,5 km/h (3 Bft) NO 42 0 min 0,000 mm 0,0 UV-I 11 W/m 0,3 C -7,9 C 27,4 km/h (4 Bft) 100,00 %
13.01.2018 08:16 1,2 C 4,4 C 94 % 1025,5 hPa 0,0 l/m 17,7 km/h (3 Bft) O-NO 64 0 min 0,000 mm 0,0 UV-I 11 W/m 0,3 C -7,0 C 24,1 km/h (4 Bft) 97,62 %
13.01.2018 08:18 1,2 C 4,4 C 94 % 1025,5 hPa 0,0 l/m 16,2 km/h (3 Bft) O 86 0 min 0,000 mm 0,0 UV-I 13 W/m 0,3 C -6,2 C 24,1 km/h (4 Bft) 100,00 %
13.01.2018 08:20 1,2 C 4,4 C 94 % 1025,5 hPa 0,0 l/m 17,0 km/h (3 Bft) O-NO 67 0 min 0,000 mm 0,0 UV-I 15 W/m 0,3 C -6,6 C 20,9 km/h (4 Bft) 95,74 %
13.01.2018 08:22 1,2 C 4,4 C 94 % 1025,5 hPa 0,0 l/m 17,3 km/h (3 Bft) NO 35 0 min 0,000 mm 0,0 UV-I 16 W/m 0,3 C -6,8 C 25,7 km/h (4 Bft) 100,00 %
13.01.2018 08:24 1,2 C 4,4 C 94 % 1025,5 hPa 0,0 l/m 20,3 km/h (4 Bft) NO 46 0 min 0,000 mm 0,0 UV-I 18 W/m 0,3 C -8,2 C 29,0 km/h (5 Bft) 100,00 %
13.01.2018 08:26 1,2 C 4,4 C 94 % 1025,5 hPa 0,0 l/m 18,4 km/h (3 Bft) NO 56 0 min 0,000 mm 0,0 UV-I 19 W/m 0,3 C -7,3 C 25,7 km/h (4 Bft) 97,56 %
13.01.2018 08:28 1,3 C 4,4 C 93 % 1025,5 hPa 0,0 l/m 16,4 km/h (3 Bft) NO 40 0 min 0,000 mm 0,0 UV-I 19 W/m 0,3 C -6,2 C 20,9 km/h (4 Bft) 95,45 %
13.01.2018 08:30 1,3 C 4,4 C 93 % 1025,4 hPa 0,0 l/m 15,4 km/h (3 Bft) O-NO 62 0 min 0,000 mm 0,0 UV-I 19 W/m 0,3 C -5,6 C 22,5 km/h (4 Bft) 100,00 %
13.01.2018 08:32 1,3 C 4,4 C 93 % 1025,5 hPa 0,0 l/m 16,0 km/h (3 Bft) O-NO 73 0 min 0,000 mm 0,0 UV-I 20 W/m 0,3 C -6,0 C 20,9 km/h (4 Bft) 100,00 %
13.01.2018 08:34 1,3 C 4,4 C 93 % 1025,5 hPa 0,0 l/m 15,1 km/h (3 Bft) N-NO 23 0 min 0,000 mm 0,0 UV-I 21 W/m 0,3 C -5,5 C 19,3 km/h (3 Bft) 100,00 %
13.01.2018 08:36 1,3 C 4,4 C 93 % 1025,5 hPa 0,0 l/m 13,2 km/h (3 Bft) NO 56 0 min 0,000 mm 0,0 UV-I 22 W/m 0,3 C -4,3 C 22,5 km/h (4 Bft) 100,00 %
13.01.2018 08:38 1,3 C 4,4 C 93 % 1025,4 hPa 0,0 l/m 18,7 km/h (3 Bft) NO 48 0 min 0,000 mm 0,0 UV-I 24 W/m 0,3 C -7,4 C 25,7 km/h (4 Bft) 100,00 %
13.01.2018 08:40 1,3 C 4,4 C 93 % 1025,5 hPa 0,0 l/m 16,7 km/h (3 Bft) O 81 0 min 0,000 mm 0,0 UV-I 25 W/m 0,3 C -6,3 C 22,5 km/h (4 Bft) 100,00 %
13.01.2018 08:42 1,3 C 4,4 C 93 % 1025,5 hPa 0,0 l/m 15,7 km/h (3 Bft) O-NO 77 0 min 0,000 mm 0,0 UV-I 25 W/m 0,3 C -5,8 C 20,9 km/h (4 Bft) 100,00 %
13.01.2018 08:44 1,3 C 4,4 C 93 % 1025,5 hPa 0,0 l/m 16,2 km/h (3 Bft) NO 54 0 min 0,000 mm 0,0 UV-I 25 W/m 0,3 C -6,1 C 19,3 km/h (3 Bft) 100,00 %
13.01.2018 08:46 1,3 C 4,4 C 93 % 1025,6 hPa 0,0 l/m 14,6 km/h (3 Bft) O-NO 61 0 min 0,000 mm 0,0 UV-I 29 W/m 0,3 C -5,2 C 19,3 km/h (3 Bft) 100,00 %
13.01.2018 08:48 1,3 C 4,4 C 93 % 1025,6 hPa 0,0 l/m 14,4 km/h (3 Bft) O 80 0 min 0,000 mm 0,0 UV-I 33 W/m 0,3 C -5,1 C 17,7 km/h (3 Bft) 100,00 %
13.01.2018 08:50 1,3 C 4,4 C 93 % 1025,6 hPa 0,0 l/m 14,8 km/h (3 Bft) O-NO 65 0 min 0,000 mm 0,0 UV-I 41 W/m 0,3 C -5,3 C 20,9 km/h (4 Bft) 100,00 %
13.01.2018 08:52 1,3 C 4,4 C 93 % 1025,6 hPa 0,0 l/m 13,7 km/h (3 Bft) O 90 0 min 0,000 mm 0,0 UV-I 50 W/m 0,3 C -4,6 C 19,3 km/h (3 Bft) 100,00 %
13.01.2018 08:54 1,3 C 4,4 C 93 % 1025,6 hPa 0,0 l/m 15,0 km/h (3 Bft) NO 53 0 min 0,000 mm 0,0 UV-I 45 W/m 0,3 C -5,4 C 20,9 km/h (4 Bft) 98,59 %
13.01.2018 08:56 1,3 C 4,4 C 93 % 1025,7 hPa 0,0 l/m 17,1 km/h (3 Bft) O 82 0 min 0,000 mm 0,0 UV-I 43 W/m 0,3 C -6,6 C 22,5 km/h (4 Bft) 100,00 %
13.01.2018 08:58 1,3 C 4,4 C 93 % 1025,7 hPa 0,0 l/m 15,9 km/h (3 Bft) NO 51 0 min 0,000 mm 0,0 UV-I 47 W/m 0,3 C -5,9 C 22,5 km/h (4 Bft) 100,00 %
13.01.2018 09:00 1,3 C 4,4 C 93 % 1025,7 hPa 0,0 l/m 18,0 km/h (3 Bft) O-NO 75 0 min 0,025 mm 0,0 UV-I 51 W/m 0,3 C -7,0 C 24,1 km/h (4 Bft) 100,00 %
13.01.2018 09:02 1,3 C 4,4 C 93 % 1025,8 hPa 0,0 l/m 16,5 km/h (3 Bft) NO 40 0 min 0,000 mm 0,0 UV-I 53 W/m 0,3 C -6,2 C 20,9 km/h (4 Bft) 100,00 %
13.01.2018 09:04 1,3 C 4,4 C 93 % 1025,8 hPa 0,0 l/m 17,4 km/h (3 Bft) O-NO 65 0 min 0,000 mm 0,0 UV-I 53 W/m 0,3 C -6,7 C 22,5 km/h (4 Bft) 98,00 %
13.01.2018 09:06 1,3 C 4,4 C 92 % 1025,8 hPa 0,0 l/m 18,0 km/h (3 Bft) O 84 0 min 0,000 mm 0,0 UV-I 53 W/m 0,1 C -7,0 C 24,1 km/h (4 Bft) 100,00 %
13.01.2018 09:08 1,3 C 4,4 C 92 % 1025,8 hPa 0,0 l/m 17,5 km/h (3 Bft) O-NO 67 0 min 0,000 mm 0,0 UV-I 44 W/m 0,1 C -6,8 C 22,5 km/h (4 Bft) 100,00 %
13.01.2018 09:10 1,3 C 4,4 C 92 % 1025,8 hPa 0,0 l/m 19,6 km/h (3 Bft) O 84 0 min 0,000 mm 0,0 UV-I 43 W/m 0,1 C -7,8 C 25,7 km/h (4 Bft) 98,11 %
13.01.2018 09:12 1,3 C 4,4 C 92 % 1025,9 hPa 0,0 l/m 17,1 km/h (3 Bft) O 80 0 min 0,000 mm 0,0 UV-I 43 W/m 0,1 C -6,6 C 24,1 km/h (4 Bft) 100,00 %
13.01.2018 09:14 1,3 C 4,4 C 93 % 1025,9 hPa 0,0 l/m 14,4 km/h (3 Bft) O-NO 67 0 min 0,000 mm 0,0 UV-I 40 W/m 0,3 C -5,1 C 19,3 km/h (3 Bft) 98,21 %
13.01.2018 09:16 1,3 C 4,4 C 93 % 1025,9 hPa 0,0 l/m 14,6 km/h (3 Bft) O 87 0 min 0,000 mm 0,0 UV-I 40 W/m 0,3 C -5,2 C 20,9 km/h (4 Bft) 100,00 %
13.01.2018 09:18 1,3 C 4,4 C 93 % 1025,9 hPa 0,0 l/m 18,3 km/h (3 Bft) O-NO 71 0 min 0,000 mm 0,0 UV-I 48 W/m 0,3 C -7,2 C 24,1 km/h (4 Bft) 100,00 %
13.01.2018 09:20 1,3 C 4,4 C 92 % 1025,9 hPa 0,0 l/m 18,7 km/h (3 Bft) O-NO 74 0 min 0,000 mm 0,0 UV-I 60 W/m 0,1 C -7,4 C 25,7 km/h (4 Bft) 100,00 %
13.01.2018 09:22 1,2 C 4,4 C 92 % 1025,8 hPa 0,0 l/m 22,4 km/h (4 Bft) O 80 0 min 0,000 mm 0,0 UV-I 71 W/m 0,0 C -9,1 C 30,6 km/h (5 Bft) 100,00 %
13.01.2018 09:24 1,2 C 4,4 C 92 % 1025,9 hPa 0,0 l/m 18,1 km/h (3 Bft) O 88 0 min 0,000 mm 0,0 UV-I 65 W/m 0,0 C -7,2 C 24,1 km/h (4 Bft) 100,00 %
13.01.2018 09:26 1,2 C 4,4 C 92 % 1025,9 hPa 0,0 l/m 16,2 km/h (3 Bft) O-NO 59 0 min 0,000 mm 0,0 UV-I 57 W/m 0,0 C -6,2 C 20,9 km/h (4 Bft) 100,00 %
13.01.2018 09:28 1,2 C 4,4 C 92 % 1025,9 hPa 0,0 l/m 18,8 km/h (3 Bft) O-NO 77 0 min 0,000 mm 0,0 UV-I 53 W/m 0,0 C -7,5 C 29,0 km/h (5 Bft) 100,00 %
13.01.2018 09:30 1,2 C 4,4 C 92 % 1025,9 hPa 0,0 l/m 21,3 km/h (4 Bft) O-NO 59 0 min 0,000 mm 0,0 UV-I 47 W/m 0,0 C -8,6 C 27,4 km/h (4 Bft) 100,00 %
13.01.2018 09:32 1,2 C 4,4 C 92 % 1025,9 hPa 0,0 l/m 20,7 km/h (4 Bft) O-NO 66 0 min 0,000 mm 0,0 UV-I 41 W/m 0,0 C -8,4 C 35,4 km/h (5 Bft) 100,00 %
13.01.2018 09:34 1,1 C 4,4 C 92 % 1025,9 hPa 0,0 l/m 19,0 km/h (3 Bft) O-NO 76 0 min 0,000 mm 0,0 UV-I 42 W/m -0,1 C -7,7 C 25,7 km/h (4 Bft) 98,21 %
13.01.2018 09:36 1,1 C 4,4 C 92 % 1025,8 hPa 0,0 l/m 23,4 km/h (4 Bft) O 87 0 min 0,000 mm 0,0 UV-I 52 W/m -0,1 C -9,6 C 30,6 km/h (5 Bft) 95,12 %
13.01.2018 09:38 1,1 C 4,4 C 92 % 1025,9 hPa 0,0 l/m 17,1 km/h (3 Bft) O 92 0 min 0,000 mm 0,0 UV-I 59 W/m -0,1 C -6,8 C 24,1 km/h (4 Bft) 97,73 %
13.01.2018 09:40 1,1 C 4,4 C 92 % 1025,8 hPa 0,0 l/m 19,4 km/h (3 Bft) O 81 0 min 0,000 mm 0,0 UV-I 68 W/m -0,1 C -7,9 C 29,0 km/h (5 Bft) 98,11 %
13.01.2018 09:42 1,1 C 4,4 C 92 % 1025,8 hPa 0,0 l/m 19,2 km/h (3 Bft) O 81 0 min 0,000 mm 0,0 UV-I 75 W/m -0,1 C -7,8 C 25,7 km/h (4 Bft) 97,73 %
13.01.2018 09:44 1,1 C 4,4 C 92 % 1025,8 hPa 0,0 l/m 21,1 km/h (4 Bft) O 90 0 min 0,000 mm 0,0 UV-I 82 W/m -0,1 C -8,7 C 32,2 km/h (5 Bft) 97,87 %
13.01.2018 09:46 1,0 C 4,4 C 92 % 1025,7 hPa 0,0 l/m 22,2 km/h (4 Bft) O-NO 67 0 min 0,000 mm 0,0 UV-I 84 W/m -0,2 C -9,3 C 32,2 km/h (5 Bft) 97,56 %
13.01.2018 09:48 1,0 C 4,4 C 92 % 1025,7 hPa 0,0 l/m 19,9 km/h (4 Bft) O-NO 65 0 min 0,000 mm 0,0 UV-I 86 W/m -0,2 C -8,3 C 25,7 km/h (4 Bft) 97,87 %
13.01.2018 09:50 1,1 C 4,4 C 92 % 1025,7 hPa 0,0 l/m 19,2 km/h (3 Bft) O-NO 65 0 min 0,000 mm 0,0 UV-I 87 W/m -0,1 C -7,8 C 27,4 km/h (4 Bft) 97,73 %
13.01.2018 09:52 1,1 C 4,4 C 92 % 1025,6 hPa 0,0 l/m 22,5 km/h (4 Bft) O-NO 58 0 min 0,000 mm 0,0 UV-I 79 W/m -0,1 C -9,3 C 33,8 km/h (5 Bft) 98,21 %
13.01.2018 09:54 1,1 C 4,4 C 92 % 1025,7 hPa 0,0 l/m 24,6 km/h (4 Bft) O-NO 71 0 min 0,000 mm 0,0 UV-I 83 W/m -0,1 C -10,1 C 32,2 km/h (5 Bft) 95,45 %
13.01.2018 09:56 1,1 C 4,4 C 92 % 1025,7 hPa 0,0 l/m 19,2 km/h (3 Bft) O-NO 78 0 min 0,000 mm 0,0 UV-I 80 W/m -0,1 C -7,8 C 25,7 km/h (4 Bft) 96,23 %
13.01.2018 09:58 1,1 C 4,4 C 92 % 1025,7 hPa 0,0 l/m 18,3 km/h (3 Bft) O 86 0 min 0,000 mm 0,0 UV-I 94 W/m -0,1 C -7,4 C 29,0 km/h (5 Bft) 94,87 %
13.01.2018 10:00 1,1 C 4,4 C 92 % 1025,6 hPa 0,0 l/m 18,6 km/h (3 Bft) O-NO 64 0 min 0,026 mm 0,0 UV-I 97 W/m -0,1 C -7,6 C 27,4 km/h (4 Bft) 96,00 %
13.01.2018 10:02 1,1 C 4,4 C 92 % 1025,7 hPa 0,0 l/m 18,2 km/h (3 Bft) O-NO 71 0 min 0,000 mm 0,0 UV-I 91 W/m -0,1 C -7,4 C 24,1 km/h (4 Bft) 96,00 %
13.01.2018 10:04 1,1 C 4,4 C 92 % 1025,6 hPa 0,0 l/m 16,9 km/h (3 Bft) O-NO 68 0 min 0,000 mm 0,0 UV-I 90 W/m -0,1 C -6,7 C 25,7 km/h (4 Bft) 95,74 %
13.01.2018 10:06 1,1 C 4,4 C 92 % 1025,6 hPa 0,0 l/m 15,7 km/h (3 Bft) O 83 0 min 0,000 mm 0,0 UV-I 98 W/m -0,1 C -6,0 C 22,5 km/h (4 Bft) 97,87 %
13.01.2018 10:08 1,2 C 4,4 C 93 % 1025,6 hPa 0,0 l/m 16,2 km/h (3 Bft) O 84 0 min 0,000 mm 0,0 UV-I 103 W/m 0,2 C -6,2 C 22,5 km/h (4 Bft) 94,00 %
13.01.2018 10:10 1,2 C 4,4 C 92 % 1025,7 hPa 0,0 l/m 19,3 km/h (3 Bft) O 81 0 min 0,000 mm 0,0 UV-I 111 W/m 0,0 C -7,8 C 30,6 km/h (5 Bft) 97,14 %
13.01.2018 10:12 1,1 C 4,4 C 92 % 1025,7 hPa 0,0 l/m 18,8 km/h (3 Bft) O 87 0 min 0,000 mm 0,0 UV-I 121 W/m -0,1 C -7,7 C 25,7 km/h (4 Bft) 100,00 %
13.01.2018 10:14 1,2 C 4,4 C 92 % 1025,7 hPa 0,0 l/m 16,8 km/h (3 Bft) O-NO 59 0 min 0,000 mm 0,0 UV-I 120 W/m 0,0 C -6,5 C 24,1 km/h (4 Bft) 100,00 %
13.01.2018 10:16 1,1 C 4,4 C 92 % 1025,8 hPa 0,0 l/m 20,2 km/h (4 Bft) O-NO 72 0 min 0,000 mm 0,0 UV-I 108 W/m -0,1 C -8,3 C 27,4 km/h (4 Bft) 98,00 %
13.01.2018 10:18 1,2 C 4,4 C 92 % 1025,8 hPa 0,0 l/m 22,0 km/h (4 Bft) O-NO 63 0 min 0,000 mm 0,0 UV-I 104 W/m 0,0 C -8,9 C 32,2 km/h (5 Bft) 100,00 %
13.01.2018 10:20 1,2 C 4,4 C 92 % 1025,8 hPa 0,0 l/m 21,0 km/h (4 Bft) O-NO 74 0 min 0,000 mm 0,0 UV-I 96 W/m 0,0 C -8,5 C 29,0 km/h (5 Bft) 100,00 %
13.01.2018 10:22 1,2 C 4,4 C 92 % 1025,8 hPa 0,0 l/m 20,5 km/h (4 Bft) O-NO 73 0 min 0,000 mm 0,0 UV-I 85 W/m 0,0 C -8,3 C 29,0 km/h (5 Bft) 97,87 %
13.01.2018 10:24 1,2 C 4,4 C 92 % 1025,8 hPa 0,0 l/m 22,1 km/h (4 Bft) NO 38 0 min 0,000 mm 0,0 UV-I 81 W/m 0,0 C -9,0 C 29,0 km/h (5 Bft) 100,00 %
13.01.2018 10:26 1,2 C 4,4 C 92 % 1025,8 hPa 0,0 l/m 20,9 km/h (4 Bft) O 82 0 min 0,000 mm 0,0 UV-I 91 W/m 0,0 C -8,5 C 33,8 km/h (5 Bft) 100,00 %
13.01.2018 10:28 1,2 C 4,4 C 92 % 1025,8 hPa 0,0 l/m 23,1 km/h (4 Bft) O-NO 66 0 min 0,000 mm 0,0 UV-I 92 W/m 0,0 C -9,4 C 32,2 km/h (5 Bft) 100,00 %
13.01.2018 10:30 1,2 C 4,4 C 92 % 1025,8 hPa 0,0 l/m 20,2 km/h (4 Bft) O-SO 104 0 min 0,000 mm 0,0 UV-I 100 W/m 0,0 C -8,2 C 27,4 km/h (4 Bft) 100,00 %
13.01.2018 10:32 1,2 C 4,4 C 92 % 1025,9 hPa 0,0 l/m 19,7 km/h (3 Bft) O-NO 73 0 min 0,000 mm 0,0 UV-I 99 W/m 0,0 C -7,9 C 24,1 km/h (4 Bft) 97,87 %
13.01.2018 10:34 1,2 C 4,4 C 92 % 1025,8 hPa 0,0 l/m 18,1 km/h (3 Bft) O 86 0 min 0,000 mm 0,0 UV-I 99 W/m 0,0 C -7,2 C 24,1 km/h (4 Bft) 97,44 %
13.01.2018 10:36 1,2 C 4,4 C 92 % 1025,8 hPa 0,0 l/m 17,8 km/h (3 Bft) O 88 0 min 0,000 mm 0,0 UV-I 92 W/m 0,0 C -7,0 C 25,7 km/h (4 Bft) 100,00 %
13.01.2018 10:38 1,2 C 4,4 C 92 % 1025,9 hPa 0,0 l/m 13,7 km/h (3 Bft) O-NO 67 0 min 0,000 mm 0,0 UV-I 106 W/m 0,0 C -4,7 C 22,5 km/h (4 Bft) 100,00 %
13.01.2018 10:40 1,2 C 4,4 C 92 % 1025,9 hPa 0,0 l/m 20,3 km/h (4 Bft) O-NO 67 0 min 0,000 mm 0,0 UV-I 118 W/m 0,0 C -8,2 C 29,0 km/h (5 Bft) 100,00 %
13.01.2018 10:42 1,2 C 4,4 C 92 % 1025,8 hPa 0,0 l/m 21,4 km/h (4 Bft) O-NO 64 0 min 0,000 mm 0,0 UV-I 118 W/m 0,0 C -8,7 C 27,4 km/h (4 Bft) 100,00 %
13.01.2018 10:44 1,3 C 4,4 C 91 % 1025,9 hPa 0,0 l/m 19,2 km/h (3 Bft) O-NO 61 0 min 0,000 mm 0,0 UV-I 112 W/m -0,0 C -7,6 C 24,1 km/h (4 Bft) 100,00 %
13.01.2018 10:46 1,2 C 4,4 C 91 % 1025,9 hPa 0,0 l/m 19,3 km/h (3 Bft) O-NO 67 0 min 0,000 mm 0,0 UV-I 103 W/m -0,1 C -7,8 C 30,6 km/h (5 Bft) 98,00 %
13.01.2018 10:48 1,2 C 4,4 C 91 % 1025,8 hPa 0,0 l/m 19,1 km/h (3 Bft) O-NO 72 0 min 0,000 mm 0,0 UV-I 101 W/m -0,1 C -7,7 C 25,7 km/h (4 Bft) 100,00 %
13.01.2018 10:50 1,2 C 4,4 C 91 % 1025,8 hPa 0,0 l/m 17,2 km/h (3 Bft) NO 50 0 min 0,000 mm 0,0 UV-I 103 W/m -0,1 C -6,7 C 27,4 km/h (4 Bft) 100,00 %
13.01.2018 10:52 1,2 C 4,4 C 91 % 1025,8 hPa 0,0 l/m 18,2 km/h (3 Bft) O-NO 61 0 min 0,000 mm 0,0 UV-I 105 W/m -0,1 C -7,2 C 27,4 km/h (4 Bft) 97,87 %
13.01.2018 10:54 1,2 C 4,4 C 91 % 1025,8 hPa 0,0 l/m 25,1 km/h (4 Bft) O 83 0 min 0,000 mm 0,0 UV-I 110 W/m -0,1 C -10,1 C 32,2 km/h (5 Bft) 98,11 %
13.01.2018 10:56 1,2 C 4,4 C 91 % 1025,7 hPa 0,0 l/m 19,4 km/h (3 Bft) O-NO 76 0 min 0,000 mm 0,0 UV-I 112 W/m -0,1 C -7,8 C 29,0 km/h (5 Bft) 97,37 %
13.01.2018 10:58 1,2 C 4,4 C 91 % 1025,8 hPa 0,0 l/m 20,2 km/h (4 Bft) O-NO 71 0 min 0,000 mm 0,0 UV-I 112 W/m -0,1 C -8,2 C 27,4 km/h (4 Bft) 100,00 %
13.01.2018 11:00 1,2 C 4,4 C 91 % 1025,7 hPa 0,0 l/m 21,0 km/h (4 Bft) O-NO 60 0 min 0,051 mm 0,0 UV-I 116 W/m -0,1 C -8,5 C 29,0 km/h (5 Bft) 100,00 %
13.01.2018 11:02 1,2 C 4,4 C 91 % 1025,7 hPa 0,0 l/m 20,8 km/h (4 Bft) NO 55 0 min 0,000 mm 0,0 UV-I 119 W/m -0,1 C -8,4 C 25,7 km/h (4 Bft) 98,00 %
13.01.2018 11:04 1,2 C 4,4 C 91 % 1025,7 hPa 0,0 l/m 17,6 km/h (3 Bft) NO 48 0 min 0,000 mm 0,0 UV-I 107 W/m -0,1 C -6,9 C 25,7 km/h (4 Bft) 100,00 %
13.01.2018 11:06 1,2 C 4,4 C 91 % 1025,7 hPa 0,0 l/m 19,7 km/h (3 Bft) O-NO 60 0 min 0,000 mm 0,0 UV-I 104 W/m -0,1 C -7,9 C 27,4 km/h (4 Bft) 100,00 %
13.01.2018 11:08 1,2 C 4,4 C 91 % 1025,7 hPa 0,0 l/m 19,1 km/h (3 Bft) NO 54 0 min 0,000 mm 0,0 UV-I 91 W/m -0,1 C -7,7 C 27,4 km/h (4 Bft) 100,00 %
13.01.2018 11:10 1,2 C 4,4 C 91 % 1025,6 hPa 0,0 l/m 21,2 km/h (4 Bft) O-NO 58 0 min 0,000 mm 0,0 UV-I 91 W/m -0,1 C -8,6 C 30,6 km/h (5 Bft) 100,00 %
13.01.2018 11:12 1,1 C 4,4 C 91 % 1025,6 hPa 0,0 l/m 24,0 km/h (4 Bft) O-NO 74 0 min 0,000 mm 0,0 UV-I 90 W/m -0,2 C -9,9 C 32,2 km/h (5 Bft) 96,00 %
13.01.2018 11:14 1,1 C 4,4 C 92 % 1025,6 hPa 0,0 l/m 19,3 km/h (3 Bft) O-NO 67 0 min 0,000 mm 0,0 UV-I 86 W/m -0,1 C -7,9 C 25,7 km/h (4 Bft) 98,00 %
13.01.2018 11:16 1,1 C 4,4 C 92 % 1025,6 hPa 0,0 l/m 20,1 km/h (4 Bft) O-NO 59 0 min 0,000 mm 0,0 UV-I 73 W/m -0,1 C -8,3 C 30,6 km/h (5 Bft) 96,23 %
13.01.2018 11:18 1,1 C 4,4 C 92 % 1025,7 hPa 0,0 l/m 19,5 km/h (3 Bft) O-NO 69 0 min 0,000 mm 0,0 UV-I 76 W/m -0,1 C -8,0 C 25,7 km/h (4 Bft) 100,00 %
13.01.2018 11:20 1,1 C 4,4 C 92 % 1025,7 hPa 0,0 l/m 17,9 km/h (3 Bft) O-NO 68 0 min 0,000 mm 0,0 UV-I 66 W/m -0,1 C -7,2 C 25,7 km/h (4 Bft) 95,59 %
13.01.2018 11:22 1,1 C 4,4 C 92 % 1025,6 hPa 0,0 l/m 19,2 km/h (3 Bft) NO 54 0 min 0,000 mm 0,0 UV-I 67 W/m -0,1 C -7,8 C 24,1 km/h (4 Bft) 97,37 %
13.01.2018 11:24 1,1 C 4,4 C 92 % 1025,6 hPa 0,0 l/m 20,5 km/h (4 Bft) O 84 0 min 0,000 mm 0,0 UV-I 66 W/m -0,1 C -8,4 C 27,4 km/h (4 Bft) 98,21 %
13.01.2018 11:26 1,0 C 4,4 C 92 % 1025,6 hPa 0,0 l/m 21,1 km/h (4 Bft) O 84 0 min 0,000 mm 0,0 UV-I 73 W/m -0,2 C -8,8 C 30,6 km/h (5 Bft) 93,62 %
13.01.2018 11:28 1,1 C 4,4 C 92 % 1025,5 hPa 0,0 l/m 17,8 km/h (3 Bft) NO 56 0 min 0,000 mm 0,0 UV-I 71 W/m -0,1 C -7,2 C 25,7 km/h (4 Bft) 95,74 %
13.01.2018 11:30 1,1 C 4,4 C 92 % 1025,6 hPa 0,0 l/m 18,8 km/h (3 Bft) O-NO 61 0 min 0,000 mm 0,0 UV-I 64 W/m -0,1 C -7,7 C 27,4 km/h (4 Bft) 97,37 %
13.01.2018 11:32 1,1 C 4,4 C 92 % 1025,5 hPa 0,0 l/m 21,4 km/h (4 Bft) O-NO 77 0 min 0,000 mm 0,0 UV-I 68 W/m -0,1 C -8,8 C 29,0 km/h (5 Bft) 98,21 %
13.01.2018 11:34 1,0 C 4,4 C 92 % 1025,4 hPa 0,0 l/m 20,5 km/h (4 Bft) O-NO 74 0 min 0,000 mm 0,0 UV-I 63 W/m -0,2 C -8,6 C 27,4 km/h (4 Bft) 97,56 %
13.01.2018 11:36 1,0 C 4,4 C 92 % 1025,4 hPa 0,0 l/m 19,5 km/h (3 Bft) NO 52 0 min 0,000 mm 0,0 UV-I 60 W/m -0,2 C -8,1 C 27,4 km/h (4 Bft) 92,45 %
13.01.2018 11:38 1,0 C 4,4 C 92 % 1025,5 hPa 0,0 l/m 20,0 km/h (4 Bft) O 81 0 min 0,000 mm 0,0 UV-I 56 W/m -0,2 C -8,3 C 27,4 km/h (4 Bft) 92,68 %
13.01.2018 11:40 1,0 C 4,4 C 92 % 1025,4 hPa 0,0 l/m 20,1 km/h (4 Bft) NO 55 0 min 0,000 mm 0,0 UV-I 54 W/m -0,2 C -8,4 C 27,4 km/h (4 Bft) 95,12 %
13.01.2018 11:42 0,9 C 4,4 C 92 % 1025,5 hPa 0,0 l/m 21,5 km/h (4 Bft) O-NO 78 0 min 0,000 mm 0,0 UV-I 53 W/m -0,2 C -9,1 C 27,4 km/h (4 Bft) 96,00 %
13.01.2018 11:44 0,9 C 4,4 C 92 % 1025,4 hPa 0,0 l/m 20,4 km/h (4 Bft) O-NO 60 0 min 0,000 mm 0,0 UV-I 56 W/m -0,2 C -8,6 C 29,0 km/h (5 Bft) 94,34 %
13.01.2018 11:46 0,9 C 4,4 C 92 % 1025,4 hPa 0,0 l/m 19,9 km/h (4 Bft) NO 54 0 min 0,000 mm 0,0 UV-I 55 W/m -0,2 C -8,4 C 30,6 km/h (5 Bft) 94,87 %
13.01.2018 11:48 0,9 C 4,4 C 92 % 1025,4 hPa 0,0 l/m 17,2 km/h (3 Bft) O-NO 58 0 min 0,000 mm 0,0 UV-I 56 W/m -0,2 C -7,1 C 27,4 km/h (4 Bft) 96,15 %
13.01.2018 11:50 1,0 C 4,4 C 92 % 1025,4 hPa 0,0 l/m 19,6 km/h (3 Bft) O 82 0 min 0,000 mm 0,0 UV-I 53 W/m -0,2 C -8,2 C 27,4 km/h (4 Bft) 95,74 %
13.01.2018 11:52 1,0 C 4,4 C 92 % 1025,4 hPa 0,0 l/m 18,4 km/h (3 Bft) O-NO 64 0 min 0,000 mm 0,0 UV-I 49 W/m -0,2 C -7,6 C 24,1 km/h (4 Bft) 95,83 %
13.01.2018 11:54 1,0 C 4,4 C 92 % 1025,4 hPa 0,0 l/m 22,1 km/h (4 Bft) O-NO 67 0 min 0,000 mm 0,0 UV-I 50 W/m -0,2 C -9,2 C 30,6 km/h (5 Bft) 94,74 %
13.01.2018 11:56 1,0 C 4,4 C 92 % 1025,4 hPa 0,0 l/m 20,3 km/h (4 Bft) NO 40 0 min 0,000 mm 0,0 UV-I 56 W/m -0,2 C -8,5 C 30,6 km/h (5 Bft) 92,45 %
13.01.2018 11:58 1,0 C 4,4 C 92 % 1025,3 hPa 0,0 l/m 20,3 km/h (4 Bft) O-NO 67 0 min 0,000 mm 0,0 UV-I 61 W/m -0,2 C -8,5 C 25,7 km/h (4 Bft) 95,45 %
13.01.2018 12:00 1,0 C 4,4 C 92 % 1025,3 hPa 0,0 l/m 21,3 km/h (4 Bft) O-NO 69 0 min 0,025 mm 0,0 UV-I 61 W/m -0,2 C -8,9 C 27,4 km/h (4 Bft) 95,45 %
13.01.2018 12:02 1,0 C 4,4 C 92 % 1025,3 hPa 0,0 l/m 18,6 km/h (3 Bft) O-NO 64 0 min 0,000 mm 0,0 UV-I 66 W/m -0,2 C -7,7 C 25,7 km/h (4 Bft) 95,12 %
13.01.2018 12:04 1,0 C 4,4 C 92 % 1025,3 hPa 0,0 l/m 23,6 km/h (4 Bft) NO 47 0 min 0,000 mm 0,0 UV-I 71 W/m -0,2 C -9,8 C 30,6 km/h (5 Bft) 90,57 %
13.01.2018 12:06 1,1 C 4,4 C 92 % 1025,3 hPa 0,0 l/m 17,8 km/h (3 Bft) O-NO 58 0 min 0,000 mm 0,0 UV-I 76 W/m -0,1 C -7,2 C 24,1 km/h (4 Bft) 94,34 %
13.01.2018 12:08 1,1 C 4,4 C 92 % 1025,3 hPa 0,0 l/m 14,9 km/h (3 Bft) O-NO 69 0 min 0,000 mm 0,0 UV-I 85 W/m -0,1 C -5,6 C 20,9 km/h (4 Bft) 96,00 %
13.01.2018 12:10 1,1 C 4,4 C 92 % 1025,3 hPa 0,0 l/m 18,7 km/h (3 Bft) NO 40 0 min 0,000 mm 0,0 UV-I 88 W/m -0,1 C -7,6 C 27,4 km/h (4 Bft) 92,11 %
13.01.2018 12:12 1,1 C 4,4 C 91 % 1025,3 hPa 0,0 l/m 16,7 km/h (3 Bft) O-NO 58 0 min 0,000 mm 0,0 UV-I 77 W/m -0,2 C -6,6 C 20,9 km/h (4 Bft) 98,00 %
13.01.2018 12:14 1,2 C 4,4 C 91 % 1025,3 hPa 0,0 l/m 15,1 km/h (3 Bft) O-NO 59 0 min 0,000 mm 0,0 UV-I 61 W/m -0,1 C -5,6 C 22,5 km/h (4 Bft) 96,00 %
13.01.2018 12:16 1,1 C 4,4 C 91 % 1025,3 hPa 0,0 l/m 16,9 km/h (3 Bft) NO 44 0 min 0,000 mm 0,0 UV-I 51 W/m -0,2 C -6,7 C 24,1 km/h (4 Bft) 97,73 %
13.01.2018 12:18 1,1 C 4,4 C 91 % 1025,3 hPa 0,0 l/m 20,3 km/h (4 Bft) O-NO 69 0 min 0,000 mm 0,0 UV-I 42 W/m -0,2 C -8,3 C 27,4 km/h (4 Bft) 96,23 %
13.01.2018 12:20 1,1 C 4,4 C 91 % 1025,3 hPa 0,0 l/m 19,0 km/h (3 Bft) NO 44 0 min 0,000 mm 0,0 UV-I 41 W/m -0,2 C -7,7 C 25,7 km/h (4 Bft) 100,00 %
13.01.2018 12:22 1,1 C 4,4 C 91 % 1025,2 hPa 0,0 l/m 20,0 km/h (4 Bft) O-NO 64 0 min 0,000 mm 0,0 UV-I 46 W/m -0,2 C -8,2 C 27,4 km/h (4 Bft) 100,00 %
13.01.2018 12:24 1,0 C 4,4 C 91 % 1025,2 hPa 0,0 l/m 15,5 km/h (3 Bft) O-NO 66 0 min 0,000 mm 0,0 UV-I 49 W/m -0,3 C -6,1 C 20,9 km/h (4 Bft) 96,23 %
13.01.2018 12:26 1,1 C 4,4 C 92 % 1025,2 hPa 0,0 l/m 17,9 km/h (3 Bft) O 94 0 min 0,000 mm 0,0 UV-I 50 W/m -0,1 C -7,2 C 27,4 km/h (4 Bft) 95,74 %
13.01.2018 12:28 1,1 C 4,4 C 91 % 1025,2 hPa 0,0 l/m 19,8 km/h (3 Bft) O-NO 67 0 min 0,000 mm 0,0 UV-I 50 W/m -0,2 C -8,1 C 27,4 km/h (4 Bft) 98,00 %
13.01.2018 12:30 1,1 C 4,4 C 91 % 1025,2 hPa 0,0 l/m 18,6 km/h (3 Bft) O 80 0 min 0,000 mm 0,0 UV-I 48 W/m -0,2 C -7,6 C 25,7 km/h (4 Bft) 100,00 %
13.01.2018 12:32 1,1 C 4,4 C 91 % 1025,1 hPa 0,0 l/m 18,4 km/h (3 Bft) NO 55 0 min 0,000 mm 0,0 UV-I 49 W/m -0,2 C -7,5 C 24,1 km/h (4 Bft) 100,00 %
13.01.2018 12:34 1,1 C 4,4 C 91 % 1025,1 hPa 0,0 l/m 17,1 km/h (3 Bft) NO 55 0 min 0,000 mm 0,0 UV-I 48 W/m -0,2 C -6,8 C 20,9 km/h (4 Bft) 98,11 %
13.01.2018 12:36 1,0 C 4,4 C 91 % 1025,1 hPa 0,0 l/m 17,2 km/h (3 Bft) O-NO 71 0 min 0,000 mm 0,0 UV-I 46 W/m -0,3 C -7,0 C 27,4 km/h (4 Bft) 97,87 %
13.01.2018 12:38 1,0 C 4,4 C 91 % 1025,1 hPa 0,0 l/m 16,4 km/h (3 Bft) O-NO 78 0 min 0,000 mm 0,0 UV-I 50 W/m -0,3 C -6,6 C 20,9 km/h (4 Bft) 100,00 %
13.01.2018 12:40 1,0 C 4,4 C 91 % 1025,1 hPa 0,0 l/m 16,5 km/h (3 Bft) NO 42 0 min 0,000 mm 0,0 UV-I 47 W/m -0,3 C -6,6 C 22,5 km/h (4 Bft) 100,00 %
13.01.2018 12:42 1,0 C 4,4 C 91 % 1025,1 hPa 0,0 l/m 16,9 km/h (3 Bft) O-NO 66 0 min 0,000 mm 0,0 UV-I 46 W/m -0,3 C -6,8 C 25,7 km/h (4 Bft) 100,00 %
13.01.2018 12:44 0,9 C 4,4 C 91 % 1025,1 hPa 0,0 l/m 17,5 km/h (3 Bft) O-NO 66 0 min 0,000 mm 0,0 UV-I 40 W/m -0,4 C -7,3 C 24,1 km/h (4 Bft) 100,00 %
13.01.2018 12:46 0,9 C 4,4 C 91 % 1025,1 hPa 0,0 l/m 18,4 km/h (3 Bft) O-NO 69 0 min 0,000 mm 0,0 UV-I 39 W/m -0,4 C -7,7 C 25,7 km/h (4 Bft) 100,00 %
13.01.2018 12:48 0,9 C 4,4 C 91 % 1025,0 hPa 0,0 l/m 16,4 km/h (3 Bft) O-NO 73 0 min 0,000 mm 0,0 UV-I 44 W/m -0,4 C -6,7 C 22,5 km/h (4 Bft) 97,73 %
13.01.2018 12:50 1,0 C 4,4 C 92 % 1025,1 hPa 0,0 l/m 14,2 km/h (3 Bft) O 79 0 min 0,000 mm 0,0 UV-I 44 W/m -0,2 C -5,3 C 19,3 km/h (3 Bft) 100,00 %
13.01.2018 12:52 1,0 C 4,4 C 92 % 1025,0 hPa 0,0 l/m 10,8 km/h (2 Bft) O-NO 69 0 min 0,000 mm 0,0 UV-I 45 W/m -0,2 C -3,0 C 16,1 km/h (3 Bft) 100,00 %
13.01.2018 12:54 1,0 C 4,4 C 92 % 1025,0 hPa 0,0 l/m 14,6 km/h (3 Bft) O-NO 64 0 min 0,000 mm 0,0 UV-I 45 W/m -0,2 C -5,5 C 20,9 km/h (4 Bft) 100,00 %
13.01.2018 12:56 1,0 C 4,4 C 92 % 1025,0 hPa 0,0 l/m 16,9 km/h (3 Bft) NO 53 0 min 0,000 mm 0,0 UV-I 42 W/m -0,2 C -6,8 C 22,5 km/h (4 Bft) 95,12 %
13.01.2018 12:58 0,9 C 4,4 C 91 % 1025,0 hPa 0,0 l/m 19,9 km/h (4 Bft) O-NO 59 0 min 0,000 mm 0,0 UV-I 40 W/m -0,4 C -8,4 C 27,4 km/h (4 Bft) 100,00 %
13.01.2018 13:00 0,9 C 4,4 C 91 % 1025,0 hPa 0,0 l/m 17,8 km/h (3 Bft) O-NO 74 0 min 0,025 mm 0,0 UV-I 38 W/m -0,4 C -7,4 C 24,1 km/h (4 Bft) 100,00 %
13.01.2018 13:02 0,9 C 4,4 C 91 % 1024,9 hPa 0,0 l/m 16,2 km/h (3 Bft) O-NO 57 0 min 0,000 mm 0,0 UV-I 42 W/m -0,4 C -6,6 C 20,9 km/h (4 Bft) 98,00 %
13.01.2018 13:04 0,9 C 4,4 C 91 % 1024,9 hPa 0,0 l/m 20,5 km/h (4 Bft) O-NO 61 0 min 0,000 mm 0,0 UV-I 47 W/m -0,4 C -8,7 C 27,4 km/h (4 Bft) 100,00 %
13.01.2018 13:06 0,9 C 4,4 C 91 % 1024,9 hPa 0,0 l/m 18,1 km/h (3 Bft) NO 53 0 min 0,000 mm 0,0 UV-I 56 W/m -0,4 C -7,6 C 25,7 km/h (4 Bft) 100,00 %
13.01.2018 13:08 1,0 C 4,4 C 91 % 1024,8 hPa 0,0 l/m 17,4 km/h (3 Bft) O-NO 69 0 min 0,000 mm 0,0 UV-I 54 W/m -0,3 C -7,1 C 27,4 km/h (4 Bft) 100,00 %
13.01.2018 13:10 1,0 C 4,4 C 91 % 1024,8 hPa 0,0 l/m 20,0 km/h (4 Bft) O-NO 70 0 min 0,000 mm 0,0 UV-I 61 W/m -0,3 C -8,3 C 25,7 km/h (4 Bft) 98,00 %
13.01.2018 13:12 0,9 C 4,4 C 91 % 1024,8 hPa 0,0 l/m 17,6 km/h (3 Bft) NO 54 0 min 0,000 mm 0,0 UV-I 59 W/m -0,4 C -7,3 C 27,4 km/h (4 Bft) 94,74 %
13.01.2018 13:14 0,9 C 4,4 C 91 % 1024,7 hPa 0,0 l/m 18,4 km/h (3 Bft) NO 44 0 min 0,000 mm 0,0 UV-I 55 W/m -0,4 C -7,7 C 24,1 km/h (4 Bft) 97,87 %
13.01.2018 13:16 0,9 C 4,4 C 91 % 1024,7 hPa 0,0 l/m 18,4 km/h (3 Bft) O-NO 59 0 min 0,000 mm 0,0 UV-I 54 W/m -0,4 C -7,7 C 24,1 km/h (4 Bft) 100,00 %
13.01.2018 13:18 0,9 C 4,4 C 91 % 1024,7 hPa 0,0 l/m 20,3 km/h (4 Bft) NO 51 0 min 0,000 mm 0,0 UV-I 55 W/m -0,4 C -8,6 C 27,4 km/h (4 Bft) 100,00 %
13.01.2018 13:20 0,9 C 4,4 C 91 % 1024,7 hPa 0,0 l/m 19,3 km/h (3 Bft) O 86 0 min 0,000 mm 0,0 UV-I 53 W/m -0,4 C -8,1 C 24,1 km/h (4 Bft) 100,00 %
13.01.2018 13:22 0,9 C 4,4 C 91 % 1024,6 hPa 0,0 l/m 19,9 km/h (4 Bft) NO 54 0 min 0,000 mm 0,0 UV-I 56 W/m -0,4 C -8,4 C 27,4 km/h (4 Bft) 97,44 %
13.01.2018 13:24 0,9 C 4,4 C 91 % 1024,6 hPa 0,0 l/m 21,0 km/h (4 Bft) O 79 0 min 0,000 mm 0,0 UV-I 60 W/m -0,4 C -8,9 C 30,6 km/h (5 Bft) 96,23 %
13.01.2018 13:26 0,9 C 4,4 C 91 % 1024,6 hPa 0,0 l/m 15,9 km/h (3 Bft) O 80 0 min 0,000 mm 0,0 UV-I 52 W/m -0,4 C -6,4 C 22,5 km/h (4 Bft) 100,00 %
13.01.2018 13:28 0,9 C 4,4 C 91 % 1024,6 hPa 0,0 l/m 15,2 km/h (3 Bft) O 88 0 min 0,000 mm 0,0 UV-I 56 W/m -0,4 C -6,0 C 24,1 km/h (4 Bft) 100,00 %
13.01.2018 13:30 0,9 C 4,4 C 91 % 1024,5 hPa 0,0 l/m 20,8 km/h (4 Bft) O-NO 74 0 min 0,000 mm 0,0 UV-I 68 W/m -0,4 C -8,8 C 29,0 km/h (5 Bft) 100,00 %
13.01.2018 13:32 0,8 C 4,4 C 91 % 1024,6 hPa 0,0 l/m 19,6 km/h (3 Bft) O-NO 78 0 min 0,000 mm 0,0 UV-I 78 W/m -0,5 C -8,4 C 27,4 km/h (4 Bft) 100,00 %
13.01.2018 13:34 0,9 C 4,4 C 91 % 1024,6 hPa 0,0 l/m 14,2 km/h (3 Bft) NO 48 0 min 0,000 mm 0,0 UV-I 80 W/m -0,4 C -5,4 C 20,9 km/h (4 Bft) 100,00 %
13.01.2018 13:36 0,9 C 4,4 C 91 % 1024,5 hPa 0,0 l/m 15,9 km/h (3 Bft) O-NO 60 0 min 0,000 mm 0,0 UV-I 76 W/m -0,4 C -6,4 C 24,1 km/h (4 Bft) 100,00 %
13.01.2018 13:38 0,9 C 4,4 C 91 % 1024,6 hPa 0,0 l/m 15,0 km/h (3 Bft) O-NO 76 0 min 0,000 mm 0,0 UV-I 77 W/m -0,4 C -5,9 C 19,3 km/h (3 Bft) 97,14 %
13.01.2018 13:40 0,9 C 4,4 C 91 % 1024,5 hPa 0,0 l/m 18,4 km/h (3 Bft) NO 52 0 min 0,000 mm 0,0 UV-I 83 W/m -0,4 C -7,7 C 24,1 km/h (4 Bft) 97,73 %
13.01.2018 13:42 0,9 C 4,4 C 91 % 1024,5 hPa 0,0 l/m 16,0 km/h (3 Bft) O-NO 65 0 min 0,000 mm 0,0 UV-I 80 W/m -0,4 C -6,5 C 22,5 km/h (4 Bft) 96,00 %
13.01.2018 13:44 0,9 C 4,4 C 91 % 1024,5 hPa 0,0 l/m 18,1 km/h (3 Bft) O-NO 63 0 min 0,000 mm 0,0 UV-I 77 W/m -0,4 C -7,6 C 27,4 km/h (4 Bft) 97,87 %
13.01.2018 13:46 0,9 C 4,4 C 91 % 1024,5 hPa 0,0 l/m 20,2 km/h (4 Bft) O 80 0 min 0,000 mm 0,0 UV-I 71 W/m -0,4 C -8,6 C 27,4 km/h (4 Bft) 97,87 %
13.01.2018 13:48 0,9 C 4,4 C 91 % 1024,4 hPa 0,0 l/m 16,7 km/h (3 Bft) O-NO 65 0 min 0,000 mm 0,0 UV-I 72 W/m -0,4 C -6,8 C 20,9 km/h (4 Bft) 95,74 %
13.01.2018 13:50 0,9 C 4,4 C 91 % 1024,5 hPa 0,0 l/m 19,7 km/h (3 Bft) O-NO 65 0 min 0,000 mm 0,0 UV-I 71 W/m -0,4 C -8,3 C 27,4 km/h (4 Bft) 94,87 %
13.01.2018 13:52 0,9 C 4,4 C 92 % 1024,4 hPa 0,0 l/m 20,6 km/h (4 Bft) O-NO 62 0 min 0,000 mm 0,0 UV-I 71 W/m -0,2 C -8,7 C 27,4 km/h (4 Bft) 97,73 %
13.01.2018 13:54 0,9 C 4,4 C 91 % 1024,4 hPa 0,0 l/m 21,6 km/h (4 Bft) O-NO 65 0 min 0,000 mm 0,0 UV-I 66 W/m -0,4 C -9,2 C 29,0 km/h (5 Bft) 98,11 %
13.01.2018 13:56 0,8 C 4,4 C 91 % 1024,4 hPa 0,0 l/m 18,2 km/h (3 Bft) NO 51 0 min 0,000 mm 0,0 UV-I 67 W/m -0,5 C -7,7 C 25,7 km/h (4 Bft) 96,00 %
13.01.2018 13:58 0,9 C 4,4 C 91 % 1024,4 hPa 0,0 l/m 17,8 km/h (3 Bft) O-NO 77 0 min 0,000 mm 0,0 UV-I 76 W/m -0,4 C -7,4 C 22,5 km/h (4 Bft) 97,87 %
13.01.2018 14:00 0,8 C 4,4 C 91 % 1024,4 hPa 0,0 l/m 18,1 km/h (3 Bft) O-NO 66 0 min 0,026 mm 0,0 UV-I 65 W/m -0,5 C -7,7 C 24,1 km/h (4 Bft) 97,56 %
13.01.2018 14:02 0,8 C 4,4 C 91 % 1024,4 hPa 0,0 l/m 15,3 km/h (3 Bft) O 81 0 min 0,000 mm 0,0 UV-I 76 W/m -0,5 C -6,2 C 20,9 km/h (4 Bft) 96,00 %
13.01.2018 14:04 0,8 C 4,4 C 91 % 1024,4 hPa 0,0 l/m 20,2 km/h (4 Bft) O-NO 65 0 min 0,000 mm 0,0 UV-I 92 W/m -0,5 C -8,7 C 29,0 km/h (5 Bft) 98,11 %
13.01.2018 14:06 0,8 C 4,4 C 91 % 1024,4 hPa 0,0 l/m 19,2 km/h (3 Bft) O-NO 76 0 min 0,000 mm 0,0 UV-I 104 W/m -0,5 C -8,2 C 24,1 km/h (4 Bft) 97,37 %
13.01.2018 14:08 0,9 C 4,4 C 91 % 1024,4 hPa 0,0 l/m 17,1 km/h (3 Bft) O-NO 67 0 min 0,000 mm 0,0 UV-I 110 W/m -0,4 C -7,1 C 24,1 km/h (4 Bft) 95,74 %
13.01.2018 14:10 0,9 C 4,4 C 91 % 1024,4 hPa 0,0 l/m 17,3 km/h (3 Bft) NO 55 0 min 0,000 mm 0,0 UV-I 99 W/m -0,4 C -7,2 C 22,5 km/h (4 Bft) 94,34 %
13.01.2018 14:12 1,0 C 4,4 C 91 % 1024,4 hPa 0,0 l/m 16,0 km/h (3 Bft) O-NO 59 0 min 0,000 mm 0,0 UV-I 82 W/m -0,3 C -6,3 C 22,5 km/h (4 Bft) 95,74 %
13.01.2018 14:14 1,0 C 4,4 C 91 % 1024,4 hPa 0,0 l/m 17,7 km/h (3 Bft) O 83 0 min 0,000 mm 0,0 UV-I 53 W/m -0,3 C -7,2 C 22,5 km/h (4 Bft) 97,87 %
13.01.2018 14:16 0,9 C 4,4 C 91 % 1024,4 hPa 0,0 l/m 14,8 km/h (3 Bft) O-NO 72 0 min 0,000 mm 0,0 UV-I 44 W/m -0,4 C -5,8 C 19,3 km/h (3 Bft) 100,00 %
13.01.2018 14:18 0,9 C 4,4 C 91 % 1024,4 hPa 0,0 l/m 17,8 km/h (3 Bft) NO 44 0 min 0,000 mm 0,0 UV-I 40 W/m -0,4 C -7,4 C 24,1 km/h (4 Bft) 100,00 %
13.01.2018 14:20 0,9 C 4,4 C 91 % 1024,4 hPa 0,0 l/m 15,1 km/h (3 Bft) O-NO 61 0 min 0,000 mm 0,0 UV-I 36 W/m -0,4 C -5,9 C 20,9 km/h (4 Bft) 100,00 %
13.01.2018 14:22 0,9 C 4,4 C 91 % 1024,3 hPa 0,0 l/m 17,4 km/h (3 Bft) O-NO 60 0 min 0,000 mm 0,0 UV-I 40 W/m -0,4 C -7,2 C 24,1 km/h (4 Bft) 98,11 %
13.01.2018 14:24 0,9 C 4,4 C 91 % 1024,3 hPa 0,0 l/m 17,4 km/h (3 Bft) O-NO 66 0 min 0,000 mm 0,0 UV-I 46 W/m -0,4 C -7,2 C 24,1 km/h (4 Bft) 97,87 %
13.01.2018 14:26 0,9 C 4,4 C 91 % 1024,3 hPa 0,0 l/m 14,0 km/h (3 Bft) O-NO 69 0 min 0,000 mm 0,0 UV-I 59 W/m -0,4 C -5,3 C 20,9 km/h (4 Bft) 100,00 %
13.01.2018 14:28 0,9 C 4,4 C 91 % 1024,3 hPa 0,0 l/m 15,8 km/h (3 Bft) NO 53 0 min 0,000 mm 0,0 UV-I 75 W/m -0,4 C -6,4 C 22,5 km/h (4 Bft) 100,00 %
13.01.2018 14:30 0,9 C 4,4 C 91 % 1024,3 hPa 0,0 l/m 14,4 km/h (3 Bft) NO 54 0 min 0,000 mm 0,0 UV-I 77 W/m -0,4 C -5,5 C 19,3 km/h (3 Bft) 97,73 %
13.01.2018 14:32 0,9 C 4,4 C 91 % 1024,3 hPa 0,0 l/m 16,5 km/h (3 Bft) O-NO 71 0 min 0,000 mm 0,0 UV-I 72 W/m -0,4 C -6,7 C 22,5 km/h (4 Bft) 100,00 %
13.01.2018 14:34 0,9 C 4,4 C 91 % 1024,3 hPa 0,0 l/m 18,1 km/h (3 Bft) O-NO 78 0 min 0,000 mm 0,0 UV-I 52 W/m -0,4 C -7,6 C 24,1 km/h (4 Bft) 100,00 %
13.01.2018 14:36 0,9 C 4,4 C 91 % 1024,3 hPa 0,0 l/m 17,9 km/h (3 Bft) O-NO 68 0 min 0,000 mm 0,0 UV-I 43 W/m -0,4 C -7,5 C 24,1 km/h (4 Bft) 100,00 %
13.01.2018 14:38 0,9 C 4,4 C 91 % 1024,3 hPa 0,0 l/m 14,9 km/h (3 Bft) O-NO 63 0 min 0,000 mm 0,0 UV-I 36 W/m -0,4 C -5,8 C 20,9 km/h (4 Bft) 100,00 %
13.01.2018 14:40 0,8 C 4,4 C 91 % 1024,3 hPa 0,0 l/m 18,4 km/h (3 Bft) O-NO 67 0 min 0,000 mm 0,0 UV-I 31 W/m -0,5 C -7,8 C 24,1 km/h (4 Bft) 100,00 %
13.01.2018 14:42 0,8 C 4,4 C 91 % 1024,3 hPa 0,0 l/m 20,1 km/h (4 Bft) O-NO 78 0 min 0,000 mm 0,0 UV-I 27 W/m -0,5 C -8,6 C 24,1 km/h (4 Bft) 100,00 %
13.01.2018 14:44 0,7 C 4,4 C 91 % 1024,3 hPa 0,0 l/m 17,1 km/h (3 Bft) O 83 0 min 0,000 mm 0,0 UV-I 25 W/m -0,6 C -7,3 C 24,1 km/h (4 Bft) 97,87 %
13.01.2018 14:46 0,8 C 4,4 C 91 % 1024,4 hPa 0,0 l/m 16,9 km/h (3 Bft) O-NO 64 0 min 0,000 mm 0,0 UV-I 25 W/m -0,5 C -7,1 C 22,5 km/h (4 Bft) 98,00 %
13.01.2018 14:48 0,7 C 4,4 C 91 % 1024,4 hPa 0,0 l/m 19,1 km/h (3 Bft) O-NO 73 0 min 0,000 mm 0,0 UV-I 26 W/m -0,6 C -8,3 C 25,7 km/h (4 Bft) 100,00 %
13.01.2018 14:50 0,7 C 4,4 C 91 % 1024,4 hPa 0,0 l/m 17,4 km/h (3 Bft) O-NO 63 0 min 0,000 mm 0,0 UV-I 35 W/m -0,6 C -7,5 C 22,5 km/h (4 Bft) 100,00 %
13.01.2018 14:52 0,7 C 4,4 C 91 % 1024,4 hPa 0,0 l/m 16,0 km/h (3 Bft) O-NO 65 0 min 0,000 mm 0,0 UV-I 38 W/m -0,6 C -6,7 C 22,5 km/h (4 Bft) 100,00 %
13.01.2018 14:54 0,8 C 4,4 C 91 % 1024,5 hPa 0,0 l/m 14,6 km/h (3 Bft) O-NO 60 0 min 0,000 mm 0,0 UV-I 38 W/m -0,5 C -5,8 C 19,3 km/h (3 Bft) 100,00 %
13.01.2018 14:56 0,7 C 4,4 C 91 % 1024,4 hPa 0,0 l/m 13,2 km/h (3 Bft) O-NO 57 0 min 0,000 mm 0,0 UV-I 39 W/m -0,6 C -5,0 C 19,3 km/h (3 Bft) 100,00 %
13.01.2018 14:58 0,8 C 4,4 C 91 % 1024,4 hPa 0,0 l/m 10,8 km/h (2 Bft) O-NO 74 0 min 0,000 mm 0,0 UV-I 42 W/m -0,5 C -3,2 C 20,9 km/h (4 Bft) 98,00 %
13.01.2018 15:00 0,8 C 4,4 C 91 % 1024,4 hPa 0,0 l/m 11,7 km/h (2 Bft) O 91 0 min 0,025 mm 0,0 UV-I 39 W/m -0,5 C -3,9 C 17,7 km/h (3 Bft) 100,00 %
13.01.2018 15:02 0,8 C 4,4 C 91 % 1024,4 hPa 0,0 l/m 12,6 km/h (3 Bft) O-NO 75 0 min 0,000 mm 0,0 UV-I 35 W/m -0,5 C -4,5 C 17,7 km/h (3 Bft) 100,00 %
13.01.2018 15:04 0,8 C 4,4 C 91 % 1024,3 hPa 0,0 l/m 15,9 km/h (3 Bft) O-NO 58 0 min 0,000 mm 0,0 UV-I 36 W/m -0,5 C -6,5 C 22,5 km/h (4 Bft) 100,00 %
13.01.2018 15:06 0,8 C 4,4 C 91 % 1024,4 hPa 0,0 l/m 13,1 km/h (3 Bft) O-NO 62 0 min 0,000 mm 0,0 UV-I 37 W/m -0,5 C -4,8 C 17,7 km/h (3 Bft) 100,00 %
13.01.2018 15:08 0,8 C 4,4 C 91 % 1024,4 hPa 0,0 l/m 14,3 km/h (3 Bft) O-NO 61 0 min 0,000 mm 0,0 UV-I 37 W/m -0,5 C -5,6 C 20,9 km/h (4 Bft) 100,00 %
13.01.2018 15:10 0,8 C 4,4 C 91 % 1024,4 hPa 0,0 l/m 14,0 km/h (3 Bft) O-NO 71 0 min 0,000 mm 0,0 UV-I 35 W/m -0,5 C -5,4 C 20,9 km/h (4 Bft) 100,00 %
13.01.2018 15:12 0,8 C 4,4 C 91 % 1024,4 hPa 0,0 l/m 16,4 km/h (3 Bft) NO 43 0 min 0,000 mm 0,0 UV-I 33 W/m -0,5 C -6,8 C 22,5 km/h (4 Bft) 100,00 %
13.01.2018 15:14 0,8 C 4,4 C 91 % 1024,4 hPa 0,0 l/m 12,0 km/h (2 Bft) O-NO 69 0 min 0,000 mm 0,0 UV-I 35 W/m -0,5 C -4,1 C 16,1 km/h (3 Bft) 98,00 %
13.01.2018 15:16 0,8 C 4,4 C 91 % 1024,4 hPa 0,0 l/m 14,5 km/h (3 Bft) O 98 0 min 0,000 mm 0,0 UV-I 31 W/m -0,5 C -5,7 C 20,9 km/h (4 Bft) 96,36 %
13.01.2018 15:18 0,7 C 4,4 C 91 % 1024,3 hPa 0,0 l/m 12,3 km/h (3 Bft) O-NO 67 0 min 0,000 mm 0,0 UV-I 32 W/m -0,6 C -4,4 C 17,7 km/h (3 Bft) 97,62 %
13.01.2018 15:20 0,7 C 4,4 C 91 % 1024,4 hPa 0,0 l/m 11,6 km/h (2 Bft) NO 55 0 min 0,000 mm 0,0 UV-I 32 W/m -0,6 C -3,9 C 16,1 km/h (3 Bft) 97,87 %
13.01.2018 15:22 0,8 C 4,4 C 91 % 1024,3 hPa 0,0 l/m 11,2 km/h (2 Bft) O-NO 59 0 min 0,000 mm 0,0 UV-I 30 W/m -0,5 C -3,5 C 16,1 km/h (3 Bft) 97,37 %
13.01.2018 15:24 0,7 C 4,4 C 91 % 1024,3 hPa 0,0 l/m 16,0 km/h (3 Bft) O-NO 63 0 min 0,000 mm 0,0 UV-I 26 W/m -0,6 C -6,7 C 24,1 km/h (4 Bft) 98,21 %
13.01.2018 15:26 0,7 C 4,4 C 91 % 1024,3 hPa 0,0 l/m 16,0 km/h (3 Bft) O 80 0 min 0,000 mm 0,0 UV-I 25 W/m -0,6 C -6,7 C 22,5 km/h (4 Bft) 95,65 %
13.01.2018 15:28 0,7 C 4,4 C 91 % 1024,3 hPa 0,0 l/m 13,3 km/h (3 Bft) O-NO 77 0 min 0,000 mm 0,0 UV-I 25 W/m -0,6 C -5,1 C 19,3 km/h (3 Bft) 98,53 %
13.01.2018 15:30 0,7 C 4,4 C 91 % 1024,3 hPa 0,0 l/m 15,0 km/h (3 Bft) O 86 0 min 0,000 mm 0,0 UV-I 23 W/m -0,6 C -6,1 C 20,9 km/h (4 Bft) 95,12 %
13.01.2018 15:32 0,7 C 4,4 C 91 % 1024,3 hPa 0,0 l/m 11,9 km/h (2 Bft) NO 50 0 min 0,000 mm 0,0 UV-I 21 W/m -0,6 C -4,1 C 17,7 km/h (3 Bft) 96,43 %
13.01.2018 15:34 0,6 C 4,4 C 91 % 1024,3 hPa 0,0 l/m 12,0 km/h (2 Bft) NO 43 0 min 0,000 mm 0,0 UV-I 21 W/m -0,7 C -4,3 C 16,1 km/h (3 Bft) 100,00 %
13.01.2018 15:36 0,6 C 4,4 C 91 % 1024,4 hPa 0,0 l/m 17,4 km/h (3 Bft) O-NO 66 0 min 0,000 mm 0,0 UV-I 21 W/m -0,7 C -7,6 C 25,7 km/h (4 Bft) 90,57 %
13.01.2018 15:38 0,6 C 4,4 C 91 % 1024,3 hPa 0,0 l/m 18,6 km/h (3 Bft) NO 54 0 min 0,000 mm 0,0 UV-I 21 W/m -0,7 C -8,2 C 25,7 km/h (4 Bft) 97,73 %
13.01.2018 15:40 0,6 C 4,4 C 91 % 1024,3 hPa 0,0 l/m 17,0 km/h (3 Bft) NO 53 0 min 0,000 mm 0,0 UV-I 20 W/m -0,7 C -7,4 C 22,5 km/h (4 Bft) 95,74 %
13.01.2018 15:42 0,6 C 4,4 C 91 % 1024,3 hPa 0,0 l/m 20,0 km/h (4 Bft) NO 46 0 min 0,000 mm 0,0 UV-I 19 W/m -0,7 C -8,9 C 30,6 km/h (5 Bft) 94,44 %
13.01.2018 15:44 0,6 C 4,4 C 90 % 1024,3 hPa 0,0 l/m 19,0 km/h (3 Bft) NO 52 0 min 0,000 mm 0,0 UV-I 18 W/m -0,8 C -8,4 C 30,6 km/h (5 Bft) 94,03 %
13.01.2018 15:46 0,6 C 4,4 C 90 % 1024,3 hPa 0,0 l/m 19,7 km/h (3 Bft) O 88 0 min 0,000 mm 0,0 UV-I 18 W/m -0,8 C -8,7 C 24,1 km/h (4 Bft) 95,45 %
13.01.2018 15:48 0,6 C 4,4 C 90 % 1024,2 hPa 0,0 l/m 17,6 km/h (3 Bft) O-NO 66 0 min 0,000 mm 0,0 UV-I 16 W/m -0,8 C -7,7 C 24,1 km/h (4 Bft) 95,24 %
13.01.2018 15:50 0,6 C 4,4 C 90 % 1024,2 hPa 0,0 l/m 20,8 km/h (4 Bft) NO 46 0 min 0,000 mm 0,0 UV-I 18 W/m -0,8 C -9,2 C 27,4 km/h (4 Bft) 96,00 %
13.01.2018 15:52 0,5 C 4,4 C 90 % 1024,2 hPa 0,0 l/m 22,2 km/h (4 Bft) NO 56 0 min 0,000 mm 0,0 UV-I 17 W/m -0,9 C -9,9 C 27,4 km/h (4 Bft) 95,74 %
13.01.2018 15:54 0,5 C 4,4 C 90 % 1024,2 hPa 0,0 l/m 15,6 km/h (3 Bft) O-NO 57 0 min 0,000 mm 0,0 UV-I 14 W/m -0,9 C -6,7 C 20,9 km/h (4 Bft) 95,12 %
13.01.2018 15:56 0,4 C 4,4 C 91 % 1024,2 hPa 0,0 l/m 14,8 km/h (3 Bft) O-NO 58 0 min 0,000 mm 0,0 UV-I 14 W/m -0,9 C -6,4 C 19,3 km/h (3 Bft) 90,57 %
13.01.2018 15:58 0,4 C 4,4 C 91 % 1024,2 hPa 0,0 l/m 16,5 km/h (3 Bft) O-NO 60 0 min 0,000 mm 0,0 UV-I 12 W/m -0,9 C -7,4 C 22,5 km/h (4 Bft) 95,45 %
13.01.2018 16:00 0,4 C 4,4 C 91 % 1024,2 hPa 0,0 l/m 14,6 km/h (3 Bft) NO 54 0 min 0,000 mm 0,0 UV-I 12 W/m -0,9 C -6,3 C 19,3 km/h (3 Bft) 97,37 %
13.01.2018 16:02 0,4 C 4,4 C 91 % 1024,1 hPa 0,0 l/m 14,5 km/h (3 Bft) O-NO 63 0 min 0,026 mm 0,0 UV-I 11 W/m -0,9 C -6,2 C 20,9 km/h (4 Bft) 94,34 %
13.01.2018 16:04 0,4 C 4,4 C 91 % 1024,1 hPa 0,0 l/m 14,9 km/h (3 Bft) NO 51 0 min 0,000 mm 0,0 UV-I 11 W/m -0,9 C -6,4 C 20,9 km/h (4 Bft) 96,00 %
13.01.2018 16:06 0,4 C 4,4 C 91 % 1024,1 hPa 0,0 l/m 14,2 km/h (3 Bft) O 80 0 min 0,000 mm 0,0 UV-I 9 W/m -0,9 C -6,0 C 19,3 km/h (3 Bft) 97,56 %
13.01.2018 16:08 0,4 C 4,4 C 91 % 1024,2 hPa 0,0 l/m 14,1 km/h (3 Bft) O-NO 58 0 min 0,000 mm 0,0 UV-I 9 W/m -0,9 C -5,9 C 22,5 km/h (4 Bft) 94,00 %
13.01.2018 16:10 0,4 C 4,4 C 91 % 1024,2 hPa 0,0 l/m 14,9 km/h (3 Bft) O-NO 60 0 min 0,000 mm 0,0 UV-I 9 W/m -0,9 C -6,4 C 19,3 km/h (3 Bft) 95,45 %
13.01.2018 16:12 0,4 C 4,4 C 91 % 1024,2 hPa 0,0 l/m 12,0 km/h (2 Bft) O-NO 65 0 min 0,000 mm 0,0 UV-I 9 W/m -0,9 C -4,5 C 16,1 km/h (3 Bft) 94,92 %
13.01.2018 16:14 0,4 C 4,4 C 92 % 1024,2 hPa 0,0 l/m 12,0 km/h (2 Bft) NO 49 0 min 0,000 mm 0,0 UV-I 9 W/m -0,7 C -4,5 C 17,7 km/h (3 Bft) 94,74 %
13.01.2018 16:16 0,4 C 4,4 C 92 % 1024,2 hPa 0,0 l/m 15,7 km/h (3 Bft) O 86 0 min 0,000 mm 0,0 UV-I 9 W/m -0,7 C -6,9 C 20,9 km/h (4 Bft) 93,62 %
13.01.2018 16:18 0,3 C 4,4 C 91 % 1024,2 hPa 0,0 l/m 21,2 km/h (4 Bft) NO 47 0 min 0,000 mm 0,0 UV-I 9 W/m -1,0 C -9,8 C 30,6 km/h (5 Bft) 95,83 %
13.01.2018 16:20 0,3 C 4,4 C 91 % 1024,2 hPa 0,0 l/m 17,0 km/h (3 Bft) O-NO 76 0 min 0,000 mm 0,0 UV-I 9 W/m -1,0 C -7,8 C 24,1 km/h (4 Bft) 97,96 %
13.01.2018 16:22 0,3 C 4,4 C 91 % 1024,2 hPa 0,0 l/m 14,3 km/h (3 Bft) O-NO 70 0 min 0,000 mm 0,0 UV-I 7 W/m -1,0 C -6,2 C 19,3 km/h (3 Bft) 95,83 %
13.01.2018 16:24 0,3 C 4,4 C 91 % 1024,2 hPa 0,0 l/m 19,2 km/h (3 Bft) NO 53 0 min 0,000 mm 0,0 UV-I 7 W/m -1,0 C -8,9 C 25,7 km/h (4 Bft) 100,00 %
13.01.2018 16:26 0,3 C 4,4 C 91 % 1024,1 hPa 0,0 l/m 18,8 km/h (3 Bft) O-NO 61 0 min 0,000 mm 0,0 UV-I 7 W/m -1,0 C -8,7 C 24,1 km/h (4 Bft) 100,00 %
13.01.2018 16:28 0,3 C 4,4 C 91 % 1024,1 hPa 0,0 l/m 16,5 km/h (3 Bft) NO 53 0 min 0,000 mm 0,0 UV-I 7 W/m -1,0 C -7,5 C 20,9 km/h (4 Bft) 100,00 %
13.01.2018 16:30 0,3 C 4,4 C 91 % 1024,1 hPa 0,0 l/m 17,4 km/h (3 Bft) O-NO 60 0 min 0,000 mm 0,0 UV-I 5 W/m -1,0 C -8,0 C 25,7 km/h (4 Bft) 98,00 %
13.01.2018 16:32 0,3 C 4,4 C 91 % 1024,1 hPa 0,0 l/m 16,0 km/h (3 Bft) NO 56 0 min 0,000 mm 0,0 UV-I 5 W/m -1,0 C -7,2 C 22,5 km/h (4 Bft) 97,73 %
13.01.2018 16:34 0,3 C 4,4 C 92 % 1024,1 hPa 0,0 l/m 16,5 km/h (3 Bft) NO 42 0 min 0,000 mm 0,0 UV-I 5 W/m -0,8 C -7,5 C 20,9 km/h (4 Bft) 100,00 %
13.01.2018 16:36 0,2 C 4,4 C 92 % 1024,2 hPa 0,0 l/m 15,4 km/h (3 Bft) NO 52 0 min 0,000 mm 0,0 UV-I 5 W/m -0,9 C -7,0 C 20,9 km/h (4 Bft) 100,00 %
13.01.2018 16:38 0,3 C 4,4 C 92 % 1024,1 hPa 0,0 l/m 14,5 km/h (3 Bft) O-NO 57 0 min 0,000 mm 0,0 UV-I 5 W/m -0,8 C -6,3 C 19,3 km/h (3 Bft) 100,00 %
13.01.2018 16:40 0,3 C 4,4 C 92 % 1024,1 hPa 0,0 l/m 16,5 km/h (3 Bft) NO 55 0 min 0,000 mm 0,0 UV-I 5 W/m -0,8 C -7,5 C 22,5 km/h (4 Bft) 100,00 %
13.01.2018 16:42 0,2 C 4,4 C 92 % 1024,2 hPa 0,0 l/m 15,9 km/h (3 Bft) O-NO 63 0 min 0,000 mm 0,0 UV-I 5 W/m -0,9 C -7,3 C 20,9 km/h (4 Bft) 98,21 %
13.01.2018 16:44 0,2 C 4,4 C 92 % 1024,1 hPa 0,0 l/m 15,0 km/h (3 Bft) O-NO 61 0 min 0,000 mm 0,0 UV-I 2 W/m -0,9 C -6,7 C 20,9 km/h (4 Bft) 100,00 %
13.01.2018 16:46 0,2 C 4,4 C 92 % 1024,1 hPa 0,0 l/m 17,3 km/h (3 Bft) O-NO 72 0 min 0,000 mm 0,0 UV-I 0 W/m -0,9 C -8,0 C 24,1 km/h (4 Bft) 98,21 %
13.01.2018 16:48 0,2 C 4,4 C 92 % 1024,2 hPa 0,0 l/m 14,2 km/h (3 Bft) O-SO 116 0 min 0,000 mm 0,0 UV-I 0 W/m -0,9 C -6,2 C 19,3 km/h (3 Bft) 97,87 %
13.01.2018 16:50 0,2 C 4,4 C 92 % 1024,2 hPa 0,0 l/m 16,7 km/h (3 Bft) O-NO 62 0 min 0,000 mm 0,0 UV-I 0 W/m -0,9 C -7,7 C 22,5 km/h (4 Bft) 100,00 %
13.01.2018 16:52 0,2 C 4,4 C 92 % 1024,2 hPa 0,0 l/m 14,0 km/h (3 Bft) O-NO 61 0 min 0,000 mm 0,0 UV-I 0 W/m -0,9 C -6,1 C 17,7 km/h (3 Bft) 100,00 %
13.01.2018 16:54 0,2 C 4,4 C 92 % 1024,2 hPa 0,0 l/m 18,3 km/h (3 Bft) O 96 0 min 0,000 mm 0,0 UV-I 0 W/m -0,9 C -8,6 C 25,7 km/h (4 Bft) 100,00 %
13.01.2018 16:56 0,2 C 4,4 C 92 % 1024,3 hPa 0,0 l/m 16,5 km/h (3 Bft) O-NO 67 0 min 0,000 mm 0,0 UV-I 0 W/m -0,9 C -7,6 C 22,5 km/h (4 Bft) 97,87 %
13.01.2018 16:58 0,2 C 4,4 C 91 % 1024,2 hPa 0,0 l/m 18,8 km/h (3 Bft) O-NO 73 0 min 0,000 mm 0,0 UV-I 0 W/m -1,1 C -8,8 C 22,5 km/h (4 Bft) 100,00 %
13.01.2018 17:00 0,2 C 4,4 C 91 % 1024,3 hPa 0,0 l/m 18,5 km/h (3 Bft) O-NO 63 0 min 0,000 mm 0,0 UV-I 0 W/m -1,1 C -8,7 C 25,7 km/h (4 Bft) 100,00 %
13.01.2018 17:02 0,1 C 4,4 C 91 % 1024,2 hPa 0,0 l/m 18,5 km/h (3 Bft) NO 53 0 min 0,000 mm 0,0 UV-I 0 W/m -1,2 C -8,8 C 22,5 km/h (4 Bft) 100,00 %
13.01.2018 17:04 0,1 C 4,4 C 92 % 1024,2 hPa 0,0 l/m 17,8 km/h (3 Bft) O-NO 67 0 min 0,000 mm 0,0 UV-I 0 W/m -1,0 C -8,4 C 24,1 km/h (4 Bft) 100,00 %
13.01.2018 17:06 0,1 C 4,4 C 92 % 1024,3 hPa 0,0 l/m 16,7 km/h (3 Bft) O-NO 61 0 min 0,000 mm 0,0 UV-I 0 W/m -1,0 C -7,8 C 22,5 km/h (4 Bft) 100,00 %
13.01.2018 17:08 0,1 C 4,4 C 92 % 1024,3 hPa 0,0 l/m 19,1 km/h (3 Bft) O-NO 72 0 min 0,000 mm 0,0 UV-I 0 W/m -1,0 C -9,1 C 25,7 km/h (4 Bft) 100,00 %
13.01.2018 17:10 0,1 C 4,4 C 92 % 1024,2 hPa 0,0 l/m 17,1 km/h (3 Bft) NO 46 0 min 0,000 mm 0,0 UV-I 0 W/m -1,0 C -8,1 C 24,1 km/h (4 Bft) 95,74 %
13.01.2018 17:12 0,1 C 4,4 C 92 % 1024,2 hPa 0,0 l/m 20,0 km/h (4 Bft) NO 42 0 min 0,000 mm 0,0 UV-I 0 W/m -1,0 C -9,5 C 30,6 km/h (5 Bft) 100,00 %
13.01.2018 17:14 0,1 C 4,4 C 92 % 1024,2 hPa 0,0 l/m 20,1 km/h (4 Bft) NO 52 0 min 0,000 mm 0,0 UV-I 0 W/m -1,0 C -9,5 C 29,0 km/h (5 Bft) 100,00 %
13.01.2018 17:16 0,1 C 4,4 C 92 % 1024,2 hPa 0,0 l/m 19,9 km/h (4 Bft) NO 55 0 min 0,000 mm 0,0 UV-I 0 W/m -1,0 C -9,5 C 25,7 km/h (4 Bft) 100,00 %
13.01.2018 17:18 0,1 C 4,4 C 92 % 1024,3 hPa 0,0 l/m 18,5 km/h (3 Bft) O-NO 78 0 min 0,000 mm 0,0 UV-I 0 W/m -1,0 C -8,8 C 30,6 km/h (5 Bft) 100,00 %
13.01.2018 17:20 0,1 C 4,4 C 92 % 1024,2 hPa 0,0 l/m 21,9 km/h (4 Bft) O-NO 78 0 min 0,000 mm 0,0 UV-I 0 W/m -1,0 C -10,3 C 29,0 km/h (5 Bft) 100,00 %
13.01.2018 17:22 0,1 C 4,4 C 92 % 1024,3 hPa 0,0 l/m 19,3 km/h (3 Bft) O-NO 63 0 min 0,000 mm 0,0 UV-I 0 W/m -1,0 C -9,2 C 27,4 km/h (4 Bft) 100,00 %
13.01.2018 17:24 0,0 C 4,4 C 92 % 1024,3 hPa 0,0 l/m 17,3 km/h (3 Bft) NO 46 0 min 0,000 mm 0,0 UV-I 0 W/m -1,1 C -8,3 C 25,7 km/h (4 Bft) 98,00 %
13.01.2018 17:26 0,0 C 4,4 C 92 % 1024,3 hPa 0,0 l/m 15,2 km/h (3 Bft) O-NO 73 0 min 0,000 mm 0,0 UV-I 0 W/m -1,1 C -7,1 C 20,9 km/h (4 Bft) 100,00 %
13.01.2018 17:28 0,1 C 4,4 C 92 % 1024,3 hPa 0,0 l/m 13,9 km/h (3 Bft) O-NO 69 0 min 0,000 mm 0,0 UV-I 0 W/m -1,0 C -6,2 C 19,3 km/h (3 Bft) 100,00 %
13.01.2018 17:30 0,0 C 4,4 C 92 % 1024,3 hPa 0,0 l/m 17,7 km/h (3 Bft) O-NO 65 0 min 0,000 mm 0,0 UV-I 0 W/m -1,1 C -8,5 C 22,5 km/h (4 Bft) 100,00 %
13.01.2018 17:32 0,0 C 4,4 C 92 % 1024,3 hPa 0,0 l/m 15,3 km/h (3 Bft) NO 48 0 min 0,000 mm 0,0 UV-I 0 W/m -1,1 C -7,2 C 19,3 km/h (3 Bft) 100,00 %
13.01.2018 17:34 0,0 C 4,4 C 92 % 1024,3 hPa 0,0 l/m 14,0 km/h (3 Bft) O-NO 69 0 min 0,000 mm 0,0 UV-I 0 W/m -1,1 C -6,4 C 19,3 km/h (3 Bft) 97,87 %
13.01.2018 17:36 0,0 C 4,4 C 92 % 1024,3 hPa 0,0 l/m 18,6 km/h (3 Bft) NO 39 0 min 0,000 mm 0,0 UV-I 0 W/m -1,1 C -9,0 C 25,7 km/h (4 Bft) 98,21 %
13.01.2018 17:38 0,0 C 4,4 C 92 % 1024,3 hPa 0,0 l/m 15,0 km/h (3 Bft) NO 47 0 min 0,000 mm 0,0 UV-I 0 W/m -1,1 C -7,0 C 20,9 km/h (4 Bft) 100,00 %
13.01.2018 17:40 0,0 C 4,4 C 92 % 1024,3 hPa 0,0 l/m 20,4 km/h (4 Bft) NO 48 0 min 0,000 mm 0,0 UV-I 0 W/m -1,1 C -9,8 C 29,0 km/h (5 Bft) 100,00 %
13.01.2018 17:42 0,0 C 4,4 C 92 % 1024,3 hPa 0,0 l/m 16,9 km/h (3 Bft) O-NO 69 0 min 0,000 mm 0,0 UV-I 0 W/m -1,1 C -8,1 C 20,9 km/h (4 Bft) 100,00 %
13.01.2018 17:44 0,0 C 4,4 C 92 % 1024,3 hPa 0,0 l/m 14,3 km/h (3 Bft) O-NO 61 0 min 0,000 mm 0,0 UV-I 0 W/m -1,1 C -6,6 C 19,3 km/h (3 Bft) 98,39 %
13.01.2018 17:46 0,0 C 4,4 C 92 % 1024,3 hPa 0,0 l/m 14,8 km/h (3 Bft) O-NO 60 0 min 0,000 mm 0,0 UV-I 0 W/m -1,1 C -6,9 C 25,7 km/h (4 Bft) 97,87 %
13.01.2018 17:48 0,0 C 4,4 C 92 % 1024,3 hPa 0,0 l/m 17,6 km/h (3 Bft) NO 51 0 min 0,000 mm 0,0 UV-I 0 W/m -1,1 C -8,4 C 24,1 km/h (4 Bft) 97,87 %
13.01.2018 17:50 0,0 C 4,4 C 92 % 1024,3 hPa 0,0 l/m 18,6 km/h (3 Bft) O-NO 58 0 min 0,000 mm 0,0 UV-I 0 W/m -1,1 C -9,0 C 27,4 km/h (4 Bft) 98,00 %
13.01.2018 17:52 0,0 C 4,4 C 92 % 1024,3 hPa 0,0 l/m 13,8 km/h (3 Bft) O-NO 57 0 min 0,000 mm 0,0 UV-I 0 W/m -1,1 C -6,2 C 19,3 km/h (3 Bft) 96,00 %
13.01.2018 17:54 0,0 C 4,4 C 92 % 1024,3 hPa 0,0 l/m 14,8 km/h (3 Bft) NO 47 0 min 0,000 mm 0,0 UV-I 0 W/m -1,1 C -6,9 C 20,9 km/h (4 Bft) 97,56 %
13.01.2018 17:56 -0,1 C 4,4 C 92 % 1024,3 hPa 0,0 l/m 20,5 km/h (4 Bft) O-NO 62 0 min 0,000 mm 0,0 UV-I 0 W/m -1,2 C -10,0 C 29,0 km/h (5 Bft) 96,23 %
13.01.2018 17:58 -0,1 C 4,4 C 92 % 1024,3 hPa 0,0 l/m 18,4 km/h (3 Bft) NO 46 0 min 0,000 mm 0,0 UV-I 0 W/m -1,2 C -9,0 C 24,1 km/h (4 Bft) 94,74 %
13.01.2018 18:00 -0,1 C 4,4 C 92 % 1024,3 hPa 0,0 l/m 16,4 km/h (3 Bft) NO 52 0 min 0,000 mm 0,0 UV-I 0 W/m -1,2 C -7,9 C 25,7 km/h (4 Bft) 93,62 %
13.01.2018 18:02 0,0 C 4,4 C 91 % 1024,3 hPa 0,0 l/m 19,6 km/h (3 Bft) O-NO 74 0 min 0,000 mm 0,0 UV-I 0 W/m -1,3 C -9,4 C 25,7 km/h (4 Bft) 98,00 %
13.01.2018 18:04 0,0 C 4,4 C 91 % 1024,3 hPa 0,0 l/m 16,8 km/h (3 Bft) O-NO 71 0 min 0,000 mm 0,0 UV-I 0 W/m -1,3 C -8,0 C 24,1 km/h (4 Bft) 98,00 %
13.01.2018 18:06 0,0 C 4,4 C 91 % 1024,4 hPa 0,0 l/m 14,6 km/h (3 Bft) O-NO 57 0 min 0,000 mm 0,0 UV-I 0 W/m -1,3 C -6,7 C 20,9 km/h (4 Bft) 97,37 %
13.01.2018 18:08 0,0 C 4,4 C 91 % 1024,3 hPa 0,0 l/m 13,0 km/h (3 Bft) NO 44 0 min 0,000 mm 0,0 UV-I 0 W/m -1,3 C -5,7 C 20,9 km/h (4 Bft) 98,11 %
13.01.2018 18:10 -0,1 C 4,4 C 91 % 1024,3 hPa 0,0 l/m 12,4 km/h (3 Bft) O-NO 78 0 min 0,000 mm 0,0 UV-I 0 W/m -1,4 C -5,4 C 16,1 km/h (3 Bft) 97,73 %
13.01.2018 18:12 0,0 C 4,4 C 91 % 1024,3 hPa 0,0 l/m 17,5 km/h (3 Bft) NO 56 0 min 0,000 mm 0,0 UV-I 0 W/m -1,3 C -8,4 C 22,5 km/h (4 Bft) 96,43 %
13.01.2018 18:14 0,0 C 4,4 C 91 % 1024,3 hPa 0,0 l/m 15,3 km/h (3 Bft) NO 52 0 min 0,000 mm 0,0 UV-I 0 W/m -1,3 C -7,2 C 20,9 km/h (4 Bft) 95,12 %
13.01.2018 18:16 0,0 C 4,4 C 91 % 1024,3 hPa 0,0 l/m 16,4 km/h (3 Bft) NO 52 0 min 0,000 mm 0,0 UV-I 0 W/m -1,3 C -7,8 C 24,1 km/h (4 Bft) 96,23 %
13.01.2018 18:18 0,0 C 4,4 C 91 % 1024,4 hPa 0,0 l/m 14,3 km/h (3 Bft) NO 46 0 min 0,000 mm 0,0 UV-I 0 W/m -1,3 C -6,6 C 22,5 km/h (4 Bft) 100,00 %
13.01.2018 18:20 0,0 C 4,4 C 90 % 1024,3 hPa 0,0 l/m 16,3 km/h (3 Bft) O-NO 63 0 min 0,000 mm 0,0 UV-I 0 W/m -1,4 C -7,7 C 19,3 km/h (3 Bft) 97,87 %
13.01.2018 18:22 0,1 C 4,4 C 90 % 1024,3 hPa 0,0 l/m 16,0 km/h (3 Bft) NO 52 0 min 0,000 mm 0,0 UV-I 0 W/m -1,3 C -7,4 C 20,9 km/h (4 Bft) 100,00 %
13.01.2018 18:24 0,1 C 4,4 C 90 % 1024,3 hPa 0,0 l/m 14,4 km/h (3 Bft) NO 55 0 min 0,000 mm 0,0 UV-I 0 W/m -1,3 C -6,5 C 24,1 km/h (4 Bft) 100,00 %
13.01.2018 18:26 0,1 C 4,4 C 90 % 1024,3 hPa 0,0 l/m 16,5 km/h (3 Bft) NO 56 0 min 0,000 mm 0,0 UV-I 0 W/m -1,3 C -7,7 C 25,7 km/h (4 Bft) 100,00 %
13.01.2018 18:28 0,1 C 4,4 C 90 % 1024,3 hPa 0,0 l/m 16,6 km/h (3 Bft) O-NO 78 0 min 0,000 mm 0,0 UV-I 0 W/m -1,3 C -7,8 C 22,5 km/h (4 Bft) 100,00 %
13.01.2018 18:30 0,1 C 4,4 C 89 % 1024,4 hPa 0,0 l/m 21,2 km/h (4 Bft) O-NO 68 0 min 0,000 mm 0,0 UV-I 0 W/m -1,5 C -10,0 C 33,8 km/h (5 Bft) 100,00 %
13.01.2018 18:32 0,1 C 4,4 C 89 % 1024,3 hPa 0,0 l/m 22,6 km/h (4 Bft) NO 46 0 min 0,000 mm 0,0 UV-I 0 W/m -1,5 C -10,6 C 32,2 km/h (5 Bft) 100,00 %
13.01.2018 18:34 0,1 C 4,4 C 89 % 1024,3 hPa 0,0 l/m 17,5 km/h (3 Bft) NO 55 0 min 0,000 mm 0,0 UV-I 0 W/m -1,5 C -8,3 C 27,4 km/h (4 Bft) 100,00 %
13.01.2018 18:36 0,1 C 4,4 C 89 % 1024,4 hPa 0,0 l/m 19,4 km/h (3 Bft) O-NO 64 0 min 0,000 mm 0,0 UV-I 0 W/m -1,5 C -9,2 C 27,4 km/h (4 Bft) 98,21 %
13.01.2018 18:38 0,1 C 4,4 C 89 % 1024,3 hPa 0,0 l/m 19,8 km/h (3 Bft) NO 41 0 min 0,000 mm 0,0 UV-I 0 W/m -1,5 C -9,4 C 25,7 km/h (4 Bft) 100,00 %
13.01.2018 18:40 0,1 C 4,4 C 89 % 1024,3 hPa 0,0 l/m 18,7 km/h (3 Bft) NO 46 0 min 0,000 mm 0,0 UV-I 0 W/m -1,5 C -8,9 C 30,6 km/h (5 Bft) 100,00 %
13.01.2018 18:42 0,1 C 4,4 C 89 % 1024,3 hPa 0,0 l/m 17,4 km/h (3 Bft) NO 49 0 min 0,000 mm 0,0 UV-I 0 W/m -1,5 C -8,2 C 25,7 km/h (4 Bft) 97,56 %
13.01.2018 18:44 0,1 C 4,4 C 89 % 1024,3 hPa 0,0 l/m 23,2 km/h (4 Bft) O-NO 57 0 min 0,000 mm 0,0 UV-I 0 W/m -1,5 C -10,9 C 33,8 km/h (5 Bft) 95,12 %
13.01.2018 18:46 0,1 C 4,4 C 89 % 1024,3 hPa 0,0 l/m 20,8 km/h (4 Bft) O-NO 73 0 min 0,000 mm 0,0 UV-I 0 W/m -1,5 C -9,9 C 29,0 km/h (5 Bft) 97,62 %
13.01.2018 18:48 0,1 C 4,4 C 89 % 1024,3 hPa 0,0 l/m 19,5 km/h (3 Bft) O-NO 60 0 min 0,000 mm 0,0 UV-I 0 W/m -1,5 C -9,3 C 24,1 km/h (4 Bft) 98,51 %
13.01.2018 18:50 0,1 C 4,4 C 89 % 1024,3 hPa 0,0 l/m 15,1 km/h (3 Bft) NO 54 0 min 0,000 mm 0,0 UV-I 0 W/m -1,5 C -6,9 C 25,7 km/h (4 Bft) 100,00 %
13.01.2018 18:52 0,1 C 4,4 C 90 % 1024,3 hPa 0,0 l/m 16,7 km/h (3 Bft) O-NO 67 0 min 0,000 mm 0,0 UV-I 0 W/m -1,3 C -7,8 C 24,1 km/h (4 Bft) 100,00 %
13.01.2018 18:54 0,1 C 4,4 C 90 % 1024,3 hPa 0,0 l/m 17,1 km/h (3 Bft) O-NO 78 0 min 0,000 mm 0,0 UV-I 0 W/m -1,3 C -8,1 C 24,1 km/h (4 Bft) 100,00 %
13.01.2018 18:56 0,1 C 4,4 C 89 % 1024,3 hPa 0,0 l/m 15,0 km/h (3 Bft) O-NO 61 0 min 0,000 mm 0,0 UV-I 0 W/m -1,5 C -6,9 C 24,1 km/h (4 Bft) 100,00 %
13.01.2018 18:58 0,1 C 4,4 C 90 % 1024,3 hPa 0,0 l/m 18,2 km/h (3 Bft) NO 54 0 min 0,000 mm 0,0 UV-I 0 W/m -1,3 C -8,6 C 29,0 km/h (5 Bft) 100,00 %
13.01.2018 19:00 0,1 C 4,4 C 89 % 1024,3 hPa 0,0 l/m 19,6 km/h (3 Bft) O-NO 72 0 min 0,025 mm 0,0 UV-I 0 W/m -1,5 C -9,3 C 30,6 km/h (5 Bft) 100,00 %
13.01.2018 19:02 0,1 C 4,4 C 89 % 1024,3 hPa 0,0 l/m 15,0 km/h (3 Bft) O 82 0 min 0,000 mm 0,0 UV-I 0 W/m -1,5 C -6,9 C 20,9 km/h (4 Bft) 100,00 %
13.01.2018 19:04 0,1 C 4,4 C 90 % 1024,2 hPa 0,0 l/m 13,8 km/h (3 Bft) NO 54 0 min 0,000 mm 0,0 UV-I 0 W/m -1,3 C -6,1 C 20,9 km/h (4 Bft) 100,00 %
13.01.2018 19:06 0,1 C 4,4 C 89 % 1024,2 hPa 0,0 l/m 20,5 km/h (4 Bft) O-NO 71 0 min 0,000 mm 0,0 UV-I 0 W/m -1,5 C -9,7 C 29,0 km/h (5 Bft) 97,87 %
13.01.2018 19:08 0,1 C 4,4 C 89 % 1024,2 hPa 0,0 l/m 18,0 km/h (3 Bft) O-NO 61 0 min 0,000 mm 0,0 UV-I 0 W/m -1,5 C -8,5 C 32,2 km/h (5 Bft) 100,00 %
13.01.2018 19:10 0,1 C 4,4 C 89 % 1024,2 hPa 0,0 l/m 18,1 km/h (3 Bft) O 90 0 min 0,000 mm 0,0 UV-I 0 W/m -1,5 C -8,6 C 29,0 km/h (5 Bft) 100,00 %
13.01.2018 19:12 0,1 C 4,4 C 89 % 1024,2 hPa 0,0 l/m 16,1 km/h (3 Bft) O-NO 66 0 min 0,000 mm 0,0 UV-I 0 W/m -1,5 C -7,5 C 20,9 km/h (4 Bft) 100,00 %
13.01.2018 19:14 0,1 C 4,4 C 89 % 1024,2 hPa 0,0 l/m 13,2 km/h (3 Bft) O-NO 57 0 min 0,000 mm 0,0 UV-I 0 W/m -1,5 C -5,7 C 19,3 km/h (3 Bft) 100,00 %
13.01.2018 19:16 0,1 C 4,4 C 89 % 1024,1 hPa 0,0 l/m 14,8 km/h (3 Bft) O-NO 58 0 min 0,000 mm 0,0 UV-I 0 W/m -1,5 C -6,7 C 22,5 km/h (4 Bft) 97,56 %
13.01.2018 19:18 0,1 C 4,4 C 89 % 1024,1 hPa 0,0 l/m 14,6 km/h (3 Bft) O-NO 65 0 min 0,000 mm 0,0 UV-I 0 W/m -1,5 C -6,6 C 22,5 km/h (4 Bft) 96,23 %
13.01.2018 19:20 0,1 C 4,4 C 89 % 1024,1 hPa 0,0 l/m 16,0 km/h (3 Bft) NO 52 0 min 0,000 mm 0,0 UV-I 0 W/m -1,5 C -7,4 C 19,3 km/h (3 Bft) 97,62 %
13.01.2018 19:22 0,1 C 4,4 C 89 % 1024,0 hPa 0,0 l/m 14,0 km/h (3 Bft) O-NO 71 0 min 0,000 mm 0,0 UV-I 0 W/m -1,5 C -6,2 C 19,3 km/h (3 Bft) 98,11 %
13.01.2018 19:24 0,1 C 4,4 C 89 % 1024,0 hPa 0,0 l/m 15,0 km/h (3 Bft) O-NO 63 0 min 0,000 mm 0,0 UV-I 0 W/m -1,5 C -6,9 C 20,9 km/h (4 Bft) 97,56 %
13.01.2018 19:26 0,1 C 4,4 C 89 % 1024,0 hPa 0,0 l/m 12,6 km/h (3 Bft) NO 44 0 min 0,000 mm 0,0 UV-I 0 W/m -1,5 C -5,3 C 19,3 km/h (3 Bft) 98,00 %
13.01.2018 19:29 0,1 C 4,4 C 89 % 1024,0 hPa 0,0 l/m 17,6 km/h (3 Bft) O-NO 74 0 min 0,000 mm 0,0 UV-I 0 W/m -1,5 C -8,3 C 25,7 km/h (4 Bft) 94,03 %
13.01.2018 19:30 0,1 C 4,4 C 89 % 1024,0 hPa 0,0 l/m 17,8 km/h (3 Bft) O 84 0 min 0,000 mm 0,0 UV-I 0 W/m -1,5 C -8,4 C 22,5 km/h (4 Bft) 96,30 %
13.01.2018 19:32 0,2 C 4,4 C 89 % 1024,0 hPa 0,0 l/m 16,5 km/h (3 Bft) O-NO 59 0 min 0,000 mm 0,0 UV-I 0 W/m -1,4 C -7,6 C 25,7 km/h (4 Bft) 98,21 %
13.01.2018 19:34 0,2 C 4,4 C 89 % 1023,9 hPa 0,0 l/m 18,6 km/h (3 Bft) O-NO 76 0 min 0,000 mm 0,0 UV-I 0 W/m -1,4 C -8,7 C 27,4 km/h (4 Bft) 97,56 %
13.01.2018 19:36 0,2 C 4,4 C 89 % 1024,0 hPa 0,0 l/m 22,2 km/h (4 Bft) O-NO 64 0 min 0,000 mm 0,0 UV-I 0 W/m -1,4 C -10,3 C 29,0 km/h (5 Bft) 98,00 %
13.01.2018 19:38 0,1 C 4,4 C 89 % 1024,0 hPa 0,0 l/m 25,5 km/h (4 Bft) O-NO 74 0 min 0,000 mm 0,0 UV-I 0 W/m -1,5 C -11,8 C 35,4 km/h (5 Bft) 97,37 %
13.01.2018 19:40 0,2 C 4,4 C 89 % 1024,0 hPa 0,0 l/m 23,0 km/h (4 Bft) O-NO 72 0 min 0,000 mm 0,0 UV-I 0 W/m -1,4 C -10,7 C 33,8 km/h (5 Bft) 98,00 %
13.01.2018 19:42 0,2 C 4,4 C 89 % 1024,0 hPa 0,0 l/m 21,2 km/h (4 Bft) O-NO 74 0 min 0,000 mm 0,0 UV-I 0 W/m -1,4 C -9,9 C 30,6 km/h (5 Bft) 98,00 %
13.01.2018 19:44 0,2 C 4,4 C 89 % 1024,0 hPa 0,0 l/m 16,4 km/h (3 Bft) O-NO 61 0 min 0,000 mm 0,0 UV-I 0 W/m -1,4 C -7,5 C 24,1 km/h (4 Bft) 97,87 %
13.01.2018 19:46 0,2 C 4,4 C 89 % 1024,0 hPa 0,0 l/m 21,5 km/h (4 Bft) O-NO 78 0 min 0,000 mm 0,0 UV-I 0 W/m -1,4 C -10,0 C 29,0 km/h (5 Bft) 95,12 %
13.01.2018 19:48 0,2 C 4,4 C 89 % 1023,9 hPa 0,0 l/m 20,9 km/h (4 Bft) O-NO 68 0 min 0,000 mm 0,0 UV-I 0 W/m -1,4 C -9,8 C 29,0 km/h (5 Bft) 94,34 %
13.01.2018 19:50 0,2 C 4,4 C 89 % 1024,0 hPa 0,0 l/m 23,4 km/h (4 Bft) NO 47 0 min 0,000 mm 0,0 UV-I 0 W/m -1,4 C -10,8 C 32,2 km/h (5 Bft) 94,00 %
13.01.2018 19:52 0,2 C 4,4 C 89 % 1023,9 hPa 0,0 l/m 21,3 km/h (4 Bft) O-NO 68 0 min 0,000 mm 0,0 UV-I 0 W/m -1,4 C -10,0 C 30,6 km/h (5 Bft) 94,87 %
13.01.2018 19:54 0,2 C 4,4 C 89 % 1023,9 hPa 0,0 l/m 23,1 km/h (4 Bft) O-NO 71 0 min 0,000 mm 0,0 UV-I 0 W/m -1,4 C -10,7 C 32,2 km/h (5 Bft) 96,23 %
13.01.2018 19:56 0,1 C 4,4 C 90 % 1023,9 hPa 0,0 l/m 18,2 km/h (3 Bft) O-NO 65 0 min 0,000 mm 0,0 UV-I 0 W/m -1,3 C -8,6 C 24,1 km/h (4 Bft) 96,00 %
13.01.2018 19:58 0,2 C 4,4 C 90 % 1023,9 hPa 0,0 l/m 21,0 km/h (4 Bft) O-NO 63 0 min 0,000 mm 0,0 UV-I 0 W/m -1,2 C -9,8 C 33,8 km/h (5 Bft) 94,74 %
13.01.2018 20:00 0,2 C 4,4 C 90 % 1023,9 hPa 0,0 l/m 23,4 km/h (4 Bft) O 87 0 min 0,000 mm 0,0 UV-I 0 W/m -1,2 C -10,8 C 33,8 km/h (5 Bft) 92,00 %
13.01.2018 20:02 0,1 C 4,4 C 90 % 1023,8 hPa 0,0 l/m 21,4 km/h (4 Bft) NO 53 0 min 0,025 mm 0,0 UV-I 0 W/m -1,3 C -10,1 C 27,4 km/h (4 Bft) 92,45 %
13.01.2018 20:04 0,1 C 4,4 C 90 % 1023,8 hPa 0,0 l/m 20,8 km/h (4 Bft) O 91 0 min 0,000 mm 0,0 UV-I 0 W/m -1,3 C -9,9 C 29,0 km/h (5 Bft) 92,11 %
13.01.2018 20:06 0,1 C 4,4 C 90 % 1023,8 hPa 0,0 l/m 18,9 km/h (3 Bft) O 79 0 min 0,000 mm 0,0 UV-I 0 W/m -1,3 C -9,0 C 29,0 km/h (5 Bft) 96,23 %
13.01.2018 20:08 0,1 C 4,4 C 90 % 1023,8 hPa 0,0 l/m 22,8 km/h (4 Bft) O-NO 59 0 min 0,000 mm 0,0 UV-I 0 W/m -1,3 C -10,7 C 30,6 km/h (5 Bft) 94,74 %
13.01.2018 20:10 0,1 C 4,4 C 90 % 1023,9 hPa 0,0 l/m 21,5 km/h (4 Bft) NO 55 0 min 0,000 mm 0,0 UV-I 0 W/m -1,3 C -10,2 C 29,0 km/h (5 Bft) 93,62 %
13.01.2018 20:12 0,1 C 4,4 C 90 % 1023,9 hPa 0,0 l/m 20,1 km/h (4 Bft) O 87 0 min 0,000 mm 0,0 UV-I 0 W/m -1,3 C -9,5 C 27,4 km/h (4 Bft) 94,34 %
13.01.2018 20:14 0,1 C 4,4 C 90 % 1023,9 hPa 0,0 l/m 21,8 km/h (4 Bft) O-NO 77 0 min 0,000 mm 0,0 UV-I 0 W/m -1,3 C -10,3 C 27,4 km/h (4 Bft) 97,37 %
13.01.2018 20:16 0,1 C 4,4 C 90 % 1023,9 hPa 0,0 l/m 18,5 km/h (3 Bft) O-NO 59 0 min 0,000 mm 0,0 UV-I 0 W/m -1,3 C -8,8 C 27,4 km/h (4 Bft) 92,00 %
13.01.2018 20:18 0,1 C 4,4 C 90 % 1023,9 hPa 0,0 l/m 17,0 km/h (3 Bft) NO 49 0 min 0,000 mm 0,0 UV-I 0 W/m -1,3 C -8,0 C 24,1 km/h (4 Bft) 93,62 %
13.01.2018 20:20 0,1 C 4,4 C 90 % 1023,9 hPa 0,0 l/m 17,6 km/h (3 Bft) O-NO 65 0 min 0,000 mm 0,0 UV-I 0 W/m -1,3 C -8,3 C 29,0 km/h (5 Bft) 96,00 %
13.01.2018 20:22 0,1 C 4,4 C 91 % 1023,8 hPa 0,0 l/m 18,4 km/h (3 Bft) O-NO 65 0 min 0,000 mm 0,0 UV-I 0 W/m -1,2 C -8,7 C 32,2 km/h (5 Bft) 95,74 %
13.01.2018 20:24 0,1 C 4,4 C 90 % 1023,7 hPa 0,0 l/m 25,2 km/h (4 Bft) O-NO 57 0 min 0,000 mm 0,0 UV-I 0 W/m -1,3 C -11,7 C 33,8 km/h (5 Bft) 97,87 %
13.01.2018 20:26 0,1 C 4,4 C 90 % 1023,6 hPa 0,0 l/m 17,5 km/h (3 Bft) O-NO 71 0 min 0,000 mm 0,0 UV-I 0 W/m -1,3 C -8,3 C 22,5 km/h (4 Bft) 100,00 %
13.01.2018 20:28 0,2 C 4,4 C 91 % 1023,7 hPa 0,0 l/m 16,8 km/h (3 Bft) O-NO 73 0 min 0,000 mm 0,0 UV-I 0 W/m -1,1 C -7,8 C 22,5 km/h (4 Bft) 100,00 %
13.01.2018 20:30 0,2 C 4,4 C 91 % 1023,7 hPa 0,0 l/m 19,5 km/h (3 Bft) O-NO 74 0 min 0,000 mm 0,0 UV-I 0 W/m -1,1 C -9,1 C 24,1 km/h (4 Bft) 98,00 %
13.01.2018 20:32 0,2 C 4,4 C 91 % 1023,7 hPa 0,0 l/m 16,1 km/h (3 Bft) O 80 0 min 0,000 mm 0,0 UV-I 0 W/m -1,1 C -7,4 C 24,1 km/h (4 Bft) 97,56 %
13.01.2018 20:34 0,1 C 4,4 C 91 % 1023,7 hPa 0,0 l/m 20,6 km/h (4 Bft) O-NO 63 0 min 0,000 mm 0,0 UV-I 0 W/m -1,2 C -9,8 C 25,7 km/h (4 Bft) 100,00 %
13.01.2018 20:36 0,2 C 4,4 C 91 % 1023,6 hPa 0,0 l/m 19,7 km/h (3 Bft) O 82 0 min 0,000 mm 0,0 UV-I 0 W/m -1,1 C -9,2 C 29,0 km/h (5 Bft) 100,00 %
13.01.2018 20:38 0,2 C 4,4 C 91 % 1023,8 hPa 0,0 l/m 19,0 km/h (3 Bft) NO 53 0 min 0,000 mm 0,0 UV-I 0 W/m -1,1 C -8,9 C 27,4 km/h (4 Bft) 100,00 %
13.01.2018 20:40 0,2 C 4,4 C 91 % 1023,8 hPa 0,0 l/m 25,3 km/h (4 Bft) NO 51 0 min 0,000 mm 0,0 UV-I 0 W/m -1,1 C -11,6 C 35,4 km/h (5 Bft) 100,00 %
13.01.2018 20:42 0,2 C 4,4 C 91 % 1023,8 hPa 0,0 l/m 22,1 km/h (4 Bft) O-NO 76 0 min 0,000 mm 0,0 UV-I 0 W/m -1,1 C -10,3 C 32,2 km/h (5 Bft) 100,00 %
13.01.2018 20:44 0,2 C 4,4 C 91 % 1023,7 hPa 0,0 l/m 18,9 km/h (3 Bft) NO 55 0 min 0,000 mm 0,0 UV-I 0 W/m -1,1 C -8,8 C 27,4 km/h (4 Bft) 100,00 %
13.01.2018 20:46 0,2 C 4,4 C 91 % 1023,7 hPa 0,0 l/m 19,2 km/h (3 Bft) O-NO 69 0 min 0,000 mm 0,0 UV-I 0 W/m -1,1 C -9,0 C 30,6 km/h (5 Bft) 100,00 %
13.01.2018 20:48 0,2 C 4,4 C 91 % 1023,7 hPa 0,0 l/m 23,9 km/h (4 Bft) O-NO 74 0 min 0,000 mm 0,0 UV-I 0 W/m -1,1 C -11,0 C 32,2 km/h (5 Bft) 100,00 %
13.01.2018 20:50 0,2 C 4,4 C 91 % 1023,7 hPa 0,0 l/m 21,2 km/h (4 Bft) NO 55 0 min 0,000 mm 0,0 UV-I 0 W/m -1,1 C -9,9 C 27,4 km/h (4 Bft) 100,00 %
13.01.2018 20:52 0,2 C 4,4 C 91 % 1023,7 hPa 0,0 l/m 20,6 km/h (4 Bft) O 87 0 min 0,000 mm 0,0 UV-I 0 W/m -1,1 C -9,6 C 29,0 km/h (5 Bft) 94,00 %
13.01.2018 20:54 0,2 C 4,4 C 91 % 1023,7 hPa 0,0 l/m 22,3 km/h (4 Bft) O-NO 67 0 min 0,000 mm 0,0 UV-I 0 W/m -1,1 C -10,4 C 27,4 km/h (4 Bft) 100,00 %
13.01.2018 20:56 0,2 C 4,4 C 91 % 1023,7 hPa 0,0 l/m 21,5 km/h (4 Bft) O-NO 61 0 min 0,000 mm 0,0 UV-I 0 W/m -1,1 C -10,0 C 29,0 km/h (5 Bft) 100,00 %
13.01.2018 20:58 0,2 C 4,4 C 91 % 1023,7 hPa 0,0 l/m 20,1 km/h (4 Bft) O-NO 74 0 min 0,000 mm 0,0 UV-I 0 W/m -1,1 C -9,4 C 30,6 km/h (5 Bft) 100,00 %
13.01.2018 21:00 0,2 C 4,4 C 91 % 1023,7 hPa 0,0 l/m 19,1 km/h (3 Bft) O-NO 69 0 min 0,026 mm 0,0 UV-I 0 W/m -1,1 C -8,9 C 25,7 km/h (4 Bft) 100,00 %
13.01.2018 21:03 0,2 C 4,4 C 91 % 1023,7 hPa 0,0 l/m 18,6 km/h (3 Bft) O-NO 78 0 min 0,000 mm 0,0 UV-I 0 W/m -1,1 C -8,7 C 27,4 km/h (4 Bft) 100,00 %
13.01.2018 21:04 0,1 C 4,4 C 91 % 1023,7 hPa 0,0 l/m 17,2 km/h (3 Bft) NO 53 0 min 0,000 mm 0,0 UV-I 0 W/m -1,2 C -8,1 C 27,4 km/h (4 Bft) 96,30 %
13.01.2018 21:06 0,2 C 4,4 C 91 % 1023,7 hPa 0,0 l/m 17,7 km/h (3 Bft) O-NO 77 0 min 0,000 mm 0,0 UV-I 0 W/m -1,1 C -8,2 C 24,1 km/h (4 Bft) 97,87 %
13.01.2018 21:08 0,1 C 4,4 C 91 % 1023,7 hPa 0,0 l/m 20,8 km/h (4 Bft) O-NO 64 0 min 0,000 mm 0,0 UV-I 0 W/m -1,2 C -9,9 C 27,4 km/h (4 Bft) 100,00 %
13.01.2018 21:10 0,2 C 4,4 C 91 % 1023,6 hPa 0,0 l/m 16,6 km/h (3 Bft) O-NO 75 0 min 0,000 mm 0,0 UV-I 0 W/m -1,1 C -7,7 C 27,4 km/h (4 Bft) 100,00 %
13.01.2018 21:12 0,2 C 4,4 C 91 % 1023,6 hPa 0,0 l/m 15,2 km/h (3 Bft) O 82 0 min 0,000 mm 0,0 UV-I 0 W/m -1,1 C -6,9 C 20,9 km/h (4 Bft) 100,00 %
13.01.2018 21:14 0,2 C 4,4 C 92 % 1023,5 hPa 0,0 l/m 16,7 km/h (3 Bft) O 92 0 min 0,000 mm 0,0 UV-I 0 W/m -0,9 C -7,7 C 24,1 km/h (4 Bft) 100,00 %
13.01.2018 21:16 0,1 C 4,4 C 92 % 1023,5 hPa 0,0 l/m 18,4 km/h (3 Bft) O 80 0 min 0,000 mm 0,0 UV-I 0 W/m -1,0 C -8,7 C 29,0 km/h (5 Bft) 100,00 %
13.01.2018 21:18 0,1 C 4,4 C 92 % 1023,5 hPa 0,0 l/m 23,2 km/h (4 Bft) O-NO 75 0 min 0,000 mm 0,0 UV-I 0 W/m -1,0 C -10,9 C 30,6 km/h (5 Bft) 100,00 %
13.01.2018 21:20 0,1 C 4,4 C 92 % 1023,5 hPa 0,0 l/m 25,2 km/h (4 Bft) O-NO 63 0 min 0,000 mm 0,0 UV-I 0 W/m -1,0 C -11,7 C 40,2 km/h (6 Bft) 100,00 %
13.01.2018 21:22 0,2 C 4,4 C 92 % 1023,4 hPa 0,0 l/m 22,3 km/h (4 Bft) O-NO 72 0 min 0,000 mm 0,0 UV-I 0 W/m -0,9 C -10,4 C 30,6 km/h (5 Bft) 100,00 %
13.01.2018 21:24 0,2 C 4,4 C 92 % 1023,4 hPa 0,0 l/m 21,6 km/h (4 Bft) O-NO 65 0 min 0,000 mm 0,0 UV-I 0 W/m -0,9 C -10,1 C 27,4 km/h (4 Bft) 98,00 %
13.01.2018 21:26 0,1 C 4,4 C 92 % 1023,3 hPa 0,0 l/m 19,5 km/h (3 Bft) O-NO 74 0 min 0,000 mm 0,0 UV-I 0 W/m -1,0 C -9,3 C 27,4 km/h (4 Bft) 97,14 %
13.01.2018 21:28 0,2 C 4,4 C 92 % 1023,3 hPa 0,0 l/m 20,3 km/h (4 Bft) NO 51 0 min 0,000 mm 0,0 UV-I 0 W/m -0,9 C -9,5 C 25,7 km/h (4 Bft) 100,00 %
13.01.2018 21:30 0,2 C 4,4 C 92 % 1023,3 hPa 0,0 l/m 17,4 km/h (3 Bft) O-NO 65 0 min 0,000 mm 0,0 UV-I 0 W/m -0,9 C -8,1 C 24,1 km/h (4 Bft) 97,56 %
13.01.2018 21:32 0,2 C 4,4 C 92 % 1023,3 hPa 0,0 l/m 16,1 km/h (3 Bft) O 94 0 min 0,000 mm 0,0 UV-I 0 W/m -0,9 C -7,4 C 22,5 km/h (4 Bft) 98,00 %
13.01.2018 21:34 0,2 C 4,4 C 92 % 1023,3 hPa 0,0 l/m 17,7 km/h (3 Bft) NO 54 0 min 0,000 mm 0,0 UV-I 0 W/m -0,9 C -8,2 C 24,1 km/h (4 Bft) 97,87 %
13.01.2018 21:36 0,2 C 4,4 C 92 % 1023,2 hPa 0,0 l/m 15,7 km/h (3 Bft) NO 55 0 min 0,000 mm 0,0 UV-I 0 W/m -0,9 C -7,2 C 24,1 km/h (4 Bft) 97,14 %
13.01.2018 21:38 0,2 C 4,4 C 92 % 1023,2 hPa 0,0 l/m 18,4 km/h (3 Bft) O-NO 71 0 min 0,000 mm 0,0 UV-I 0 W/m -0,9 C -8,6 C 24,1 km/h (4 Bft) 100,00 %
13.01.2018 21:40 0,2 C 4,4 C 92 % 1023,2 hPa 0,0 l/m 18,1 km/h (3 Bft) O-NO 59 0 min 0,000 mm 0,0 UV-I 0 W/m -0,9 C -8,5 C 27,4 km/h (4 Bft) 100,00 %
13.01.2018 21:42 0,2 C 4,4 C 92 % 1023,2 hPa 0,0 l/m 17,1 km/h (3 Bft) O-NO 70 0 min 0,000 mm 0,0 UV-I 0 W/m -0,9 C -7,9 C 22,5 km/h (4 Bft) 100,00 %
13.01.2018 21:44 0,2 C 4,4 C 92 % 1023,2 hPa 0,0 l/m 17,7 km/h (3 Bft) O-NO 62 0 min 0,000 mm 0,0 UV-I 0 W/m -0,9 C -8,2 C 25,7 km/h (4 Bft) 100,00 %
13.01.2018 21:46 0,1 C 4,4 C 93 % 1023,2 hPa 0,0 l/m 19,4 km/h (3 Bft) O 101 0 min 0,000 mm 0,0 UV-I 0 W/m -0,9 C -9,2 C 25,7 km/h (4 Bft) 100,00 %
13.01.2018 21:48 0,1 C 4,4 C 93 % 1023,2 hPa 0,0 l/m 17,3 km/h (3 Bft) O-NO 74 0 min 0,000 mm 0,0 UV-I 0 W/m -0,9 C -8,2 C 25,7 km/h (4 Bft) 100,00 %
13.01.2018 21:50 0,1 C 4,4 C 93 % 1023,2 hPa 0,0 l/m 12,7 km/h (3 Bft) O 87 0 min 0,000 mm 0,0 UV-I 0 W/m -0,9 C -5,4 C 16,1 km/h (3 Bft) 96,23 %
13.01.2018 21:52 0,1 C 4,4 C 93 % 1023,2 hPa 0,0 l/m 15,4 km/h (3 Bft) O-NO 70 0 min 0,000 mm 0,0 UV-I 0 W/m -0,9 C -7,1 C 22,5 km/h (4 Bft) 97,73 %
13.01.2018 21:54 0,2 C 4,4 C 93 % 1023,2 hPa 0,0 l/m 17,3 km/h (3 Bft) NO 56 0 min 0,000 mm 0,0 UV-I 0 W/m -0,8 C -8,0 C 22,5 km/h (4 Bft) 98,00 %
13.01.2018 21:56 0,2 C 4,4 C 93 % 1023,2 hPa 0,0 l/m 17,1 km/h (3 Bft) O 84 0 min 0,000 mm 0,0 UV-I 0 W/m -0,8 C -7,9 C 25,7 km/h (4 Bft) 97,44 %
13.01.2018 21:58 0,2 C 4,4 C 93 % 1023,2 hPa 0,0 l/m 16,4 km/h (3 Bft) O-NO 72 0 min 0,000 mm 0,0 UV-I 0 W/m -0,8 C -7,5 C 24,1 km/h (4 Bft) 96,23 %
13.01.2018 22:00 0,2 C 4,4 C 93 % 1023,2 hPa 0,0 l/m 18,7 km/h (3 Bft) O-NO 76 0 min 0,000 mm 0,0 UV-I 0 W/m -0,8 C -8,8 C 32,2 km/h (5 Bft) 95,83 %
13.01.2018 22:02 0,2 C 4,4 C 93 % 1023,2 hPa 0,0 l/m 15,7 km/h (3 Bft) O 94 0 min 0,000 mm 0,0 UV-I 0 W/m -0,8 C -7,2 C 20,9 km/h (4 Bft) 93,62 %
13.01.2018 22:04 0,2 C 4,4 C 93 % 1023,2 hPa 0,0 l/m 15,3 km/h (3 Bft) O 93 0 min 0,000 mm 0,0 UV-I 0 W/m -0,8 C -6,9 C 20,9 km/h (4 Bft) 93,62 %
13.01.2018 22:06 0,2 C 4,4 C 93 % 1023,2 hPa 0,0 l/m 15,8 km/h (3 Bft) O-NO 76 0 min 0,000 mm 0,0 UV-I 0 W/m -0,8 C -7,2 C 20,9 km/h (4 Bft) 97,37 %
13.01.2018 22:08 0,2 C 4,4 C 93 % 1023,2 hPa 0,0 l/m 16,1 km/h (3 Bft) NO 52 0 min 0,000 mm 0,0 UV-I 0 W/m -0,8 C -7,4 C 19,3 km/h (3 Bft) 96,43 %
13.01.2018 22:10 0,2 C 4,4 C 93 % 1023,2 hPa 0,0 l/m 19,4 km/h (3 Bft) O-NO 63 0 min 0,000 mm 0,0 UV-I 0 W/m -0,8 C -9,1 C 25,7 km/h (4 Bft) 97,37 %
13.01.2018 22:12 0,2 C 4,4 C 94 % 1023,2 hPa 0,0 l/m 18,4 km/h (3 Bft) NO 40 0 min 0,000 mm 0,0 UV-I 0 W/m -0,6 C -8,6 C 22,5 km/h (4 Bft) 98,00 %
13.01.2018 22:14 0,2 C 4,4 C 93 % 1023,2 hPa 0,0 l/m 15,1 km/h (3 Bft) NO 49 0 min 0,000 mm 0,0 UV-I 0 W/m -0,8 C -6,8 C 19,3 km/h (3 Bft) 96,23 %
13.01.2018 22:16 0,2 C 4,4 C 94 % 1023,1 hPa 0,0 l/m 17,8 km/h (3 Bft) NO 49 0 min 0,000 mm 0,0 UV-I 0 W/m -0,6 C -8,3 C 22,5 km/h (4 Bft) 95,74 %
13.01.2018 22:18 0,2 C 4,4 C 94 % 1023,2 hPa 0,0 l/m 18,5 km/h (3 Bft) O-NO 76 0 min 0,000 mm 0,0 UV-I 0 W/m -0,6 C -8,7 C 24,1 km/h (4 Bft) 95,74 %
13.01.2018 22:20 0,2 C 4,4 C 94 % 1023,2 hPa 0,0 l/m 16,5 km/h (3 Bft) O-NO 65 0 min 0,000 mm 0,0 UV-I 0 W/m -0,6 C -7,6 C 22,5 km/h (4 Bft) 97,56 %
13.01.2018 22:22 0,2 C 4,4 C 94 % 1023,2 hPa 0,0 l/m 16,8 km/h (3 Bft) O-NO 65 0 min 0,000 mm 0,0 UV-I 0 W/m -0,6 C -7,8 C 24,1 km/h (4 Bft) 96,00 %
13.01.2018 22:24 0,2 C 4,4 C 94 % 1023,3 hPa 0,0 l/m 16,6 km/h (3 Bft) O-NO 63 0 min 0,000 mm 0,0 UV-I 0 W/m -0,6 C -7,7 C 22,5 km/h (4 Bft) 96,23 %
13.01.2018 22:26 0,2 C 4,4 C 94 % 1023,3 hPa 0,0 l/m 15,2 km/h (3 Bft) O-NO 71 0 min 0,000 mm 0,0 UV-I 0 W/m -0,6 C -6,9 C 19,3 km/h (3 Bft) 100,00 %
13.01.2018 22:30 0,2 C 4,4 C 94 % 1023,3 hPa 0,0 l/m 13,7 km/h (3 Bft) O-NO 61 0 min 0,000 mm 0,0 UV-I 0 W/m -0,6 C -5,9 C 20,9 km/h (4 Bft) 100,00 %
13.01.2018 22:32 0,3 C 4,4 C 94 % 1023,3 hPa 0,0 l/m 11,7 km/h (2 Bft) NO 54 0 min 0,000 mm 0,0 UV-I 0 W/m -0,5 C -4,4 C 16,1 km/h (3 Bft) 100,00 %
13.01.2018 22:34 0,3 C 4,4 C 94 % 1023,3 hPa 0,0 l/m 15,1 km/h (3 Bft) O-NO 65 0 min 0,000 mm 0,0 UV-I 0 W/m -0,5 C -6,7 C 19,3 km/h (3 Bft) 98,18 %
13.01.2018 22:36 0,3 C 4,4 C 94 % 1023,3 hPa 0,0 l/m 14,6 km/h (3 Bft) O-NO 69 0 min 0,000 mm 0,0 UV-I 0 W/m -0,5 C -6,4 C 22,5 km/h (4 Bft) 100,00 %
13.01.2018 22:38 0,3 C 3,9 C 94 % 1023,3 hPa 0,0 l/m 15,2 km/h (3 Bft) NO 55 0 min 0,000 mm 0,0 UV-I 0 W/m -0,5 C -6,7 C 20,9 km/h (4 Bft) 98,11 %
13.01.2018 22:40 0,3 C 3,9 C 94 % 1023,2 hPa 0,0 l/m 14,7 km/h (3 Bft) NO 53 0 min 0,000 mm 0,0 UV-I 0 W/m -0,5 C -6,4 C 19,3 km/h (3 Bft) 100,00 %
13.01.2018 22:42 0,3 C 3,9 C 94 % 1023,2 hPa 0,0 l/m 14,8 km/h (3 Bft) O-NO 66 0 min 0,000 mm 0,0 UV-I 0 W/m -0,5 C -6,5 C 20,9 km/h (4 Bft) 95,12 %
13.01.2018 22:44 0,3 C 3,9 C 94 % 1023,2 hPa 0,0 l/m 16,3 km/h (3 Bft) O-NO 67 0 min 0,000 mm 0,0 UV-I 0 W/m -0,5 C -7,4 C 20,9 km/h (4 Bft) 100,00 %
13.01.2018 22:46 0,3 C 3,9 C 94 % 1023,2 hPa 0,0 l/m 15,3 km/h (3 Bft) O-NO 61 0 min 0,000 mm 0,0 UV-I 0 W/m -0,5 C -6,8 C 20,9 km/h (4 Bft) 100,00 %
13.01.2018 22:48 0,3 C 3,9 C 94 % 1023,2 hPa 0,0 l/m 14,0 km/h (3 Bft) O 99 0 min 0,000 mm 0,0 UV-I 0 W/m -0,5 C -6,0 C 22,5 km/h (4 Bft) 100,00 %
13.01.2018 22:50 0,3 C 4,4 C 94 % 1023,2 hPa 0,0 l/m 12,3 km/h (3 Bft) NO 55 0 min 0,000 mm 0,0 UV-I 0 W/m -0,5 C -4,9 C 17,7 km/h (3 Bft) 100,00 %
13.01.2018 22:52 0,3 C 4,4 C 94 % 1023,1 hPa 0,0 l/m 12,4 km/h (3 Bft) NO 47 0 min 0,000 mm 0,0 UV-I 0 W/m -0,5 C -4,9 C 19,3 km/h (3 Bft) 100,00 %
13.01.2018 22:54 0,3 C 4,4 C 94 % 1023,1 hPa 0,0 l/m 13,7 km/h (3 Bft) NO 48 0 min 0,000 mm 0,0 UV-I 0 W/m -0,5 C -5,8 C 17,7 km/h (3 Bft) 100,00 %
13.01.2018 22:56 0,3 C 4,4 C 94 % 1023,1 hPa 0,0 l/m 14,1 km/h (3 Bft) NO 53 0 min 0,000 mm 0,0 UV-I 0 W/m -0,5 C -6,1 C 20,9 km/h (4 Bft) 100,00 %
13.01.2018 22:58 0,3 C 4,4 C 94 % 1023,1 hPa 0,0 l/m 12,8 km/h (3 Bft) NO 38 0 min 0,000 mm 0,0 UV-I 0 W/m -0,5 C -5,2 C 17,7 km/h (3 Bft) 100,00 %
13.01.2018 23:00 0,4 C 3,9 C 94 % 1023,1 hPa 0,0 l/m 15,3 km/h (3 Bft) O-NO 67 0 min 0,000 mm 0,0 UV-I 0 W/m -0,5 C -6,7 C 19,3 km/h (3 Bft) 100,00 %
13.01.2018 23:02 0,4 C 3,9 C 94 % 1023,1 hPa 0,0 l/m 12,5 km/h (3 Bft) O-NO 76 0 min 0,000 mm 0,0 UV-I 0 W/m -0,5 C -4,9 C 19,3 km/h (3 Bft) 98,08 %
13.01.2018 23:04 0,4 C 4,4 C 94 % 1023,1 hPa 0,0 l/m 14,0 km/h (3 Bft) O-NO 78 0 min 0,000 mm 0,0 UV-I 0 W/m -0,5 C -5,9 C 20,9 km/h (4 Bft) 98,00 %
13.01.2018 23:06 0,4 C 3,9 C 94 % 1023,1 hPa 0,0 l/m 13,1 km/h (3 Bft) O 87 0 min 0,000 mm 0,0 UV-I 0 W/m -0,5 C -5,3 C 17,7 km/h (3 Bft) 97,87 %
13.01.2018 23:08 0,4 C 3,9 C 94 % 1023,1 hPa 0,0 l/m 11,5 km/h (2 Bft) O-NO 59 0 min 0,000 mm 0,0 UV-I 0 W/m -0,5 C -4,2 C 16,1 km/h (3 Bft) 100,00 %
13.01.2018 23:10 0,4 C 4,4 C 94 % 1023,1 hPa 0,0 l/m 11,9 km/h (2 Bft) O-NO 62 0 min 0,000 mm 0,0 UV-I 0 W/m -0,5 C -4,5 C 17,7 km/h (3 Bft) 100,00 %
13.01.2018 23:12 0,5 C 4,4 C 94 % 1023,1 hPa 0,0 l/m 15,4 km/h (3 Bft) O 79 0 min 0,000 mm 0,0 UV-I 0 W/m -0,4 C -6,6 C 22,5 km/h (4 Bft) 97,87 %
13.01.2018 23:14 0,5 C 3,9 C 94 % 1023,0 hPa 0,0 l/m 13,2 km/h (3 Bft) O-NO 65 0 min 0,000 mm 0,0 UV-I 0 W/m -0,4 C -5,2 C 17,7 km/h (3 Bft) 100,00 %
13.01.2018 23:16 0,5 C 3,9 C 94 % 1023,1 hPa 0,0 l/m 11,7 km/h (2 Bft) O-NO 72 0 min 0,000 mm 0,0 UV-I 0 W/m -0,4 C -4,2 C 16,1 km/h (3 Bft) 100,00 %
13.01.2018 23:18 0,4 C 3,9 C 94 % 1023,0 hPa 0,0 l/m 13,3 km/h (3 Bft) NO 49 0 min 0,000 mm 0,0 UV-I 0 W/m -0,5 C -5,4 C 17,7 km/h (3 Bft) 98,00 %
13.01.2018 23:20 0,5 C 3,9 C 94 % 1023,1 hPa 0,0 l/m 10,1 km/h (2 Bft) O-NO 75 0 min 0,000 mm 0,0 UV-I 0 W/m -0,4 C -3,0 C 16,1 km/h (3 Bft) 97,73 %
13.01.2018 23:22 0,5 C 3,9 C 94 % 1023,0 hPa 0,0 l/m 13,2 km/h (3 Bft) O-NO 67 0 min 0,000 mm 0,0 UV-I 0 W/m -0,4 C -5,2 C 17,7 km/h (3 Bft) 98,00 %
13.01.2018 23:24 0,5 C 3,9 C 94 % 1023,0 hPa 0,0 l/m 11,5 km/h (2 Bft) O-NO 76 0 min 0,000 mm 0,0 UV-I 0 W/m -0,4 C -4,1 C 17,7 km/h (3 Bft) 98,00 %
13.01.2018 23:26 0,6 C 3,9 C 94 % 1023,0 hPa 0,0 l/m 10,1 km/h (2 Bft) O-NO 69 0 min 0,000 mm 0,0 UV-I 0 W/m -0,3 C -2,9 C 17,7 km/h (3 Bft) 95,74 %
13.01.2018 23:28 0,6 C 3,9 C 94 % 1022,9 hPa 0,0 l/m 14,7 km/h (3 Bft) NO 53 0 min 0,000 mm 0,0 UV-I 0 W/m -0,3 C -6,1 C 19,3 km/h (3 Bft) 97,37 %
13.01.2018 23:30 0,6 C 3,9 C 94 % 1022,9 hPa 0,0 l/m 11,3 km/h (2 Bft) O 88 0 min 0,000 mm 0,0 UV-I 0 W/m -0,3 C -3,8 C 19,3 km/h (3 Bft) 97,87 %
13.01.2018 23:32 0,6 C 3,9 C 94 % 1022,9 hPa 0,0 l/m 8,8 km/h (2 Bft) NO 55 0 min 0,000 mm 0,0 UV-I 0 W/m -0,3 C -1,8 C 12,9 km/h (3 Bft) 98,00 %
13.01.2018 23:34 0,6 C 3,9 C 94 % 1022,9 hPa 0,0 l/m 10,2 km/h (2 Bft) NO 51 0 min 0,000 mm 0,0 UV-I 0 W/m -0,3 C -2,9 C 16,1 km/h (3 Bft) 97,56 %
13.01.2018 23:36 0,6 C 3,9 C 94 % 1022,8 hPa 0,0 l/m 13,7 km/h (3 Bft) NO 38 0 min 0,000 mm 0,0 UV-I 0 W/m -0,3 C -5,5 C 17,7 km/h (3 Bft) 96,23 %
13.01.2018 23:38 0,6 C 3,9 C 94 % 1022,8 hPa 0,0 l/m 12,5 km/h (3 Bft) O-NO 68 0 min 0,000 mm 0,0 UV-I 0 W/m -0,3 C -4,7 C 20,9 km/h (4 Bft) 97,73 %
13.01.2018 23:40 0,7 C 3,9 C 94 % 1022,8 hPa 0,0 l/m 13,3 km/h (3 Bft) O-NO 61 0 min 0,000 mm 0,0 UV-I 0 W/m -0,2 C -5,1 C 19,3 km/h (3 Bft) 98,00 %
13.01.2018 23:42 0,7 C 3,9 C 94 % 1022,8 hPa 0,0 l/m 13,4 km/h (3 Bft) O-NO 72 0 min 0,000 mm 0,0 UV-I 0 W/m -0,2 C -5,1 C 17,7 km/h (3 Bft) 97,87 %
13.01.2018 23:44 0,7 C 3,9 C 94 % 1022,7 hPa 0,0 l/m 14,8 km/h (3 Bft) O-NO 76 0 min 0,000 mm 0,0 UV-I 0 W/m -0,2 C -6,0 C 19,3 km/h (3 Bft) 98,00 %
13.01.2018 23:46 0,7 C 3,9 C 94 % 1022,7 hPa 0,0 l/m 15,8 km/h (3 Bft) O 86 0 min 0,000 mm 0,0 UV-I 0 W/m -0,2 C -6,6 C 25,7 km/h (4 Bft) 96,00 %
13.01.2018 23:48 0,7 C 3,9 C 94 % 1022,7 hPa 0,0 l/m 13,3 km/h (3 Bft) O-NO 67 0 min 0,000 mm 0,0 UV-I 0 W/m -0,2 C -5,1 C 17,7 km/h (3 Bft) 97,56 %
13.01.2018 23:50 0,7 C 3,9 C 94 % 1022,6 hPa 0,0 l/m 12,1 km/h (2 Bft) NO 53 0 min 0,000 mm 0,0 UV-I 0 W/m -0,2 C -4,3 C 17,7 km/h (3 Bft) 100,00 %
13.01.2018 23:52 0,7 C 3,9 C 94 % 1022,6 hPa 0,0 l/m 11,0 km/h (2 Bft) NO 51 0 min 0,000 mm 0,0 UV-I 0 W/m -0,2 C -3,5 C 16,1 km/h (3 Bft) 94,83 %
13.01.2018 23:54 0,7 C 3,9 C 94 % 1022,6 hPa 0,0 l/m 15,0 km/h (3 Bft) O-NO 57 0 min 0,000 mm 0,0 UV-I 0 W/m -0,2 C -6,1 C 19,3 km/h (3 Bft) 92,31 %
13.01.2018 23:56 0,7 C 3,9 C 94 % 1022,5 hPa 0,0 l/m 16,5 km/h (3 Bft) O-NO 65 0 min 0,000 mm 0,0 UV-I 0 W/m -0,2 C -7,0 C 20,9 km/h (4 Bft) 95,74 %
13.01.2018 23:58 0,8 C 3,9 C 93 % 1022,5 hPa 0,0 l/m 14,2 km/h (3 Bft) O-NO 67 0 min 0,000 mm 0,0 UV-I 0 W/m -0,2 C -5,5 C 19,3 km/h (3 Bft) 93,88 %
_ Min-Zeit 17:52 22:38 18:30 23:56 - 01:12 - - - - - - 18:30 19:38 01:10 03:46
Minimum _ -0,1 C 3,9 C 89 % 1022,5 hPa - 0,4 km/h (0 Bft) - - - - - - -1,5 C -11,8 C 1,6 km/h (1 Bft) 90,00 %
_ Max-Zeit 00:00 00:00 02:48 00:00 00:00 19:38 - - 00:00 11:00 00:00 10:12 02:48 00:00 21:20 00:12
Maximum _ 2,8 C 4,4 C 97 % 1026,2 hPa 0,0 l/m 25,5 km/h
O-NO (4 Bft)
- - 0 min 0,051 mm 0,0 UV-I 121 W/m 2,2 C 2,8 C 40,2 km/h
O (6 Bft)
100,00 %
Durchschnitt _ 1,1 C 4,4 C 93 % 1024,9 hPa #0,0 l/m 15,8 km/h (3 Bft) O-NO - #0 min. #0,305 mm 0,0 UV-I 51 W/m 0,1 C -6,0 C 22,2 km/h (4 Bft) 98,03 %